[[{"header":{"parameterUnit":"m.s-1","parameterCategory":1,"la1":30.6,"la2":29.2853,"lo1":-89.7004,"lo2":-87.6739,"dy":0.0162,"dx":0.0183,"nx":112,"ny":82,"refTime":"2024-08-16T18:00:00:Z","depth":0,"parameterNumber":2,"parameterNumberName":"U-component_of_WINDS"},"data":[0.0,0.0,0.0,0.0,0.0,0.0,0.0,0.0,0.0,0.0,0.0,0.0,0.0,0.0,0.0,0.0,0.0,0.0,0.0,0.0,0.0,0.0,0.0,0.0,0.0,0.0,0.0,0.0,0.0,0.0,0.0,0.0,0.0,0.0,0.0,0.0,0.0,0.0,0.0,0.0,0.0,0.0,0.0,0.0,0.0,0.0,0.0,0.0,0.0,0.0,0.0,0.0,0.0,0.0,0.0,0.0,0.0,0.0,0.0,0.0,0.0,0.0,0.0,0.0,0.0,0.0,0.0,0.0,0.0,0.0,0.0,0.0,0.0,0.0,0.0,0.0,0.0,0.0,0.0,0.0,0.0,0.0,0.0,0.0,0.0,0.0,0.0,0.0,0.0,0.0,2.8926,2.8184,2.7441,2.6953,2.6816,2.6074,2.5891,2.6558,0.0,0.0,0.0,0.0,0.0,0.0,0.0,0.0,0.0,0.0,0.0,0.0,0.0,0.0,0.0,0.0,0.0,0.0,0.0,0.0,0.0,0.0,0.0,0.0,0.0,0.0,0.0,0.0,0.0,0.0,0.0,0.0,0.0,0.0,0.0,0.0,0.0,0.0,0.0,0.0,0.0,0.0,0.0,0.0,0.0,0.0,0.0,0.0,0.0,0.0,0.0,0.0,0.0,0.0,0.0,0.0,0.0,0.0,0.0,0.0,0.0,0.0,0.0,0.0,0.0,0.0,0.0,0.0,0.0,0.0,0.0,0.0,0.0,0.0,0.0,0.0,0.0,0.0,0.0,0.0,0.0,0.0,0.0,0.0,0.0,0.0,0.0,0.0,0.0,0.0,0.0,0.0,0.0,0.0,0.0,0.0,0.0,0.0,0.0,0.0,0.0,0.0,0.0,0.0,2.7344,2.7207,2.707,2.6699,2.5957,2.5762,2.5696,2.5697,0.0,0.0,0.0,0.0,0.0,0.0,0.0,0.0,0.0,0.0,0.0,0.0,0.0,0.0,0.0,0.0,0.0,0.0,0.0,0.0,0.0,0.0,0.0,0.0,0.0,0.0,0.0,0.0,0.0,0.0,0.0,0.0,0.0,0.0,0.0,0.0,0.0,0.0,0.0,0.0,0.0,0.0,0.0,0.0,0.0,0.0,0.0,0.0,0.0,0.0,0.0,0.0,0.0,0.0,0.0,0.0,0.0,0.0,0.0,0.0,0.0,0.0,0.0,0.0,0.0,0.0,0.0,0.0,0.0,0.0,0.0,0.0,0.0,0.0,0.0,0.0,0.0,0.0,0.0,0.0,0.0,0.0,0.0,0.0,0.0,0.0,0.0,0.0,0.0,0.0,0.0,0.0,0.0,0.0,0.0,0.0,0.0,0.0,0.0,0.0,0.0,0.0,0.0,2.7285,2.6992,2.6992,2.6582,2.6133,2.5723,2.5703,2.5637,2.5517,2.5464,0.0,0.0,0.0,0.0,0.0,0.0,0.0,0.0,0.0,0.0,0.0,0.0,0.0,0.0,0.0,0.0,0.0,0.0,0.0,0.0,0.0,0.0,0.0,0.0,0.0,0.0,0.0,0.0,0.0,0.0,0.0,0.0,0.0,0.0,0.0,0.0,0.0,0.0,0.0,0.0,0.0,0.0,0.0,0.0,0.0,0.0,0.0,0.0,0.0,0.0,0.0,0.0,0.0,0.0,0.0,0.0,0.0,0.0,0.0,0.0,0.0,0.0,0.0,0.0,0.0,0.0,0.0,0.0,0.0,0.0,0.0,0.0,0.0,0.0,0.0,0.0,0.0,0.0,0.0,0.0,0.0,0.0,0.0,0.0,0.0,0.0,0.0,0.0,0.0,0.0,0.0,0.0,0.0,0.0,0.0,0.0,0.0,0.0,0.0,0.0,0.0,0.0,2.7461,2.7148,2.6738,2.6094,2.5703,2.5703,2.5703,2.5637,2.5517,2.5503,0.0,0.0,0.0,0.0,0.0,0.0,0.0,0.0,0.0,0.0,0.0,0.0,0.0,0.0,0.0,0.0,0.0,0.0,0.0,0.0,0.0,0.0,0.0,0.0,0.0,0.0,0.0,0.0,0.0,0.0,0.0,0.0,0.0,0.0,0.0,0.0,0.0,0.0,0.0,0.0,0.0,0.0,0.0,0.0,0.0,0.0,0.0,0.0,0.0,0.0,0.0,0.0,0.0,0.0,0.0,0.0,0.0,0.0,0.0,0.0,0.0,0.0,0.0,0.0,0.0,0.0,0.0,0.0,0.0,0.0,0.0,0.0,0.0,0.0,0.0,0.0,0.0,0.0,0.0,0.0,0.0,0.0,0.0,0.0,0.0,0.0,0.0,0.0,0.0,0.0,0.0,0.0,0.0,0.0,0.0,0.0,0.0,0.0,0.0,0.0,0.0,0.0,2.7246,2.7598,2.5957,2.5742,2.5703,2.5703,2.5703,2.5637,2.5517,2.5503,0.0,0.0,0.0,0.0,0.0,0.0,0.0,0.0,0.0,0.0,0.0,0.0,0.0,0.0,0.0,0.0,0.0,0.0,0.0,0.0,0.0,0.0,0.0,0.0,0.0,0.0,0.0,0.0,0.0,0.0,0.0,0.0,0.0,0.0,0.0,0.0,0.0,0.0,0.0,0.0,0.0,0.0,0.0,0.0,0.0,0.0,0.0,0.0,0.0,0.0,0.0,0.0,0.0,0.0,0.0,0.0,0.0,0.0,0.0,0.0,0.0,0.0,0.0,0.0,0.0,0.0,0.0,0.0,0.0,0.0,0.0,0.0,0.0,0.0,0.0,0.0,0.0,0.0,0.0,0.0,0.0,0.0,0.0,0.0,0.0,0.0,0.0,0.0,0.0,0.0,0.0,0.0,0.0,0.0,0.0,0.0,0.0,0.0,0.0,0.0,0.0,0.0,2.6758,2.7031,2.582,2.5703,2.5703,2.5703,2.5703,2.5637,2.5517,0.0,0.0,0.0,0.0,0.0,0.0,0.0,0.0,0.0,0.0,0.0,0.0,0.0,0.0,0.0,0.0,0.0,0.0,0.0,0.0,0.0,0.0,0.0,0.0,0.0,0.0,0.0,0.0,0.0,0.0,0.0,0.0,0.0,0.0,0.0,0.0,0.0,0.0,0.0,0.0,0.0,0.0,0.0,0.0,0.0,0.0,0.0,0.0,0.0,0.0,0.0,0.0,0.0,0.0,0.0,0.0,0.0,0.0,0.0,0.0,0.0,0.0,0.0,0.0,0.0,0.0,0.0,0.0,0.0,0.0,0.0,0.0,0.0,0.0,0.0,0.0,0.0,0.0,0.0,0.0,0.0,0.0,0.0,0.0,0.0,0.0,0.0,0.0,0.0,0.0,0.0,0.0,0.0,0.0,0.0,0.0,0.0,0.0,0.0,0.0,0.0,0.0,2.5781,2.6426,2.6641,2.5781,2.5703,2.5703,2.5703,2.5703,2.5637,2.5517,0.0,0.0,0.0,0.0,0.0,0.0,0.0,0.0,0.0,0.0,0.0,0.0,0.0,0.0,0.0,0.0,0.0,0.0,0.0,0.0,0.0,0.0,0.0,0.0,0.0,0.0,0.0,0.0,0.0,0.0,0.0,0.0,0.0,0.0,0.0,0.0,0.0,0.0,0.0,0.0,0.0,0.0,0.0,0.0,0.0,0.0,0.0,0.0,0.0,0.0,0.0,0.0,0.0,0.0,0.0,0.0,0.0,0.0,0.0,0.0,0.0,0.0,0.0,0.0,0.0,0.0,0.0,0.0,0.0,0.0,0.0,0.0,0.0,0.0,0.0,0.0,0.0,0.0,0.0,0.0,0.0,0.0,0.0,0.0,0.0,0.0,0.0,0.0,0.0,0.0,0.0,0.0,0.0,0.0,0.0,0.0,0.0,0.0,0.0,0.0,0.0,0.0,2.5702,2.6367,2.6582,2.5781,2.5703,2.5703,2.5684,2.5684,2.5637,0.0,0.0,0.0,0.0,0.0,0.0,0.0,0.0,0.0,0.0,0.0,0.0,0.0,0.0,0.0,0.0,0.0,0.0,0.0,0.0,0.0,0.0,0.0,0.0,0.0,0.0,0.0,0.0,0.0,0.0,0.0,0.0,0.0,0.0,0.0,0.0,0.0,0.0,0.0,0.0,0.0,0.0,0.0,0.0,0.0,0.0,0.0,0.0,0.0,0.0,0.0,0.0,0.0,0.0,0.0,0.0,0.0,0.0,0.0,0.0,0.0,0.0,0.0,0.0,0.0,0.0,0.0,0.0,0.0,0.0,0.0,0.0,0.0,0.0,0.0,0.0,0.0,0.0,0.0,0.0,0.0,0.0,0.0,0.0,0.0,0.0,0.0,0.0,0.0,0.0,0.0,0.0,0.0,0.0,0.0,0.0,0.0,0.0,0.0,0.0,0.0,0.0,0.0,2.564,2.6334,2.6562,2.5723,2.5664,2.5449,2.4844,2.4785,2.4738,2.4598,0.0,0.0,0.0,0.0,0.0,0.0,0.0,0.0,0.0,0.0,0.0,0.0,0.0,0.0,0.0,0.0,0.0,0.0,0.0,0.0,0.0,0.0,0.0,0.0,0.0,0.0,0.0,0.0,0.0,0.0,0.0,0.0,0.0,0.0,0.0,0.0,0.0,0.0,0.0,0.0,0.0,0.0,0.0,0.0,0.0,0.0,0.0,0.0,0.0,0.0,0.0,0.0,0.0,0.0,0.0,0.0,0.0,0.0,0.0,0.0,0.0,0.0,0.0,0.0,0.0,0.0,0.0,0.0,0.0,0.0,0.0,0.0,0.0,0.0,0.0,0.0,0.0,0.0,0.0,0.0,0.0,0.0,0.0,0.0,0.0,0.0,0.0,0.0,0.0,0.0,0.0,0.0,0.0,0.0,0.0,0.0,0.0,0.0,0.0,0.0,0.0,0.0,2.5524,2.5952,2.6119,2.5644,2.5644,2.5312,2.4473,2.4727,2.4724,2.4264,0.0,0.0,0.0,0.0,0.0,0.0,0.0,0.0,0.0,0.0,0.0,0.0,0.0,0.0,0.0,0.0,0.0,0.0,0.0,0.0,0.0,0.0,0.0,0.0,0.0,0.0,0.0,0.0,0.0,0.0,0.0,0.0,0.0,0.0,0.0,0.0,0.0,0.0,0.0,0.0,0.0,0.0,0.0,0.0,0.0,0.0,0.0,0.0,0.0,0.0,0.0,0.0,0.0,0.0,0.0,0.0,0.0,0.0,0.0,0.0,0.0,0.0,0.0,0.0,0.0,0.0,0.0,0.0,0.0,0.0,0.0,0.0,0.0,0.0,0.0,0.0,0.0,0.0,0.0,0.0,0.0,0.0,0.0,0.0,0.0,0.0,0.0,0.0,0.0,0.0,0.0,0.0,0.0,0.0,0.0,0.0,0.0,0.0,0.0,0.0,0.0,0.0,2.539,2.5409,2.5449,2.5576,2.5605,2.5234,2.4355,2.5078,2.5176,2.4258,0.0,0.0,0.0,0.0,0.0,0.0,0.0,0.0,0.0,0.0,0.0,0.0,0.0,0.0,0.0,0.0,0.0,0.0,0.0,0.0,0.0,0.0,0.0,0.0,0.0,0.0,0.0,0.0,0.0,0.0,0.0,0.0,0.0,0.0,0.0,0.0,0.0,0.0,0.0,0.0,0.0,0.0,0.0,0.0,0.0,0.0,0.0,0.0,0.0,0.0,0.0,0.0,0.0,0.0,0.0,0.0,0.0,0.0,0.0,0.0,2.2382,2.21,0.0,0.0,0.0,0.0,0.0,0.0,0.0,0.0,0.0,0.0,0.0,0.0,0.0,0.0,0.0,0.0,0.0,0.0,0.0,0.0,0.0,0.0,0.0,0.0,0.0,0.0,0.0,0.0,0.0,0.0,0.0,0.0,0.0,0.0,0.0,0.0,0.0,0.0,0.0,0.0,2.5322,2.537,2.5428,2.5511,2.5567,2.5,2.3496,2.418,2.4297,2.3418,2.4062,0.0,0.0,0.0,0.0,0.0,0.0,0.0,0.0,0.0,0.0,0.0,0.0,0.0,0.0,0.0,0.0,0.0,0.0,0.0,0.0,0.0,0.0,0.0,0.0,0.0,0.0,0.0,0.0,0.0,0.0,0.0,0.0,0.0,0.0,0.0,0.0,0.0,0.0,0.0,0.0,0.0,0.0,0.0,0.0,0.0,0.0,0.0,0.0,0.0,0.0,0.0,0.0,0.0,0.0,0.0,0.0,0.0,0.0,0.0,2.4114,2.3736,0.0,0.0,0.0,0.0,0.0,0.0,0.0,0.0,0.0,0.0,0.0,0.0,0.0,0.0,0.0,0.0,0.0,0.0,0.0,0.0,0.0,0.0,0.0,0.0,0.0,0.0,0.0,0.0,0.0,0.0,0.0,0.0,0.0,0.0,0.0,0.0,0.0,0.0,0.0,0.0,2.5303,2.5322,2.539,2.5447,2.5138,2.4422,2.3203,2.3535,2.3613,2.3125,2.3787,0.0,0.0,0.0,0.0,0.0,0.0,0.0,0.0,0.0,0.0,0.0,0.0,0.0,0.0,0.0,0.0,0.0,0.0,0.0,0.0,0.0,0.0,0.0,0.0,0.0,0.0,0.0,0.0,0.0,0.0,0.0,0.0,0.0,0.0,0.0,0.0,0.0,0.0,0.0,0.0,0.0,0.0,0.0,0.0,0.0,0.0,0.0,0.0,0.0,0.0,0.0,0.0,0.0,2.727,2.7251,2.7102,2.6298,2.6153,2.6486,2.5405,2.531,2.5929,2.6257,0.0,0.0,0.0,0.0,0.0,0.0,0.0,0.0,0.0,0.0,0.0,0.0,0.0,0.0,0.0,0.0,0.0,0.0,0.0,0.0,0.0,0.0,2.6509,2.617,2.6525,2.6994,2.7266,0.0,0.0,0.0,0.0,0.0,0.0,0.0,0.0,0.0,0.0,0.0,2.5253,2.5253,2.5283,2.538,2.4675,2.391,2.3164,2.3164,2.3164,2.3105,2.3787,2.4594,0.0,0.0,0.0,0.0,0.0,0.0,0.0,0.0,0.0,0.0,0.0,0.0,0.0,0.0,0.0,0.0,0.0,0.0,0.0,0.0,0.0,0.0,0.0,0.0,0.0,0.0,0.0,0.0,0.0,0.0,0.0,0.0,2.3671,2.5351,0.0,0.0,0.0,0.0,0.0,0.0,0.0,0.0,0.0,0.0,0.0,0.0,0.0,2.6002,2.6002,2.6617,2.694,2.6959,2.7546,2.7477,2.6823,2.5958,2.5416,2.5198,2.5714,0.0,2.6749,2.6804,0.0,0.0,0.0,0.0,0.0,0.0,0.0,0.0,0.0,0.0,0.0,0.0,0.0,0.0,0.0,0.0,0.0,0.0,0.0,0.0,0.0,0.0,2.7672,2.7617,2.7677,2.7759,2.7799,2.7428,2.7164,2.735,2.7553,2.755,0.0,0.0,0.0,0.0,0.0,0.0,2.5106,2.5034,2.5118,2.537,2.4687,2.3909,2.3163,2.3164,2.3164,2.3105,2.3787,2.4594,2.5457,2.537,0.0,0.0,0.0,0.0,0.0,0.0,0.0,0.0,0.0,0.0,0.0,0.0,0.0,0.0,0.0,0.0,0.0,0.0,0.0,0.0,0.0,0.0,0.0,0.0,0.0,0.0,0.0,0.0,0.0,2.2599,2.4245,2.4454,2.5377,2.5816,0.0,0.0,0.0,0.0,0.0,0.0,0.0,0.0,0.0,2.5837,2.6195,2.6383,2.6383,2.6701,2.6845,2.6845,2.6695,2.6428,2.6091,2.525,2.5024,2.5302,2.5396,2.6077,2.7141,2.7451,2.768,2.7798,0.0,0.0,0.0,0.0,2.8451,2.8836,2.9478,2.9535,2.9271,2.8885,0.0,0.0,0.0,0.0,0.0,0.0,0.0,2.6399,2.609,2.6133,2.6179,2.5893,2.5914,2.6156,2.6749,2.6819,2.6953,2.7567,2.7845,2.7862,2.7448,2.7084,0.0,0.0,0.0,2.5758,2.5101,2.501,2.5088,2.5312,2.4649,2.3887,2.3101,2.269,2.2676,2.3125,2.3429,2.4155,2.5438,2.5409,2.5341,0.0,0.0,0.0,0.0,0.0,0.0,0.0,0.0,0.0,0.0,0.0,0.0,0.0,0.0,0.0,0.0,0.0,0.0,0.0,0.0,0.0,0.0,0.0,0.0,0.0,0.0,0.0,0.0,2.327,2.4444,2.3676,2.5134,2.5875,0.0,0.0,0.0,0.0,0.0,0.0,2.5817,2.5681,2.5597,2.5565,2.6051,2.6238,2.6048,2.6108,2.6033,2.5872,2.5394,2.5065,2.4838,2.4366,2.4392,2.4837,2.4724,2.541,2.6634,2.7616,2.8177,2.8387,2.7941,2.7783,2.7926,2.851,2.8866,2.9223,3.0297,3.0338,2.987,2.9551,2.8782,2.7807,2.6898,0.0,0.0,0.0,0.0,2.5788,2.5353,2.5004,2.4669,2.4097,2.4064,2.4396,2.5186,2.5712,2.64,2.7752,2.8138,2.8112,2.7671,2.7134,0.0,2.6078,2.5922,2.5606,2.4959,2.4911,2.503,2.5203,2.4591,2.3942,2.3358,2.2621,2.2578,2.3457,2.3437,2.4035,2.544,2.5438,2.537,2.5303,0.0,0.0,0.0,0.0,0.0,0.0,0.0,0.0,0.0,0.0,0.0,0.0,0.0,0.0,0.0,0.0,0.0,0.0,0.0,0.0,0.0,0.0,0.0,0.0,0.0,0.0,0.0,0.0,0.0,2.4373,2.5727,0.0,0.0,0.0,0.0,2.5508,2.5517,2.5474,2.5336,2.5323,2.5279,2.525,2.5277,2.4986,2.4346,2.4329,2.399,2.3398,2.3786,2.3602,2.2872,2.3287,2.3226,2.2903,2.3702,2.4243,2.4728,2.6909,2.8424,2.9338,2.9301,2.9401,2.9583,2.9621,3.0147,3.075,3.0015,3.0114,3.0383,2.9208,2.7906,2.6783,2.6721,2.6676,0.0,0.0,2.6265,2.6251,2.5262,2.4615,2.4064,2.3401,2.3259,2.3278,2.3307,2.37,2.4912,2.7801,2.8377,2.8293,2.794,0.0,2.6892,2.6116,2.5677,2.5207,2.4605,2.47,2.4869,2.4998,2.4481,2.4105,2.4146,2.346,2.3418,2.4277,2.4277,2.4619,2.5469,2.5429,2.537,2.5303,2.5303,0.0,0.0,0.0,0.0,0.0,0.0,0.0,0.0,0.0,0.0,0.0,0.0,0.0,0.0,0.0,0.0,0.0,0.0,0.0,0.0,0.0,0.0,0.0,0.0,0.0,0.0,0.0,0.0,2.5181,2.575,0.0,2.506,2.491,2.4693,2.4299,2.4912,2.4944,2.4053,2.4767,2.5035,2.4587,2.4551,2.4457,2.42,2.3301,2.2724,2.2501,2.2166,2.2003,2.1991,2.2175,2.2308,2.2453,2.3006,2.3589,2.4217,2.5218,2.6566,2.8068,2.8301,2.8722,2.9251,2.9251,2.9455,2.9681,2.9363,2.9204,2.9089,2.843,2.7483,2.6567,2.6567,2.6183,2.5693,2.557,2.528,2.4873,2.4138,2.3419,2.2649,2.1802,2.1701,2.1837,2.2058,2.2431,2.3292,2.5145,2.6097,2.6779,2.7422,2.697,2.6364,2.576,2.5342,2.4853,2.4266,2.4535,2.4855,2.4986,2.4952,2.4735,2.4246,2.4001,2.4023,2.4375,2.4375,2.4726,2.5535,2.5543,2.5486,2.537,2.537,2.5341,0.0,0.0,0.0,0.0,0.0,0.0,0.0,0.0,0.0,0.0,0.0,0.0,0.0,0.0,0.0,0.0,0.0,0.0,0.0,0.0,0.0,0.0,0.0,0.0,0.0,2.5049,2.5756,2.4459,2.5111,2.5259,2.425,2.4511,2.4555,2.418,2.4423,2.4139,2.3137,2.3492,2.344,2.2825,2.2812,2.2701,2.2493,2.174,2.1253,2.1019,2.0854,2.091,2.1165,2.1337,2.1628,2.2077,2.2309,2.2791,2.3436,2.371,2.4754,2.6258,2.6949,2.7543,2.8017,2.8017,2.7947,2.7858,2.7858,2.7601,2.7228,2.6852,2.6224,2.5581,2.5413,2.4996,2.4516,2.4516,2.4053,2.3417,2.2693,2.204,2.1361,2.0341,2.032,2.0639,2.0844,2.1221,2.182,2.2878,2.415,2.5308,2.621,2.5828,2.5338,2.5129,2.4748,2.4396,2.4115,2.4439,2.4756,2.493,2.5126,2.5079,2.4649,2.4667,2.4721,2.4805,2.4824,2.5077,2.5576,2.5582,2.5517,2.5395,2.5399,2.539,2.537,0.0,0.0,0.0,0.0,0.0,0.0,0.0,0.0,0.0,0.0,0.0,0.0,0.0,0.0,0.0,0.0,0.0,0.0,0.0,0.0,0.0,0.0,0.0,2.4154,2.4824,2.4481,2.2338,2.3903,2.4607,2.3211,2.4281,2.5064,2.5026,2.3966,2.304,2.2469,2.1465,2.0624,2.0073,2.0059,1.9753,1.9086,1.9589,1.9526,1.8893,1.9814,2.0265,2.0299,2.0748,2.1213,2.1582,2.1582,2.1869,2.2293,2.2573,2.3189,2.4121,2.5499,2.6062,2.608,2.608,2.5895,2.5585,2.5585,2.5341,2.4999,2.4518,2.4139,2.3769,2.3312,2.3157,2.3157,2.3157,2.2769,2.2099,2.1015,2.0655,2.0347,1.9203,1.9332,1.969,1.969,2.0,2.0531,2.1299,2.2728,2.395,2.4397,2.4144,2.3989,2.4224,2.3932,0.0,2.4132,2.4357,2.4594,2.4775,2.493,2.5107,2.538,2.5453,2.5535,2.5605,2.5664,2.5676,2.5619,2.5547,2.5463,2.5402,2.5395,2.5438,2.5495,0.0,0.0,0.0,0.0,0.0,0.0,0.0,0.0,0.0,0.0,0.0,0.0,0.0,0.0,0.0,0.0,0.0,0.0,0.0,0.0,0.0,2.3614,2.4003,2.411,2.4745,2.4822,2.3735,2.3765,2.3537,2.2676,2.23,2.1895,2.138,2.1151,2.0556,1.948,1.9998,2.0045,1.9387,1.9359,1.9308,1.9086,1.8777,1.8509,1.8341,1.8977,1.9456,1.9798,2.0265,2.0748,2.1181,2.146,2.1658,2.1823,2.2243,2.2691,2.3189,2.4375,2.5229,2.5729,2.5729,2.5661,2.5533,2.4934,2.4665,2.4475,2.3753,2.3195,2.2801,2.2656,2.2375,2.2118,2.2118,2.1652,2.1107,2.0798,2.0318,1.9878,1.956,1.9603,1.969,1.969,1.9782,2.0025,2.0543,2.1274,2.2281,2.3801,2.3776,2.3579,2.3648,2.3473,2.3369,2.3459,2.4061,2.4594,2.4775,2.493,2.5107,2.538,2.5455,2.5537,2.5605,2.5664,2.5683,2.5677,2.5659,2.5616,2.5551,2.5498,2.5486,0.0,0.0,0.0,0.0,0.0,0.0,0.0,0.0,0.0,0.0,0.0,0.0,0.0,0.0,0.0,0.0,0.0,0.0,0.0,0.0,0.0,0.0,2.328,2.3115,2.317,2.3905,2.4137,2.3248,2.2677,2.2103,2.1439,2.0881,2.0415,2.0002,1.9608,1.9037,1.8274,1.8473,1.8415,1.802,1.8028,1.8011,1.8011,1.7841,1.7747,1.7787,1.8302,1.8826,1.931,1.96,2.0093,2.0715,2.0943,2.1259,2.1612,2.1899,2.2215,2.2615,0.0,0.0,0.0,0.0,2.4093,2.3867,2.3393,2.3123,2.2876,2.2192,2.1776,2.1507,2.1305,2.1076,2.0857,2.0857,2.0421,1.9958,1.9958,1.9499,1.9095,1.9332,1.9369,1.9442,1.9639,1.969,1.9782,2.0,2.0565,0.0,2.2508,2.2831,2.2977,2.3095,2.3144,2.3236,2.3392,2.3963,2.4444,2.4654,2.4809,2.5012,2.522,2.5379,0.0,0.0,0.0,2.5664,2.5664,2.5668,0.0,0.0,0.0,0.0,0.0,0.0,0.0,0.0,2.664,2.739,0.0,0.0,0.0,0.0,0.0,0.0,0.0,0.0,0.0,0.0,0.0,0.0,0.0,0.0,0.0,0.0,2.2243,2.1671,2.1758,2.2443,2.2528,2.154,2.0968,2.0421,1.9749,1.9768,1.9778,1.9778,1.8758,1.812,1.812,1.7063,0.0,0.0,0.0,1.6522,1.6522,1.6951,1.7188,1.7229,1.7827,1.8341,1.8817,1.893,1.9434,2.0212,2.028,2.0732,2.146,2.1552,2.1899,2.2321,2.2563,2.2643,2.2634,2.2388,2.2003,2.1582,2.1552,0.0,0.0,2.0382,2.0177,2.0074,1.9782,1.9603,1.953,1.969,1.9281,1.8855,1.8968,1.8574,1.8341,1.8855,1.9006,1.9132,1.9603,1.969,1.9711,1.9747,2.0431,2.0991,2.1055,2.1751,2.2388,2.2625,2.2923,2.3259,2.3588,2.3937,2.4247,2.4478,2.4685,0.0,2.4998,2.525,2.5423,2.5477,2.5544,2.5585,2.5585,2.5585,2.5586,2.5592,2.5584,2.5615,2.5687,2.562,2.563,2.5746,2.6437,2.7413,0.0,0.0,0.0,0.0,0.0,0.0,0.0,0.0,0.0,0.0,0.0,0.0,0.0,0.0,0.0,2.1785,2.138,2.108,2.108,2.0401,1.9833,1.9611,1.9515,1.9195,1.85,1.8072,1.7851,1.7851,1.7213,1.6832,1.6832,1.6615,1.6522,1.6522,1.6522,1.6522,1.6522,1.6595,1.6637,1.668,1.7626,0.0,1.8302,1.9169,1.9624,1.9839,2.0158,2.0416,2.0616,2.1321,2.1899,2.231,2.2377,2.2388,2.236,2.2338,2.2003,2.1552,2.1213,2.0813,2.0348,1.9945,1.9536,1.9251,1.9603,1.9095,0.0,1.9442,1.9006,1.8458,1.9332,1.9169,1.8893,1.9406,1.9566,1.9566,1.969,1.969,1.9782,2.0124,2.0632,2.1086,2.143,2.1945,2.2338,2.236,2.2616,2.2923,2.3236,2.3588,2.3979,2.4461,2.4685,2.4855,2.4998,2.525,2.5409,2.5416,2.5471,2.5524,2.5524,2.5524,2.5522,2.5512,2.5512,2.5525,2.5531,2.5527,2.5858,2.6495,2.6472,2.6618,0.0,0.0,0.0,0.0,0.0,0.0,0.0,0.0,0.0,0.0,0.0,2.171,2.1736,0.0,2.1055,2.0811,2.0312,1.9917,1.9619,1.8816,1.8484,1.9045,1.8577,1.8072,1.7733,1.7188,1.6909,1.6909,1.6637,1.6522,1.6522,1.6522,1.6522,1.6522,1.6752,1.6752,1.6522,1.6752,1.6909,1.6909,1.7422,1.7987,1.8535,1.9043,1.9442,1.9711,1.9909,2.0124,2.0382,2.1228,2.1628,2.1691,2.1869,2.1957,2.1945,2.1721,2.1337,2.0927,2.0715,2.0364,1.9965,1.9782,1.9332,1.9006,1.953,1.9132,1.865,1.9479,1.9132,1.8688,1.9479,1.9095,1.8688,1.953,1.9479,1.9369,1.9639,1.969,1.9747,1.9965,2.0532,2.1055,2.1275,2.184,2.231,2.231,2.2527,2.2822,2.3165,2.3482,2.3878,2.4303,2.4528,2.4712,2.4891,2.5217,2.5409,2.5409,2.5459,2.5503,2.5503,2.5503,2.5503,2.5503,2.5503,2.5503,2.5503,2.5464,2.5599,2.5891,2.5703,2.6025,0.0,0.0,0.0,0.0,0.0,0.0,0.0,2.2044,2.2053,2.1692,2.1318,2.1104,2.1046,2.0345,1.974,1.9724,1.9186,1.8621,1.8205,1.7606,1.7573,1.8506,1.7756,1.7146,1.7146,1.6752,1.6522,1.6522,1.6522,1.6522,1.6522,1.6522,1.6552,1.6637,1.7076,1.7146,1.6795,1.7229,1.7463,1.7463,1.7544,1.8066,1.8893,1.9006,1.9281,1.969,1.969,1.9945,2.0348,2.1165,2.1275,2.1023,2.1368,2.143,2.1321,2.1086,2.0682,2.0314,2.0314,2.0035,1.969,1.969,1.9332,1.9006,1.953,1.9244,1.8893,1.953,1.9244,1.8893,1.953,1.8968,1.8496,1.9479,1.9369,1.9169,1.9603,1.969,1.9747,1.9925,2.0514,2.1055,2.1229,2.184,2.231,2.231,2.2473,2.2764,2.3141,2.3455,2.3774,2.4151,2.4375,2.4591,2.4814,2.5141,2.534,2.538,2.5428,2.5466,2.5466,2.5466,2.5466,2.5466,2.5466,2.5437,2.5407,2.5349,2.5225,2.5037,2.4775,2.5343,2.6356,2.4681,2.2893,2.3062,2.2429,2.1653,0.0,2.0967,2.0489,2.0194,2.0088,1.9914,1.9456,1.9284,1.9041,1.8508,1.7961,1.7574,1.751,1.698,1.6653,1.6769,1.6675,1.6595,1.6595,1.6552,1.6522,1.6522,1.6522,1.6522,1.6522,1.6522,1.671,1.7188,1.7271,1.7504,1.7907,1.7987,1.8027,1.8027,1.8496,1.8779,1.893,1.9406,1.9639,1.969,1.969,1.9945,2.0348,2.0862,2.1023,2.0991,2.1055,2.0813,2.0483,2.0862,2.0682,2.0314,2.0314,2.0035,1.969,1.969,1.9332,1.9006,1.953,1.9006,1.8419,1.9406,1.8968,1.8419,1.9442,1.9244,1.8968,1.9566,1.9639,1.9639,1.969,1.969,1.9909,2.0698,2.0926,2.126,2.202,2.2254,2.231,2.231,2.2338,2.2544,2.3135,2.3236,2.35,2.4113,2.4375,2.4636,2.4949,2.501,2.513,2.5303,2.5322,2.5322,2.5322,2.5322,2.5322,2.5322,2.5322,2.5233,2.5053,2.5053,2.4968,2.4818,2.4332,2.4192,2.4225,2.3154,2.2275,2.1955,2.1564,2.1167,2.0808,2.0791,2.0696,2.005,1.9902,1.9642,1.8802,1.833,1.7894,1.732,1.7024,1.6886,1.6886,1.6672,1.6522,1.6522,1.6522,1.6522,1.6522,1.6522,1.6522,1.6522,1.6522,1.6637,1.6951,1.668,1.6879,1.7747,1.7787,1.7867,1.8106,1.8419,1.8574,1.8574,1.8779,1.9043,1.9369,1.9603,1.969,1.969,1.969,1.9782,1.9965,2.0431,2.0465,2.0277,2.0499,2.033,1.9965,2.0174,2.0104,1.9929,1.9929,1.9839,1.969,1.969,1.9332,1.9006,1.953,1.9169,1.8727,1.9479,1.9369,1.9132,1.9566,1.953,1.9406,1.9639,1.969,1.969,1.969,1.969,1.9889,2.0499,2.0829,2.1197,2.1794,2.2106,2.231,2.231,2.231,2.2508,2.3117,2.3189,2.3477,2.4132,2.4375,2.4559,2.4693,2.4898,2.5034,2.5111,2.5243,2.5253,2.5141,2.5141,2.5096,2.5019,2.5019,2.4962,2.4877,2.4877,2.478,2.4607,2.421,2.3832,2.2623,2.204,2.1803,2.1247,2.0939,2.0745,2.0474,2.0645,2.0591,1.9584,1.9404,1.9055,1.8011,1.7465,1.7011,1.6584,1.6522,1.6522,1.6522,1.6522,1.6522,1.6522,1.6522,1.6552,1.671,1.6595,1.6552,1.671,1.671,1.6951,1.7504,1.7146,1.7394,1.8302,1.8341,1.838,1.8535,1.893,1.9132,1.9132,1.9132,1.9332,1.969,1.969,1.969,1.969,1.969,1.9747,1.9874,2.0193,2.0124,1.9909,2.0193,2.0054,1.969,1.969,1.969,1.969,1.969,1.969,1.969,1.969,1.9442,1.9207,1.9566,1.9442,1.9207,1.9603,1.969,1.969,1.969,1.969,1.969,1.969,1.969,1.969,1.969,1.969,1.9839,2.0382,2.0764,2.1166,2.1688,2.2061,2.231,2.231,2.231,2.248,2.2996,2.3212,2.3566,2.4151,2.4339,2.4426,2.4495,2.4723,2.4885,2.4937,2.5084,2.5096,2.4949,2.4937,2.4904,2.4804,2.4804,2.4775,2.4716,2.4617,2.4489,2.4265,2.385,2.3414,2.2439,2.1857,2.1546,2.1346,2.0794,2.0397,2.0625,2.022,1.9435,1.8369,1.8133,1.7828,1.6748,1.6547,1.6534,1.6522,1.6522,1.6522,1.6522,1.6522,1.6522,1.6522,1.6522,1.671,1.7229,1.6795,1.671,1.7229,1.7271,1.7504,1.8066,1.8066,1.8302,1.8855,1.8893,1.9132,1.9639,1.969,1.969,1.969,1.969,1.969,1.969,1.969,1.969,1.969,1.969,1.9909,2.028,2.028,2.028,2.028,2.0314,2.0054,1.969,1.969,1.969,1.969,1.969,1.969,1.969,1.969,1.969,1.969,1.969,1.969,1.969,1.969,1.969,1.969,1.969,1.969,1.969,1.969,1.969,1.969,1.969,1.969,1.9945,2.0797,2.0991,2.126,2.2135,2.2282,2.231,2.231,2.231,2.2415,2.2686,2.3282,2.3816,2.417,2.4227,2.4284,2.4478,2.4512,2.4591,2.4804,2.4818,2.4818,2.4804,2.4804,2.4804,2.4804,2.4804,2.47,2.4512,2.4173,2.3928,2.3714,2.3045,2.2746,2.1628,2.1054,2.0663,2.0309,2.0076,1.9935,2.001,1.9854,1.9406,1.8341,1.8106,1.7787,1.671,1.6522,1.6522,1.6522,1.6522,1.6522,1.6522,1.6522,1.6522,1.6522,1.72,1.7764,1.7964,1.7411,1.7229,1.7787,1.7827,1.8066,1.8612,1.8302,1.8496,1.9406,1.9095,1.9169,1.969,1.969,1.969,1.969,1.969,1.969,1.969,1.969,1.969,1.969,1.969,1.9782,1.9909,2.0193,2.0158,1.9945,2.0193,2.0054,1.969,1.969,1.969,1.969,1.969,1.969,1.969,1.969,1.969,1.969,1.969,1.969,1.969,1.969,1.969,1.969,1.969,1.969,1.969,1.969,1.969,1.969,1.969,1.969,1.9889,2.0416,2.0797,2.1181,2.1735,2.2106,2.231,2.231,2.2634,2.2933,2.3021,2.3628,2.4074,2.419,2.419,2.4228,2.4303,2.4409,2.4528,2.4591,2.4731,2.4746,2.4607,2.4591,2.4545,2.441,2.441,2.4375,2.4303,2.3963,2.378,2.3692,2.3021,2.2695,2.1197,2.0797,2.0431,1.9854,1.969,1.969,1.969,1.969,1.9406,1.8341,1.8106,1.7787,1.671,1.6522,1.6522,1.6522,1.6522,1.6522,1.6522,1.6522,1.6597,1.681,1.7713,1.8465,1.8838,1.8684,1.8714,1.9093,1.9093,1.9234,1.9534,1.92,1.9228,1.969,1.9369,1.9369,1.969,1.969,1.969,1.969,1.9929,1.9929,1.969,1.969,1.969,1.969,1.969,1.9782,1.9909,2.0035,2.0035,1.9945,2.0035,1.9945,1.969,1.969,1.969,1.969,1.969,1.969,1.969,1.969,1.969,1.969,1.969,1.969,1.969,1.969,1.969,1.969,1.969,1.969,1.969,1.969,1.969,1.969,1.969,1.9803,2.0035,2.0465,2.091,2.1354,2.1764,2.2106,2.231,2.231,2.2954,2.3379,2.3224,2.3566,2.3937,2.417,2.419,2.419,2.419,2.4321,2.4393,2.4393,2.4512,2.4528,2.441,2.4393,2.4321,2.419,2.419,2.4151,2.4016,2.3692,2.3459,2.3346,2.2789,2.2563,2.1229,2.0975,2.0731,1.9925,1.969,1.969,1.969,1.969,1.9406,1.838,1.8145,1.7787,1.671,1.6534,1.6559,1.6559,1.6584,1.6597,1.6572,1.6559,1.6804,1.7402,1.8004,1.8868,1.9887,2.0613,2.1048,2.1048,2.099,2.0903,2.0759,2.0767,2.0453,1.9765,1.9735,1.972,1.969,1.972,1.975,1.9794,2.0423,2.0378,1.9735,1.9741,1.969,1.969,1.969,1.9909,2.0246,1.9874,1.9929,2.0212,1.9874,1.9711,1.969,1.969,1.969,1.969,1.969,1.969,1.969,1.969,1.969,1.969,1.969,1.969,1.969,1.969,1.969,1.969,1.969,1.969,1.969,1.969,1.969,1.969,1.969,2.0035,2.0449,2.0862,2.1339,2.1814,2.2259,2.2395,2.2412,2.2412,2.3271,2.3763,2.3294,2.3295,2.3585,2.4222,2.4318,2.43,2.4263,2.43,2.43,2.4263,2.4263,2.4263,2.4263,2.4226,2.419,2.417,2.417,2.4016,2.3671,2.3346,2.3021,2.2695,2.2426,2.231,2.1071,2.0548,1.998,1.9747,1.969,1.969,1.969,1.969,1.953,1.8817,1.838,1.7907,1.7229,1.7153,1.7162,1.7162,1.7501,1.7639,1.7225,1.7491,1.7835,1.8039,1.9347,2.0557,2.1312,2.2336,2.2931,2.2931,2.2014,2.1486,2.1455,2.1455,2.1141,2.0483,2.0453,2.0213,1.969,2.0198,2.0707,2.1186,2.0872,2.0617,2.0438,1.9914,1.969,1.969,1.969,1.9747,1.9874,2.007,2.0035,1.9874,2.0054,1.9965,1.969,1.969,1.969,1.969,1.969,1.969,1.969,1.969,1.969,1.969,1.969,1.969,1.969,1.969,1.969,1.969,1.969,1.969,1.969,1.969,1.969,1.969,1.969,2.0035,2.0348,2.0449,2.1553,2.2573,2.3047,2.3579,2.3934,2.3934,2.416,2.4213,2.3797,2.4637,2.535,2.5529,2.5804,2.575,2.5164,2.564,2.5731,2.5146,2.509,2.509,2.509,2.452,2.4074,2.3837,2.3816,2.3671,2.3323,2.2996,2.2797,2.2695,2.2426,2.231,2.1055,2.0499,1.9909,1.9747,1.969,1.969,1.969,1.969,1.9566,1.9006,1.865,1.8224,1.7422,1.7722,1.7971,1.7471,1.8053,1.8462,1.819,1.8401,1.8791,1.9398,2.057,2.157,2.2206,2.3068,2.3595,2.3595,2.2936,2.2413,2.2143,2.2128,2.1829,2.1171,2.1141,2.0961,2.0572,2.1246,2.162,2.1695,2.162,2.1425,2.1141,2.0737,2.0408,2.0139,2.0139,1.9959,1.9711,1.9929,1.9894,1.9711,1.9945,1.9909,1.969,1.969,1.969,1.969,1.969,1.9884,2.0094,1.9794,1.969,1.969,1.969,1.969,1.969,1.969,1.969,1.975,2.0064,2.0139,2.0213,2.0498,2.0572,2.0633,2.0862,2.1228,2.1666,2.2053,2.288,2.3572,2.3836,2.4235,2.4506,2.4506,2.4763,2.4907,2.468,2.517,2.5671,2.5967,2.6191,2.6224,2.5952,2.6337,2.641,2.5952,2.5915,2.5709,2.5199,2.4741,2.4179,2.35,2.3477,2.3323,2.2972,2.2797,2.2634,2.2527,2.236,2.231,2.1181,2.0682,2.0227,1.9874,1.9747,1.969,1.969,1.969,1.9581,1.9211,1.906,1.8768,1.7936,1.8534,1.8813,1.7893,1.8503,1.9177,1.9344,1.9336,1.9768,2.1032,2.167,2.2236,2.2772,2.3275,2.3595,2.3595,2.3595,2.337,2.2873,2.2802,2.2503,2.1844,2.1739,2.1739,2.1829,2.2398,2.2428,2.1964,2.2443,2.2383,2.1814,2.1739,2.138,2.0842,2.0752,2.0423,1.9929,1.975,1.9735,1.9824,1.9824,1.9824,1.9824,1.9914,1.9959,1.9959,1.9959,2.0348,2.0737,2.0049,1.9824,1.9839,1.9929,1.9884,1.9839,1.9929,1.9959,2.0094,2.0692,2.0842,2.0991,2.156,2.1695,2.1798,2.2224,2.2708,2.3381,2.4303,2.4591,2.4659,2.4659,2.4743,2.4811,2.4811,2.5338,2.5761,2.5761,2.5493,2.5537,2.6101,2.6218,2.6369,2.6673,2.6786,2.6786,2.6695,2.6738,2.6261,2.518,2.4987,2.4382,2.3318,2.3194,2.2972,2.2634,2.2634,2.2527,2.231,2.231,2.231,2.1521,2.0894,2.028,2.0212,1.9945,1.969,1.969,1.969,0.0,2.0295,2.004,1.9832,2.0226,2.0042,1.9753,1.9567,1.9581,1.9876,2.0603,2.059,2.1,2.2405,2.254,2.278,2.3405,2.3551,2.3595,2.3595,2.3595,2.355,2.3445,2.343,2.3146,2.2532,2.1979,2.1964,2.2503,2.2664,2.2877,2.3266,2.2862,2.2664,2.2488,2.1934,2.1635,2.15,2.0946,2.0961,2.1261,2.0154,2.0019,2.0543,2.0543,2.0543,2.0602,2.1141,2.135,2.135,2.135,2.1425,2.1425,2.0752,2.0543,2.0632,2.1186,2.0976,2.0647,2.1201,2.135,2.138,2.15,2.153,2.156,2.1665,2.1695,2.1734,2.1798,2.2502,2.3381,2.4303,2.4983,2.5423,2.5423,2.5913,2.6302,2.6302,2.642,2.6505,2.6505,2.6742,2.6966,2.7068,2.736,2.7442,2.7133,2.7718,2.7809,2.714,2.7415,2.7245,2.6437,2.5422,2.4534,2.378,2.3119,2.2652,2.236,2.236,2.2349,2.231,2.231,2.231,2.1582,2.0959,2.0314,2.0314,2.0,1.969,1.969,0.0,0.0,2.0647,2.0783,2.0841,2.0889,2.1105,2.112,2.0588,2.0895,2.1519,2.2318,2.2353,2.283,2.4143,2.3941,2.3804,2.4103,2.3804,2.3595,2.3595,2.3595,2.3595,2.3595,2.3595,2.346,2.3161,2.2862,2.2832,2.3161,2.3161,2.331,2.3595,2.3295,2.3161,2.3146,2.2832,2.2517,2.2188,2.1874,2.1724,2.165,2.1006,2.0932,2.1231,2.1231,2.1231,2.1261,2.1575,2.1695,2.1695,2.1695,2.1919,2.2158,2.1844,2.15,2.1276,2.1605,2.1485,2.1291,2.1605,2.1695,2.1769,2.2113,2.2203,2.2293,2.2607,2.2914,2.3182,2.3444,2.4079,2.4818,2.5528,2.593,2.6167,2.6167,2.6471,2.6691,2.6691,2.6691,2.6691,2.6691,2.6873,2.7051,2.7272,2.747,2.7578,2.7567,2.7915,2.7969,2.7576,2.7733,2.7424,2.6486,2.5887,2.5154,2.4247,2.3448,2.2988,2.2868,2.2496,2.231,2.231,2.231,2.231,2.1797,2.1165,2.0599,2.067,2.0338,2.0074,2.0115,2.0543,2.0961,2.1111,2.1545,2.1813,2.1547,2.2076,2.2292,2.1619,2.2124,2.3035,2.4143,2.4067,2.4422,2.5881,2.533,2.4746,2.4597,2.4133,2.3759,2.361,2.3595,2.3595,2.3595,2.3595,2.3595,2.3595,2.3595,2.3595,2.3595,2.3595,2.3595,2.3595,2.3595,2.3595,2.3595,2.3595,2.3325,2.2903,2.2783,2.2458,2.2084,2.1799,2.1784,2.1904,2.1904,2.1904,2.1919,2.2054,2.2099,2.2099,2.2099,2.2443,2.2877,2.2877,2.2443,2.1934,2.2069,2.2009,2.1934,2.2069,2.2099,2.2218,2.2742,2.2877,2.2996,2.349,2.3991,2.4552,2.5089,2.5615,2.6156,2.6624,2.6691,2.6691,2.6691,2.6691,2.6691,2.6691,2.6691,2.6691,2.6691,2.6691,2.6808,2.7147,2.7178,2.7317,2.7754,2.7783,2.7783,2.7783,2.784,2.7414,2.6364,2.6251,2.5721,2.476,2.3849,2.3393,2.3393,2.2665,2.231,2.231,2.231,2.2254,2.2423,2.1869,2.1546,2.1775,2.149,2.1213,2.1467,0.0,2.1769,2.2368,2.2589,2.2757,2.3268,2.2981,2.2867,2.3385,2.3019,2.3518,2.6015,2.5315,2.5301,2.7181,2.6288,2.5285,2.4642,2.4522,2.4283,2.3655,2.3595,2.3595,2.3595,2.3595,2.3595,2.3595,2.3595,2.3595,2.3595,2.3595,2.3595,2.3595,2.3595,2.3595,2.3595,2.3595,2.3565,2.349,2.2921,2.2966,2.334,2.2173,2.2054,2.2634,2.2634,2.2634,2.2652,2.3206,2.343,2.343,2.343,2.3475,2.352,2.352,2.3086,2.2697,2.3251,2.3026,2.2697,2.3266,2.343,2.343,2.349,2.352,2.3535,2.3595,2.3991,2.4552,2.5089,2.5615,2.6156,2.6624,2.6691,2.6691,2.6691,2.6691,2.6691,2.6691,2.6691,2.6691,2.6691,2.6691,2.6725,2.6758,2.6758,2.6939,2.7334,2.7365,2.7365,2.7365,2.7678,2.7542,2.669,2.6375,2.5979,2.5507,2.412,2.3393,2.3393,2.2665,2.231,2.231,2.231,2.2061,2.3156,2.2959,2.2817,2.2146,2.1969,2.1923,2.1738,2.1994,2.2368,2.2622,2.2981,2.331,2.355,2.3421,2.3452,2.4115,2.4034,2.4465,2.6326,2.6494,2.6713,2.7515,2.7111,2.6527,2.5869,2.545,2.5106,2.4822,2.4807,2.4807,2.4807,2.4044,2.3595,2.3595,2.3595,2.3595,2.3595,2.3595,2.3595,2.3595,2.3595,2.3595,2.3595,2.3595,2.3595,2.3595,2.334,2.337,2.3565,2.3056,2.2996,2.3236,2.3236,2.3236,2.3266,2.3505,2.3595,2.3595,2.3595,2.3595,2.3595,2.3595,2.343,2.3281,2.3535,2.343,2.3281,2.3535,2.3595,2.3595,2.3595,2.3595,2.3595,2.3595,2.3991,2.4661,2.5648,2.6265,2.6819,2.7264,2.7368,2.7232,2.6776,2.6691,2.6691,2.6691,2.6691,2.6691,2.6691,2.6691,2.6691,2.6691,2.6691,2.6741,2.6939,2.6939,2.6939,2.6939,2.7083,2.7019,2.6725,2.6568,2.6447,2.6268,2.5253,2.4729,2.4729,2.3985,2.3613,2.3613,2.3613,2.3368,2.3917,2.3902,2.3852,2.2889,2.2754,2.2807,2.2365,2.2622,2.2951,2.2951,2.3295,2.3595,2.3595,2.3595,2.3879,0.0,2.5076,2.5734,2.726,2.7874,2.8284,2.8412,2.8278,2.7829,2.6961,2.6108,2.5615,2.5615,2.5615,2.5615,2.5615,2.4702,2.4103,2.3909,2.3909,2.3804,2.3595,2.3595,2.3595,2.3595,2.3595,2.3595,2.3595,2.3595,2.3595,2.3595,2.3595,2.3595,2.3595,2.3595,2.3595,2.3595,2.3595,2.3595,2.3595,2.3595,2.3595,2.3625,2.3834,2.3774,2.3625,2.3834,2.3759,2.3595,2.3595,2.3595,2.3595,2.3595,2.3595,2.3595,2.3595,2.3724,2.3882,2.4122,2.4699,2.5481,2.6598,2.7284,2.7748,2.8091,2.8163,2.7994,2.7469,2.7368,2.7368,2.7368,2.7182,2.7029,2.7029,2.6826,2.6691,2.6691,2.6691,2.6691,2.6691,2.6691,2.6691,2.6691,2.6691,2.6691,2.6691,2.6691,2.6691,2.6691,2.5981,2.5609,2.5609,2.4847,2.4506,2.4506,2.4506,2.4223,2.4678,2.4506,2.4439,2.4148,2.4069,2.398,2.367,2.3595,2.3595,2.3595,2.3595,2.3595,2.3595,2.3595,2.4044,2.5375,2.6153,2.7275,2.9265,2.9549,2.9789,3.0402,2.9939,2.9041,2.7745,2.6378,2.5615,2.5615,2.5615,2.5615,2.5615,2.56,2.53,2.4597,2.4567,2.4283,2.361,2.3595,2.3595,2.3595,2.3595,2.3595,2.3595,2.3595,2.3595,2.3595,2.3595,2.3595,2.3595,2.3595,2.3595,2.3595,2.3595,2.3595,2.3595,2.3595,2.3595,2.3699,2.4373,2.4178,2.3714,2.4343,2.4163,2.3595,2.3595,2.3595,2.3595,2.3595,2.3595,2.3595,2.3595,2.3991,2.456,2.5284,2.6318,2.7283,2.8031,2.859,2.8975,2.8975,2.9011,2.9011,2.8958,2.8958,2.8958,2.8958,2.8298,2.7772,2.7772,2.7165,2.6691,2.6691,2.6691,2.6691,2.6691,2.6691,2.6691,2.6691,2.6691,2.6691,2.6691,2.6691,2.6691,2.6691,2.5981,2.5609,2.5609,2.4847,2.4506,2.4506,2.4506,2.4288,2.5456,2.5609,2.5782,2.4818,2.4987,2.519,2.4343,2.4158,2.4032,2.3681,2.3595,2.3595,2.3595,2.3984,2.4881,2.6662,2.7515,2.8652,3.0642,3.13,3.1315,3.0597,2.9564,2.8742,2.8308,2.747,2.6946,2.6946,2.6946,2.6946,2.6946,2.6946,2.6437,2.533,2.53,2.4971,2.4313,2.4747,2.4747,2.4313,2.4762,2.4971,2.4971,2.4971,2.4971,2.4971,2.4971,2.4717,2.4253,2.4253,2.4253,2.4253,2.4253,2.4582,2.4971,2.4971,2.4971,2.5001,2.5226,2.5151,2.5001,2.5226,2.5151,2.4971,2.4971,2.4328,2.3595,2.3595,2.3595,2.3714,2.4178,2.4706,2.5315,2.6041,2.704,2.8064,2.8791,2.9359,2.9753,2.9753,2.9753,2.9583,2.9076,2.9011,2.9011,2.9011,2.8772,2.8619,2.8619,2.7943,2.7469,2.7469,2.6996,2.6691,2.6691,2.6691,2.6691,2.6691,2.6691,2.6691,2.6691,2.6691,2.6691,2.6691,2.6471,2.6353,2.6353,2.6116,2.5998,2.5998,2.5681,2.5211,2.6133,2.6353,2.6539,2.5837,2.5829,2.5873,2.5331,2.4803,2.4379,2.4371,2.4163,2.4059,2.4313,2.4717,2.5555,2.729,2.8353,2.9579,3.1228,3.2317,3.2482,3.139,2.9909,2.8966,2.8966,2.8113,2.7625,2.7625,2.7625,2.7625,2.7625,2.7625,2.72,2.6378,2.6108,2.5659,2.4955,2.5405,2.5405,2.4955,2.542,2.5615,2.5615,2.5615,2.5615,2.5615,2.5615,2.5375,0.0,2.5001,2.5001,2.5001,2.5001,2.5255,2.5615,2.5615,2.5615,2.5644,2.5899,2.5809,2.5644,2.5899,2.5809,2.5615,2.5615,2.5016,2.4358,2.4358,2.452,2.4771,2.5212,2.5886,2.6675,2.7392,2.8233,2.9132,2.9865,3.0286,3.0531,3.0531,3.0531,3.0362,2.9905,2.982,2.982,2.982,2.9583,2.9414,2.9414,2.8738,2.8264,2.8264,2.7841,2.7554,2.7554,2.7029,2.6691,2.6691,2.6691,2.6691,2.6691,2.6691,2.6691,2.6691,2.6691,2.6691,2.6691,2.6691,2.6624,2.6436,2.6156,2.5694,0.0,2.6725,2.6842,2.7085,2.664,2.6232,2.6486,2.5486,0.0,2.5438,2.5121,2.4911,2.5615,2.5749,2.6213,2.7619,2.8936,3.0238,3.1554,3.2751,3.3275,3.2662,3.0851,2.9624,2.9579,2.8412,2.7619,2.7625,2.7625,2.7625,2.7625,2.7625,2.7625,2.7625,2.6976,2.6348,2.5689,2.5719,2.5719,2.5674,2.5734,2.5749,2.5749,2.5749,2.5749,2.5749,2.5749,2.5719,2.5674,2.5674,2.5674,2.5674,2.5674,2.5704,2.5749,2.5749,2.5749,2.5839,2.6452,2.6258,2.5854,2.6452,2.6243,2.5749,2.5749,2.5689,2.5615,2.5615,2.5986,2.645,2.6541,2.74,2.8421,2.9204,2.9777,3.0378,3.1055,3.119,3.119,3.119,3.119,3.119,3.119,3.119,3.119,3.119,3.0615,3.0192,3.0192,2.9533,2.9059,2.9059,2.9008,2.9011,2.9011,2.7672,2.6826,2.6776,2.6776,2.6742,2.6691,2.6691,2.6691,2.6691,2.6691,2.6691,2.6691,2.6691,2.647,2.6049,2.6049,2.5762,2.6691,0.0,2.757,2.7633,2.7624,2.7512,0.0,2.6491,2.5859,2.5633,0.0,2.5734,2.6901,2.7111,2.7874,3.0223,3.1285,3.2287,3.3604,3.3619,3.344,3.3275,3.1495,3.0103,2.9624,2.8846,2.8143,2.7655,2.7625,2.7625,2.7625,2.7625,2.7625,2.7625,2.7475,2.7021,2.6363,2.6856,2.6856,2.6363,2.6871,2.7111,2.7111,2.7111,2.7111,2.7111,2.7111,2.6826,2.6363,2.6363,2.6363,2.6363,2.6363,2.6662,2.7111,2.7111,2.7111,2.7126,2.729,2.7245,2.7141,2.729,2.7245,2.7111,2.7111,2.6408,2.5615,2.5615,2.5693,2.6016,2.6995,2.7819,2.8637,2.9781,3.049,3.0987,3.1157,3.119,3.119,3.119,3.119,3.119,3.119,3.119,3.119,3.119,3.1055,3.0937,3.0937,3.0294,2.9837,2.9837,2.933,2.9011,2.9011,2.8689,2.8197,2.7588,2.7554,2.73,2.6708,2.6691,2.6691,2.6691,2.6691,2.6691,2.6691,2.6691,2.6657,2.6556,2.6556,2.647,2.7114,2.7774,2.8433,2.8789,2.8715,2.8633,2.8764,0.0,0.0,0.0,0.0,2.6467,2.7799,2.8293,2.916,3.1195,3.2332,3.332,3.4322,3.3903,3.338,3.308,3.1285,2.9953,2.9609,2.8697,2.7979,2.7655,2.7625,2.7625,2.7625,2.7625,2.7625,2.7625,2.7625,2.7445,2.7036,2.7445,2.7445,2.7036,2.7445,2.7625,2.7625,2.7625,2.7625,2.7625,2.7625,2.7365,2.7036,2.7036,2.7036,2.7036,2.7036,2.726,2.7625,2.7625,2.7625,2.7625,2.7625,2.7625,2.7625,2.7625,2.7625,2.7625,2.7625,2.7066,2.6512,2.6512,2.6738,2.7084,2.7798,2.8592,2.9447,3.0152,3.074,3.119,3.119,3.119,3.119,3.119,3.119,3.119,3.119,3.119,3.119,3.119,3.119,3.119,3.119,3.0852,3.0598,3.0598,3.0243,3.0006,3.0006,3.0006,2.9516,2.8416,2.801,2.7603,2.7232,2.6877,2.6691,2.6691,2.6691,2.6691,2.6691,2.6691,2.659,2.6367,2.6367,2.6245,2.7757,2.8653,2.9448,2.9973,2.9742,2.9548,3.0213,0.0,0.0,0.0,0.0,0.0,2.8786,2.9505,3.0313,3.1629,3.2856,3.3844,3.4397,3.3903,3.3245,3.2587,3.0956,2.9804,2.9609,2.8547,2.785,2.764,2.7625,2.7625,2.7625,2.7625,2.7625,2.7625,2.7625,2.7625,2.7625,2.7625,2.7619,2.7724,2.7724,2.7724,2.7724,2.7724,2.7724,2.7775,2.767,2.7685,2.7724,2.767,2.7625,2.7625,2.7625,2.7625,2.7625,2.7625,2.7625,2.7625,2.7625,2.7625,2.7625,2.7625,2.7625,2.7625,2.7625,2.7625,2.7625,2.7625,2.7944,2.8415,2.8606,2.9406,3.0208,3.0293,3.074,3.119,3.119,3.119,3.119,3.119,3.119,3.119,3.119,3.119,3.119,3.119,3.119,3.119,3.119,3.119,3.119,3.119,3.119,3.119,3.119,3.119,3.0666,2.9397,2.8602,2.8026,2.7806,2.7199,2.681,2.6691,2.6928,2.6928,2.6691,2.681,2.6622,2.612,2.612,2.5872,2.8416,2.9803,3.0734,3.0243,3.0186,3.0196,2.9691,0.0,0.0,0.0,0.0,0.0,3.0731,3.1165,3.1659,3.2976,3.3829,3.4367,3.4472,3.3903,3.3245,3.2587,3.1764,3.0791,2.9684,2.9385,2.8801,2.7715,2.7625,2.7625,2.7625,2.7625,2.7625,2.7625,2.7625,2.7625,2.7625,2.7625,2.7859,2.8442,2.8442,2.8442,2.8442,2.8442,2.8442,2.8412,2.7829,2.7904,2.8397,2.7814,2.7625,2.7625,2.7625,2.7625,2.7625,2.7625,2.7625,2.7625,2.7625,2.7625,2.7625,2.7625,2.7625,2.7625,2.7625,2.7625,2.7625,2.7625,2.7675,2.7993,2.8996,2.9406,2.9673,3.0166,3.074,3.119,3.119,3.119,3.119,3.119,3.119,3.119,3.119,3.119,3.119,3.119,3.119,3.119,3.119,3.119,3.119,3.119,3.119,3.119,3.119,3.119,3.1089,3.0869,3.0159,2.9178,2.784,2.7671,2.7351,2.6708,2.796,2.7994,2.6691,2.7334,2.7282,2.659,2.659,2.6539,2.8569,2.9547,3.0216,3.0642,3.1197,3.1438,3.0763,0.0,0.0,0.0,0.0,0.0,3.124,3.1824,3.2617,3.4307,3.4517,3.4352,3.3993,3.338,3.2721,3.2063,3.139,3.0612,2.9669,2.9265,2.8637,2.7685,2.7625,2.7625,2.7625,2.7625,2.7625,2.7625,2.7625,2.7754,2.8128,2.8128,2.8293,2.8607,2.8966,2.9131,2.9131,2.9131,2.9131,2.9116,2.8786,2.8846,2.9101,2.8786,2.8652,2.8622,2.8263,2.8128,2.8083,2.7709,2.7625,2.7619,2.7993,2.7874,2.7685,2.8008,2.8128,2.8128,2.8128,2.8368,2.8756,2.9088,2.895,2.8808,2.9359,3.03,3.1136,3.1419,3.1667,3.1782,3.1782,3.1461,3.119,3.119,3.119,3.119,3.119,3.119,3.119,3.119,3.119,3.119,3.119,3.119,3.119,3.119,3.119,3.119,3.119,3.119,3.1021,3.0632,3.0294,2.96,2.8484,2.845,2.8281,2.7943,2.8619,2.8636,2.7926,2.8281,2.8264,2.7926,2.7926,2.7926,2.8789,2.9221,2.9543,3.0997,0.0,3.1845,3.1628,0.0,0.0,0.0,0.0,3.0582,3.1584,3.2302,3.3305,3.4996,3.4816,3.4247,3.3589,3.2931,3.2273,3.1556,3.0926,3.0253,2.9639,2.8981,2.8308,2.7619,2.7625,2.7625,2.7625,2.7625,2.7685,2.7814,2.7814,2.8143,2.8831,2.8966,2.9041,2.9056,2.9564,2.9804,2.9804,2.9804,2.9804,2.9789,2.9639,2.9669,2.9789,2.9639,2.9579,2.9535,2.9026,2.8831,2.8771,2.8233,2.809,2.8113,2.8652,2.8487,2.818,2.8845,2.8974,2.8869,2.9204,2.9553,2.9963,3.0592,3.0647,3.0448,3.0112,3.1134,3.2298,3.2451,3.2536,3.2544,3.2544,3.2104,3.1715,3.1715,3.1715,3.1715,3.1715,3.1715,3.1715,3.1715,3.1562,3.1444,3.1444,3.1309,3.119,3.119,3.119,3.119,3.119,3.119,3.0954,3.0395,3.0209,2.9854,2.9262,2.9245,2.9161,2.9011,2.933,2.9367,2.9011,2.9161,2.9161,2.9011,2.9011,2.9011,2.9414,2.9621,2.9575,3.1128,0.0,0.0,3.117,3.0472,0.0,3.1928,0.0,0.0,3.2422,3.2976,3.3664,3.4427,3.4502,3.4247,3.3589,3.2931,3.2273,3.1556,3.0926,3.0253,2.9639,2.8981,2.8308,2.7619,2.7625,2.7625,2.7625,2.7625,2.7874,2.8502,2.8532,2.8846,2.9505,3.0073,3.0357,3.0372,3.0417,3.0432,3.0432,3.0432,3.0432,3.0402,2.9834,2.9909,3.0387,2.9819,2.9579,2.9579,2.9535,2.9505,2.9505,2.9445,2.9445,2.9445,2.949,2.9475,2.9591,3.0243,3.0029,2.9758,3.1,3.0966,3.0663,3.1341,3.2398,3.299,3.171,3.1486,3.1725,3.2344,3.2937,3.3322,3.3322,3.3288,3.3254,3.3254,3.3254,3.3254,3.3254,3.3254,3.3254,3.3254,3.2645,3.2205,3.2205,3.1613,3.119,3.119,3.119,3.119,3.119,3.119,3.1173,3.1123,3.048,3.0091,3.0023,3.0023,2.9702,2.8991,3.0328,3.0362,2.9011,2.9685,2.9668,2.9011,2.9011,2.9011,2.8448,2.8968,2.9419,3.0604,0.0,0.0,0.0,0.0,3.1734,3.2886,3.3125,0.0,3.3125,3.3664,3.4053,3.3888,3.3858,3.3634,3.2976,3.2317,3.175,3.1497,3.13,3.0731,2.9684,2.9355,2.8757,2.77,2.7625,2.7625,2.7625,2.7625,2.7889,2.8577,2.8607,2.9101,3.0148,3.0387,3.0717,3.115,3.115,3.115,3.115,3.115,3.115,3.1135,3.0896,3.0926,3.112,3.0896,3.0791,3.0746,3.0313,2.9924,2.9579,2.9579,2.9579,2.9639,3.0028,2.9909,2.9693,3.031,3.0353,3.0353,3.1317,3.1717,3.2008,3.2647,3.324,3.347,3.2947,3.3439,3.4126,3.4387,3.4229,3.4083,3.4083,3.3728,3.3406,3.3406,3.3406,3.3406,3.3406,3.3406,3.3406,3.3406,3.3169,3.2814,3.2341,3.2036,3.1698,3.1241,3.119,3.119,3.119,3.119,3.119,3.119,3.0937,3.0784,3.0784,3.0784,3.0649,3.0362,3.0903,3.092,3.0362,3.0649,3.0632,3.0362,2.9961,3.0001,2.8069,2.8651,2.9171,0.0,0.0,0.0,0.0,3.2332,3.2766,3.3619,3.3649,3.3559,3.3769,3.3829,3.3784,3.3529,3.332,3.3021,3.2572,3.1943,3.1482,3.1482,3.1345,3.0776,2.9684,2.94,2.8801,2.77,2.7625,2.7625,2.7625,2.7784,2.8203,2.8891,2.9101,2.9729,3.0821,3.0836,3.1061,3.1482,3.1482,3.1482,3.1482,3.1482,3.1482,3.1482,3.1482,3.1482,3.1482,3.1482,3.1482,3.1422,3.1016,3.0567,3.0193,3.0193,3.0193,3.0253,3.0687,3.0552,3.0323,3.0951,3.099,3.099,3.1927,3.2572,3.3039,3.3735,3.4087,3.4235,3.4233,3.4777,3.5362,3.556,3.5216,3.4844,3.4844,3.4455,3.41,3.41,3.41,3.41,3.41,3.41,3.41,3.41,3.3897,3.3558,3.3051,3.278,3.2357,3.1613,3.1326,3.1275,3.1512,3.1546,3.1647,3.1884,3.1664,3.1427,3.1207,3.119,3.119,3.119,3.119,3.119,3.119,3.119,3.119,3.119,3.0797,3.0699,2.8584,2.8698,2.8894,0.0,0.0,0.0,3.3021,3.2976,3.2901,3.4203,3.3948,3.3679,3.4337,3.3395,3.2721,3.3365,3.2931,3.2512,3.2497,3.1943,3.1482,3.1482,3.0926,3.0268,2.9639,2.8996,2.8323,2.7619,2.7625,2.7625,2.7625,2.8233,2.8906,2.9564,3.0178,3.0836,3.1467,3.1482,3.1482,3.1482,3.1482,3.1482,3.1482,3.1482,3.1482,3.1482,3.1482,3.1482,3.1482,3.1482,3.1482,3.1482,3.1482,3.1482,3.1482,3.1482,3.1482,3.1482,3.1482,3.1482,3.164,3.2327,3.212,3.1739,3.3182,3.3582,3.3735,3.4431,3.5098,3.5622,3.5622,3.5098,3.4783,3.5453,3.5622,3.5622,3.5622,3.5622,3.5622,3.5622,3.5622,3.5622,3.5622,3.5622,3.5622,3.5622,3.4979,3.4506,3.4489,3.3863,3.3119,3.2374,3.1647,3.1512,3.2263,3.229,3.2611,3.3355,3.2696,3.1968,3.1241,3.119,3.119,3.119,3.119,3.119,3.119,3.119,3.119,3.119,3.119,3.0878,2.7275,2.8077,2.9223,2.9925,0.0,0.0,0.0,3.2677,0.0,0.0,3.326,3.2871,3.3066,3.2781,3.2422,3.2153,3.2332,3.2362,3.1884,3.1601,3.1482,3.1482,3.1287,3.0791,2.9684,2.94,2.8816,2.7715,2.8023,2.8293,2.8293,2.8921,2.9579,3.0208,3.0417,3.0836,3.1467,3.1482,3.1482,3.1482,3.1482,3.1482,3.1482,3.1482,3.1482,3.1482,3.1482,3.1482,3.1482,3.1482,3.1482,3.1482,3.1482,3.1482,3.1482,3.1482,3.1482,3.1482,3.1482,3.1482,3.1539,3.1739,3.1697,3.1682,3.2625,3.3251,3.3735,3.4431,3.5098,3.5622,3.5622,3.547,3.5362,3.556,3.5622,3.5622,3.5622,3.5622,3.5622,3.5622,3.5622,3.5622,3.5622,3.5622,3.5622,3.5622,3.5419,3.5098,3.4556,3.3863,3.3322,3.3102,3.2882,3.2848,3.3051,3.3068,3.3169,3.3389,3.3186,3.273,3.1985,3.1461,3.119,3.119,3.119,3.119,3.119,3.119,3.119,3.119,3.074,3.0699,2.7611,2.8633,2.9947,3.0618,3.1435,3.2093,3.1958,0.0,3.3185,3.344,3.2976,3.2602,3.2856,3.2482,3.2078,3.1943,3.2033,3.1988,3.1541,3.1482,3.1482,3.1482,3.1482,3.1016,2.9699,2.9579,2.9026,2.773,2.848,2.8873,2.8592,2.9999,3.083,3.0919,3.1435,3.1921,3.2351,3.2351,3.2351,3.2351,3.2351,3.2351,3.2312,3.1739,3.1482,3.1482,3.1482,3.1482,3.1482,3.1482,3.1482,3.1482,3.1482,3.1482,3.1482,3.1482,3.1482,3.1482,3.1482,3.1482,3.1482,3.1482,3.1482,3.1582,3.2007,3.2625,3.3339,3.4037,3.4688,3.5253,3.5515,3.5622,3.5622,3.5622,3.5622,3.5622,3.5622,3.5622,3.5622,3.5622,3.5622,3.5622,3.5622,3.5622,3.5622,3.5622,3.5622,3.5453,3.4996,3.4286,3.3846,3.3846,3.3575,3.3525,3.3812,3.3846,3.3964,3.4269,3.3998,3.3643,3.3169,3.2459,3.207,3.207,3.1782,3.163,3.163,3.1326,3.119,3.119,3.0838,3.0699,2.8824,2.9713,3.0657,3.1988,3.1928,3.1704,3.2362,3.2467,3.2602,3.3185,3.2841,3.2617,3.32,3.2332,3.1676,3.2332,3.1928,3.1482,3.1482,3.1482,3.1482,3.1482,3.1482,3.1046,2.9789,2.9669,2.9131,2.791,2.897,2.9419,2.8824,3.1134,3.2199,3.1619,3.2762,3.3427,3.3427,3.3427,3.3427,3.3427,3.3495,3.3495,3.3495,3.2201,3.1582,3.1482,3.1482,3.1482,3.1482,3.1482,3.1482,3.1482,3.1482,3.1482,3.1482,3.1482,3.1524,3.1582,3.1582,3.164,3.1682,3.1682,3.1682,3.1682,3.164,3.2104,3.2788,3.3339,3.4037,3.4736,3.5362,3.556,3.5622,3.5622,3.5622,3.5622,3.5622,3.5622,3.5622,3.5622,3.5622,3.5622,3.5622,3.5622,3.5622,3.5622,3.5622,3.5622,3.5622,3.5013,3.459,3.459,3.3998,3.388,3.4539,3.459,3.4895,3.5571,3.4979,3.459,3.459,3.3829,3.3406,3.3406,3.273,3.2374,3.2374,3.1647,3.1326,3.1393,3.1258,3.0952,2.7879,2.8486,2.9325,3.0612,3.124,3.1704,3.2362,3.2108,3.1779,3.1928,3.1839,3.1735,3.1928,3.1661,3.1526,3.1719,3.1571,3.1482,3.1482,3.1482,3.1482,3.1482,3.1482,3.121,3.0387,3.0313,2.9983,2.9205,2.9877,3.0238,3.0088,3.1132,3.1682,3.1528,3.1819,3.1936,3.1936,3.1936,3.1936,3.1951,3.2532,3.2788,3.2788,3.2477,3.2064,3.1482,3.1482,3.1482,3.1482,3.1482,3.1482,3.1482,3.1482,3.1482,3.1482,3.1482,3.1853,3.2382,3.2382,3.2734,3.313,3.313,3.313,3.3024,3.2532,3.2826,3.3287,3.2949,3.3684,3.4624,3.4783,3.5207,3.5622,3.5622,3.5622,3.5622,3.5622,3.5622,3.5622,3.5622,3.5622,3.5622,3.5622,3.5622,3.5622,3.5622,3.5622,3.5622,3.5622,3.547,3.5368,3.5368,3.5233,3.5216,3.5368,3.5368,3.5453,3.5605,3.547,3.5368,3.5368,3.4117,3.3406,3.3406,3.3237,3.3169,3.3169,3.2408,3.2357,3.2899,3.1732,3.1455,2.7885,2.8771,2.9759,3.0746,3.127,3.1556,3.1958,3.1779,3.1482,3.1482,3.1482,3.1482,3.1482,3.1482,3.1482,3.1482,3.1482,3.1482,3.1482,3.1482,3.1482,3.1482,3.1482,3.127,3.0567,3.0507,3.0253,2.9624,3.0477,3.0879,3.0507,3.1763,3.2351,3.2064,3.2367,3.2516,3.2516,3.2516,3.2516,3.2516,3.2879,3.2895,3.2586,3.2933,3.2879,3.2516,3.2516,3.2312,3.2007,3.2007,3.1796,3.1482,3.1482,3.1482,3.1482,3.1482,3.1739,3.212,3.2492,3.2841,3.3182,3.3495,3.3582,3.3531,3.3182,3.3339,3.3582,3.3598,3.4087,3.4688,3.5005,3.5362,3.5622,3.5622,3.5622,3.5622,3.5622,3.5622,3.5622,3.5622,3.5622,3.5622,3.5622,3.5622,3.5622,3.5622,3.5622,3.5622,3.5622,3.5622,3.5622,3.5622,3.5622,3.5622,3.5622,3.5622,3.5622,3.5622,3.5622,3.5622,3.5622,3.4878,3.4455,3.4455,3.4117,3.3931,3.3931,3.3186,3.3017,3.3389,3.2611,3.2459,2.7919,2.928,3.0537,3.1345,3.1482,3.1482,3.1482,3.1482,3.1482,3.1482,3.1482,3.1482,3.1482,3.1482,3.1482,3.1482,3.1482,3.1482,3.1482,3.1482,3.1482,3.1482,3.1482,3.13,3.0731,3.0687,3.0477,2.9968,3.099,3.1335,3.0743,3.2284,3.2971,3.2437,3.2933,3.3235,3.3235,3.3235,3.3235,3.3235,3.3391,3.3182,3.2788,3.3339,3.3531,3.3443,3.3547,3.3287,3.2788,3.2788,3.2422,3.1838,3.1838,3.1838,3.1838,3.1838,3.1936,3.2145,3.2734,3.3002,3.3198,3.3735,3.3953,3.3937,3.3786,3.3786,3.3887,3.4284,3.4528,3.4736,3.5299,3.5616,3.5825,3.5825,3.5926,3.5943,3.5673,3.5622,3.5622,3.5622,3.5622,3.5622,3.5622,3.5622,3.5622,3.5622,3.5622,3.5622,3.5622,3.5622,3.5622,3.5622,3.5622,3.5622,3.5622,3.5622,3.5622,3.5622,3.5622,3.5622,3.5622,3.5622,3.5622,3.5622,3.5013,3.4692,3.4692,3.3947,3.366,3.3778,3.3525,3.3474,2.6662,2.8248,2.9998,3.1225,3.1482,3.1482,3.1482,3.1482,3.1482,3.1482,3.1482,3.1482,3.1482,3.1482,3.1482,3.1482,3.1482,3.1482,3.1482,3.1482,3.1482,3.1482,3.1482,3.1437,3.1347,3.1405,3.1302,3.1285,3.1402,3.1447,3.139,3.1637,3.1739,3.164,3.1739,3.1796,3.1796,3.1796,3.1796,3.1796,3.2422,3.2986,3.3495,3.3531,3.3287,3.2803,3.3339,3.3547,3.3495,3.3495,3.3391,3.3323,3.3323,3.3323,3.3323,3.3323,3.3684,3.4219,3.4284,3.4688,3.5224,3.5316,3.5316,3.5207,3.464,3.4479,3.4382,3.3887,3.4137,3.4624,3.4688,3.5693,3.662,3.662,3.7127,3.7246,3.591,3.5622,3.5622,3.5622,3.5622,3.5622,3.5622,3.5622,3.5622,3.5622,3.5622,3.5622,3.5622,3.5622,3.5622,3.5622,3.5622,3.5622,3.5622,3.5622,3.5622,3.5622,3.5622,3.5622,3.5622,3.5622,3.5622,3.5622,3.552,3.547,3.547,3.4709,3.4675,3.5301,3.4015,3.3744,2.723,2.8891,3.0417,3.1749,3.1809,3.1571,3.2003,3.1735,3.1482,3.1482,3.1482,3.1482,3.1482,3.1482,3.1482,3.1482,3.1482,3.1482,3.1482,3.1482,3.1482,3.1482,3.1482,3.1482,3.1482,3.1482,3.1482,3.1482,3.1482,3.1482,3.1482,3.1482,3.1482,3.1482,3.1482,3.1482,3.1482,3.1482,3.1482,3.1524,3.1853,3.216,3.2461,3.2826,3.3287,3.3735,3.4037,3.4186,3.4186,3.4186,3.3937,3.3582,3.3582,3.3582,3.3582,3.3582,3.3786,3.4087,3.4479,3.4783,3.5098,3.547,3.5622,3.5515,3.5253,3.5161,3.5098,3.48,3.5257,3.5844,3.5844,3.6619,3.7415,3.7415,3.7669,3.7719,3.7043,3.6569,3.6265,3.6265,3.662,3.6907,3.6907,3.6552,3.6417,3.684,3.6535,3.6417,3.6857,3.6907,3.6907,3.6907,3.6907,3.6907,3.6907,3.6518,3.6265,3.6265,3.5859,3.5622,3.5622,3.5622,3.5622,3.5622,3.5622,3.5622,3.5622,3.5284,3.5301,3.5605,3.4945,3.4827,2.7619,2.9041,3.0163,3.1839,3.2018,3.1958,3.2617,3.2377,3.2033,3.2033,3.1898,3.1779,3.1779,3.1586,3.1482,3.1482,3.1482,3.1482,3.1482,3.1482,3.1482,3.1482,3.1482,3.1582,3.1739,3.1796,3.1838,3.1992,3.1894,3.1838,3.2048,3.1682,3.1582,3.1796,3.1796,3.1697,3.1482,3.1697,3.1853,3.2048,3.1838,3.1796,3.1796,3.2176,3.3077,3.4333,3.4528,3.4688,3.483,3.483,3.4544,3.4103,3.4103,3.4103,3.4103,3.4103,3.4103,3.4202,3.4688,3.4963,3.5224,3.5756,3.6045,3.6197,3.6197,3.6197,3.6197,3.6197,3.662,3.706,3.706,3.7618,3.8176,3.8176,3.8328,3.8362,3.799,3.7466,3.706,3.706,3.7516,3.7905,3.7905,3.7432,3.7263,3.7821,3.7432,3.7263,3.7838,3.7905,3.7905,3.7905,3.7905,3.7905,3.7905,3.7398,3.706,3.706,3.6332,3.591,3.591,3.5723,3.5622,3.5622,3.5622,3.5622,3.5622,3.5622,3.5622,3.5622,3.5622,3.5622,2.6901,2.773,2.8338,3.0941,3.2018,3.2632,3.3305,3.3425,3.3395,3.3395,3.2901,3.2467,3.2467,3.1958,3.1482,3.1482,3.1482,3.1482,3.1482,3.1482,3.1482,3.1482,3.1482,3.1796,3.2477,3.2532,3.2788,3.3427,3.2879,3.2841,3.3443,3.2256,3.1796,3.2547,3.2532,3.2231,3.1539,3.216,3.2841,3.3479,3.2841,3.2532,3.2547,3.1853,3.2296,3.3684,3.4333,3.4941,3.556,3.556,3.5515,3.5515,3.5515,3.5515,3.5515,3.5515,3.5515,3.5515,3.5532,3.605,3.6705,3.6721,3.7212,3.7787,3.7787,3.7787,3.7787,3.7787,3.7821,3.7838,3.7838,3.8396,3.8937,3.8937,3.9462,3.958,3.821,3.7872,3.7838,3.7838,3.7872,3.7905,3.7905,3.7872,3.7872,3.7905,3.7872,3.7872,3.7905,3.7905,3.7905,3.7905,3.7905,3.7905,3.7905,3.7872,3.7838,3.7838,3.7144,3.6721,3.6721,3.6011,3.5622,3.5622,3.5622,3.5622,3.5622,3.5622,3.5622,3.5622,3.5622,3.5622,2.6063,2.726,2.8652,3.0432,3.139,3.2168,3.3245,3.3499,3.3499,3.3499,3.2976,3.2512,3.2512,3.1973,3.1482,3.1482,3.1482,3.1482,3.1482,3.1482,3.1697,3.216,3.2231,3.2477,3.3182,3.3235,3.3339,3.3582,3.3391,3.3339,3.3582,3.313,3.2971,3.3235,3.3235,3.313,3.2864,3.313,3.3339,3.3582,3.3339,3.3235,3.3235,3.2532,3.2734,3.3582,3.3391,3.3937,3.4941,3.4496,3.4544,3.4941,3.4941,3.5207,3.5622,3.5622,3.5622,3.5622,3.5622,3.6129,3.6772,3.6772,3.7297,3.7905,3.7905,3.7905,3.7905,3.7905,3.8244,3.8616,3.8616,3.914,3.9698,3.9698,3.9884,3.9935,3.9411,3.9292,3.9157,3.87,3.8988,3.9292,3.9292,3.892,3.8768,3.9225,3.8903,3.8768,3.9242,3.9292,3.9292,3.9292,3.9292,3.9292,3.9292,3.887,3.8616,3.8616,3.7905,3.728,3.6806,3.6502,3.6129,3.5639,3.5622,3.5622,3.5622,3.5622,3.5622,3.5622,3.5622,3.5622,2.568,2.6974,2.8657,3.0402,3.1304,3.217,3.3804,3.3985,3.3834,3.413,3.3634,3.3095,3.2886,3.2302,3.1735,3.1511,3.1482,3.1482,3.1482,3.1482,3.1796,3.2492,3.2586,3.2933,3.3836,3.3937,3.4037,3.4252,3.4037,3.4037,3.4252,3.3836,3.3684,3.3937,3.3735,3.3802,3.4252,3.4037,3.4037,3.4252,3.4037,3.3937,3.3937,3.3235,3.3287,3.3887,3.3251,3.3443,3.4235,3.3786,3.3987,3.4576,3.4576,3.5005,3.5622,3.5622,3.5622,3.5656,3.591,3.6518,3.7195,3.7449,3.8024,3.8633,3.8633,3.8633,3.8633,3.8633,3.8988,3.936,3.936,3.9715,4.007,4.007,4.007,4.007,4.007,4.007,3.9935,3.9445,3.9749,4.007,4.007,3.9681,3.9529,4.0003,3.9665,3.9529,4.002,4.007,4.007,4.007,4.007,4.007,4.007,3.9631,3.936,3.936,3.8667,3.7939,3.7195,3.6907,3.6417,3.5639,3.5622,3.5622,3.5622,3.5622,3.5622,3.5622,3.5622,3.5622,0.0,0.0,0.0,3.0688,3.1819,3.2819,3.4969,3.4917,3.4618,3.5368,3.4985,3.431,3.3696,3.3036,3.2391,3.1747,3.1569,3.1554,3.1524,3.1539,3.1811,3.2586,3.2641,3.3145,3.4479,3.4624,3.4894,3.556,3.4988,3.4894,3.5577,3.435,3.3937,3.4624,3.3987,3.4301,3.5577,3.4941,3.4941,3.5577,3.4941,3.4624,3.4624,3.3937,3.3987,3.4576,3.3887,3.3582,3.3582,3.3582,3.3987,3.4576,3.4576,3.5005,3.5622,3.5622,3.5622,3.574,3.6502,3.728,3.8024,3.8751,3.9478,4.007,4.007,4.007,4.007,4.007,4.007,4.007,4.007,4.007,4.007,4.007,4.007,4.007,4.007,4.007,4.007,4.007,4.007,4.007,4.007,4.007,4.007,4.007,4.007,4.007,4.007,4.007,4.007,4.007,4.007,4.007,4.007,4.007,4.007,4.007,3.9394,3.8667,3.7939,3.7178,3.6417,3.5639,3.5622,3.5622,3.5622,3.5622,3.5622,3.5622,3.5622,3.5622,2.6294,0.0,0.0,0.0,0.0,0.0,3.371,3.4218,3.4595,3.5338,3.5419,3.5305,3.5029,3.4929,3.4833,3.4644,3.3242,3.2238,3.2293,3.2261,3.2695,3.3885,3.3633,3.3836,3.5207,3.5316,3.5407,3.5577,3.5424,3.5407,3.5577,3.527,3.5115,3.5316,3.5161,3.5207,3.5577,3.5424,3.5424,3.5622,3.5407,3.5316,3.5316,3.464,3.4431,3.4576,3.3887,3.3582,3.3582,3.3582,3.3987,3.4576,3.4576,3.5005,3.5622,3.5622,3.5622,3.574,3.6502,3.728,3.8024,3.8751,3.9478,4.007,4.007,4.007,4.007,4.007,4.007,4.007,4.007,4.007,4.007,4.007,4.007,4.007,4.007,4.007,4.007,4.007,4.007,4.007,4.007,4.007,4.007,4.007,4.007,4.007,4.007,4.007,4.007,4.007,4.007,4.007,4.007,4.007,4.007,4.007,3.9394,3.8667,3.7939,3.7178,3.6417,3.5639,3.5622,3.5622,3.5622,3.5622,3.5622,3.5622,3.5622,3.5622,0.0,0.0,0.0,3.0123,0.0,0.0,3.3615,3.3933,3.429,3.531,3.5609,3.5657,3.566,3.5689,3.5803,3.5786,3.4917,3.4182,3.3999,3.3917,3.4258,3.5382,3.5166,3.5218,3.6021,3.6096,3.596,3.5639,3.5622,3.5622,3.5622,3.5622,3.5622,3.5622,3.5622,3.5622,3.5622,3.5622,3.5622,3.5622,3.5622,3.5622,3.5577,3.5207,3.5005,3.5005,3.4592,3.4447,3.4447,3.4447,3.4496,3.4576,3.4576,3.5005,3.5622,3.5622,3.5622,3.5774,3.6874,3.7533,3.8075,3.9106,3.9732,4.007,4.007,4.007,4.007,4.007,4.007,4.007,4.007,4.007,4.007,4.007,4.007,4.007,4.007,4.007,4.007,4.007,4.007,4.007,4.007,4.007,4.007,4.007,4.007,4.007,4.007,4.007,4.007,4.007,4.007,4.007,4.007,4.007,4.007,4.007,3.9681,3.8988,3.7939,3.777,3.7043,3.5639,3.5943,3.5943,3.5622,3.5622,3.5622,3.5622,3.5622,3.5622,2.8982,2.9872,0.0,3.1112,3.1799,0.0,3.3975,3.3818,3.3761,3.508,3.5428,3.5514,3.5658,3.5744,3.5884,3.6002,3.6599,3.6754,3.6045,3.5905,3.6136,3.6852,3.6852,3.6821,3.6912,3.6823,3.6485,3.5808,3.5673,3.5622,3.5622,3.5622,3.5622,3.5622,3.5622,3.5622,3.5622,3.5622,3.5622,3.5622,3.5622,3.5622,3.5622,3.5622,3.5622,3.5622,3.5622,3.5622,3.5622,3.5622,3.5253,3.4736,3.4736,3.5098,3.5622,3.5622,3.5673,3.596,3.7415,3.7956,3.8261,3.9631,4.007,4.007,4.007,4.007,4.007,4.007,4.007,4.007,4.007,4.007,4.007,4.007,4.007,4.007,4.007,4.007,4.007,4.007,4.007,4.007,4.007,4.007,4.007,4.007,4.007,4.007,4.007,4.007,4.007,4.007,4.007,4.007,4.007,4.007,4.007,4.007,4.0003,3.9377,3.8091,3.8565,3.7889,3.5791,3.6349,3.6315,3.5622,3.5622,3.5622,3.5622,3.5622,3.5622,2.985,3.0875,3.182,3.1343,3.2205,0.0,3.2782,3.3102,3.3489,3.3776,3.4322,3.4922,3.5496,3.6141,3.6764,3.7416,3.812,3.8103,3.6798,3.6594,3.6864,3.7584,3.7137,3.702,3.7638,3.7144,3.6721,3.6569,3.5977,3.5622,3.5622,3.5622,3.5622,3.5622,3.5622,3.5622,3.5622,3.5622,3.5622,3.5622,3.5622,3.5622,3.5622,3.5622,3.5622,3.5622,3.5622,3.5622,3.5622,3.5622,3.5515,3.5407,3.5407,3.547,3.5622,3.5622,3.6011,3.6688,3.7601,3.8294,3.892,3.9783,4.007,4.007,4.007,4.007,4.007,4.007,4.007,4.007,4.007,4.007,4.007,4.007,4.007,4.007,4.007,4.007,4.007,4.007,4.007,4.007,4.007,4.007,4.007,4.007,4.007,4.007,4.007,4.007,4.007,4.007,4.007,4.007,4.007,4.007,4.007,4.007,3.9529,3.9089,3.8802,3.8345,3.7635,3.6586,3.6079,3.5774,3.5622,3.5622,3.5622,3.5622,3.5622,3.5622,3.0649,3.1732,3.2662,3.1918,3.2577,0.0,0.0,3.3406,3.3625,3.4347,3.4522,3.4739,3.5465,3.5631,3.6011,3.7161,3.7973,3.8198,3.7418,3.7982,3.8581,3.8973,3.8673,3.8422,3.8432,3.8108,3.7736,3.7364,3.6975,3.6603,3.6214,3.6197,3.6011,3.5639,3.5622,3.5622,3.5622,3.5622,3.5622,3.5622,3.5622,3.5622,3.5622,3.5622,3.5622,3.5622,3.5622,3.5622,3.5622,3.5622,3.5622,3.5622,3.5622,3.5622,3.5622,3.5622,3.5876,3.6315,3.7077,3.7838,3.8565,3.9292,3.9783,4.007,4.007,4.007,4.007,4.007,4.007,4.007,4.007,4.007,4.007,4.007,4.007,4.007,4.007,4.007,4.007,4.007,4.007,4.007,4.007,4.007,4.007,4.007,4.007,4.007,4.007,4.007,4.007,4.007,4.007,4.007,4.007,4.007,4.007,4.007,3.9732,3.9377,3.9005,3.8988,3.8633,3.7905,3.6772,3.6197,3.6197,3.5808,3.5622,3.5622,3.5622,3.5622,3.119,3.2273,3.3186,3.229,3.2848,3.3694,0.0,0.0,0.0,3.4759,3.4489,3.4252,3.4861,3.4489,3.4523,3.591,3.6874,3.7466,3.7466,3.8734,3.9715,3.9851,3.9986,3.9851,3.9259,3.8954,3.8531,3.7939,3.777,3.7483,3.7026,3.6857,3.6485,3.5859,3.569,3.5622,3.5622,3.5622,3.5622,3.5622,3.5622,3.5622,3.5622,3.5622,3.5622,3.5622,3.5622,3.5622,3.5622,3.5622,3.5622,3.5622,3.5622,3.5622,3.5622,3.5622,3.5723,3.5926,3.6552,3.7364,3.821,3.8802,3.9478,4.007,4.007,4.007,4.007,4.007,4.007,4.007,4.007,4.007,4.007,4.007,4.007,4.007,4.007,4.007,4.007,4.007,4.007,4.007,4.007,4.007,4.007,4.007,4.007,4.007,4.007,4.007,4.007,4.007,4.007,4.007,4.007,4.007,4.007,4.007,4.007,3.9817,3.9225,3.9631,3.9597,3.9005,3.7669,3.6924,3.6772,3.6146,3.5774,3.5622,3.5622,3.5622,3.119,3.2273,3.3068,3.1664,3.2848,3.4049,3.2814,0.0,3.3271,3.2763,0.0,3.2601,3.2645,0.0,0.0,3.3643,3.4962,3.5876,3.5876,3.7195,3.8396,3.9039,3.9681,4.0054,3.9969,3.8785,3.799,3.7922,3.728,3.7161,3.7736,3.7144,3.6738,3.6654,3.5977,3.5622,3.5622,3.5622,3.5622,3.5622,3.5622,3.5622,3.5622,3.5622,3.5622,3.5622,3.5622,3.5622,3.5622,3.5622,3.5622,3.5622,3.5622,3.5622,3.5622,3.5622,3.6062,3.6671,3.6755,3.7702,3.8886,3.8971,3.9478,4.007,4.007,4.007,4.007,4.007,4.007,4.007,4.007,4.007,4.007,4.007,4.007,4.007,4.007,4.007,4.007,4.007,4.007,4.007,4.007,4.007,4.007,4.007,4.007,4.007,4.007,4.007,4.007,4.007,4.007,4.007,4.007,4.007,4.007,4.007,4.007,4.0037,3.9952,3.9411,3.9089,3.8988,3.8193,3.7449,3.6772,3.6688,3.6299,3.5622,3.5622,3.5622,3.119,3.1952,3.2594,3.1985,3.2527,3.3152,3.2983,3.2848,3.2797,3.2899,0.0,0.0,0.0,0.0,0.0,0.0,3.4286,3.4962,3.4962,3.6282,3.7533,3.8278,3.8633,3.8988,3.9411,3.8903,3.8717,3.914,3.8481,3.8193,3.8514,3.8227,3.7669,3.6806,3.6468,3.6079,3.5622,3.5622,3.5622,3.5622,3.5622,3.5622,3.5622,3.5622,3.5622,3.5622,3.5622,3.5622,3.5622,3.5622,3.5622,3.5622,3.5622,3.5622,3.5622,3.5622,3.5825,3.6096,3.6096,3.6806,3.7855,3.8717,3.9478,4.007,4.007,4.007,4.007,4.007,4.007,4.007,4.007,4.007,4.007,4.007,4.007,4.007,4.007,4.007,4.007,4.007,4.007,4.007,4.007,4.007,4.007,4.007,4.007,4.007,4.007,4.007,4.007,4.007,4.007,4.007,4.007,4.007,4.007,4.007,4.007,3.9884,3.9462,3.9157,3.8802,3.8379,3.8075,3.7753,3.7432,3.7432,3.7043,3.6282,3.5825,3.5622,3.119,3.1732,3.2263,3.2036,3.2138,3.2425,3.2983,3.2831,3.2747,3.3288,3.3119,0.0,0.0,0.0,3.2696,3.3034,0.0,3.4421,3.4218,3.5334,3.6434,3.7195,3.7652,3.8108,3.865,3.8514,3.8768,3.9715,3.9106,3.887,3.9276,3.9106,3.8497,3.7432,3.6992,3.6502,3.5943,3.5723,3.5622,3.5622,3.5622,3.5622,3.5622,3.5622,3.5622,3.5622,3.5622,3.5622,3.5622,3.5622,3.5622,3.5622,3.5622,3.5622,3.5622,3.5622,3.5622,3.5622,3.5622,3.6265,3.7297,3.8582,3.9478,4.007,4.007,4.007,4.007,4.007,4.007,4.007,4.007,4.007,4.007,4.007,4.007,4.007,4.007,4.007,4.007,4.007,4.007,4.007,4.007,4.007,4.007,4.007,4.007,4.007,4.007,4.007,4.007,4.007,4.007,4.007,4.007,4.007,4.007,4.007,4.007,3.9749,3.9022,3.8988,3.865,3.7922,3.7905,3.7804,3.7601,3.7601,3.7212,3.6451,3.6096,3.5825,3.119,3.1732,3.2121,3.141,3.1749,3.233,3.2307,3.2865,3.3372,3.3406,3.3947,3.4201,3.3508,3.3372,3.3136,0.0,3.3541,0.0,0.0,3.4083,3.4844,3.5605,3.7009,3.7922,3.7939,3.728,3.7449,3.892,3.8345,3.8565,3.9969,3.9377,3.8971,3.892,3.7533,3.6772,3.6738,3.5994,3.5622,3.5622,3.5622,3.5622,3.5622,3.5622,3.5622,3.5622,3.5622,3.5622,3.5622,3.5622,3.5622,3.5622,3.5622,3.5622,3.5622,3.5622,3.5622,3.5622,3.5622,3.6603,3.799,3.8751,3.9478,4.007,4.007,4.007,4.007,4.007,4.007,4.007,4.007,4.007,4.007,4.007,4.007,4.007,4.007,4.007,4.007,4.007,4.007,4.007,4.007,4.007,4.007,4.007,4.007,4.007,4.007,4.007,4.007,4.007,4.007,4.007,4.007,4.007,4.007,4.007,4.007,3.9749,3.9022,3.8988,3.865,3.7922,3.7905,3.755,3.6823,3.6823,3.6417,3.5673,3.64,3.6332,2.9719,2.9905,3.0159,3.0412,3.0865,3.1382,3.186,3.2377,3.2871,3.3106,3.3338,3.3477,3.3397,3.3795,3.4049,0.0,0.0,3.4235,0.0,3.3186,3.3491,3.4726,3.5774,3.6603,3.711,3.6924,3.7398,3.8886,3.8328,3.8531,4.0003,3.9834,3.9495,3.9005,3.8041,3.728,3.6772,3.6011,3.5622,3.5622,3.5622,3.5622,3.5622,3.5622,3.5622,3.5622,3.5622,3.5622,3.5622,3.5622,3.5622,3.5622,3.5622,3.5622,3.5622,3.5622,3.5622,3.5622,3.5622,3.6299,3.728,3.8024,3.8768,3.9445,3.9935,4.007,4.007,4.007,4.007,4.007,4.007,4.007,4.007,4.007,4.007,4.007,4.007,4.007,4.007,4.007,4.007,4.007,4.007,4.007,4.007,4.007,4.007,4.007,4.007,4.007,4.007,4.007,4.007,4.007,4.007,4.007,3.9868,3.9394,3.936,3.8802,3.7584,3.7533,3.7178,3.64,3.6891,3.728,3.7533,3.7533,3.7398,3.7127,3.6891,3.6366,2.9193,2.9281,2.9506,2.9987,3.0508,3.1044,3.1498,3.2493,3.3265,3.3063,3.3796,3.4276,3.3532,3.4523,3.5125,0.0,0.0,3.4371,0.0,3.2814,3.3034,3.3998,3.4759,3.5622,3.6671,3.6535,3.7094,3.8853,3.8328,3.8531,4.0003,4.007,3.9868,3.9394,3.8667,3.7939,3.7195,3.6417,3.5893,3.5622,3.5622,3.5622,3.5622,3.5622,3.5622,3.5622,3.5622,3.5622,3.5622,3.5622,3.5622,3.5622,3.5622,3.5622,3.5622,3.5622,3.5622,3.5622,3.5622,3.6129,3.6857,3.7347,3.8007,3.87,3.9157,3.9478,3.9698,3.9698,3.9884,4.007,4.007,4.007,4.007,4.007,4.007,4.007,4.007,4.007,4.007,4.007,4.007,4.007,4.007,4.007,4.007,4.007,4.007,4.007,4.007,4.007,4.007,4.007,4.007,4.007,4.007,4.007,3.9884,3.9411,3.914,3.8447,3.7229,3.6924,3.6552,3.6045,3.6248,3.6738,3.7499,3.7229,3.7094,3.7077,3.6586,3.6096]},{"header":{"parameterUnit":"m.s-1","parameterCategory":1,"la1":30.6,"la2":29.2853,"lo1":-89.7004,"lo2":-87.6739,"dy":0.0162,"dx":0.0183,"nx":112,"ny":82,"refTime":"2024-08-16T18:00:00:Z","depth":0,"parameterNumber":3,"parameterNumberName":"V-component_of_WINDS"},"data":[0.0,0.0,0.0,0.0,0.0,0.0,0.0,0.0,0.0,0.0,0.0,0.0,0.0,0.0,0.0,0.0,0.0,0.0,0.0,0.0,0.0,0.0,0.0,0.0,0.0,0.0,0.0,0.0,0.0,0.0,0.0,0.0,0.0,0.0,0.0,0.0,0.0,0.0,0.0,0.0,0.0,0.0,0.0,0.0,0.0,0.0,0.0,0.0,0.0,0.0,0.0,0.0,0.0,0.0,0.0,0.0,0.0,0.0,0.0,0.0,0.0,0.0,0.0,0.0,0.0,0.0,0.0,0.0,0.0,0.0,0.0,0.0,0.0,0.0,0.0,0.0,0.0,0.0,0.0,0.0,0.0,0.0,0.0,0.0,0.0,0.0,0.0,0.0,0.0,0.0,0.0,0.0,0.0,0.0,0.0,0.0,-0.0621,-0.209,0.0,0.0,0.0,0.0,0.0,0.0,0.0,0.0,0.0,0.0,0.0,0.0,0.0,0.0,0.0,0.0,0.0,0.0,0.0,0.0,0.0,0.0,0.0,0.0,0.0,0.0,0.0,0.0,0.0,0.0,0.0,0.0,0.0,0.0,0.0,0.0,0.0,0.0,0.0,0.0,0.0,0.0,0.0,0.0,0.0,0.0,0.0,0.0,0.0,0.0,0.0,0.0,0.0,0.0,0.0,0.0,0.0,0.0,0.0,0.0,0.0,0.0,0.0,0.0,0.0,0.0,0.0,0.0,0.0,0.0,0.0,0.0,0.0,0.0,0.0,0.0,0.0,0.0,0.0,0.0,0.0,0.0,0.0,0.0,0.0,0.0,0.0,0.0,0.0,0.0,0.0,0.0,0.0,0.0,0.0,0.0,0.0,0.0,0.0,0.0,0.0,0.0,0.0,0.0,0.0,0.0,0.0,0.0,0.0,0.0,-0.0617,-0.2079,0.0,0.0,0.0,0.0,0.0,0.0,0.0,0.0,0.0,0.0,0.0,0.0,0.0,0.0,0.0,0.0,0.0,0.0,0.0,0.0,0.0,0.0,0.0,0.0,0.0,0.0,0.0,0.0,0.0,0.0,0.0,0.0,0.0,0.0,0.0,0.0,0.0,0.0,0.0,0.0,0.0,0.0,0.0,0.0,0.0,0.0,0.0,0.0,0.0,0.0,0.0,0.0,0.0,0.0,0.0,0.0,0.0,0.0,0.0,0.0,0.0,0.0,0.0,0.0,0.0,0.0,0.0,0.0,0.0,0.0,0.0,0.0,0.0,0.0,0.0,0.0,0.0,0.0,0.0,0.0,0.0,0.0,0.0,0.0,0.0,0.0,0.0,0.0,0.0,0.0,0.0,0.0,0.0,0.0,0.0,0.0,0.0,0.0,0.0,0.0,0.0,0.0,0.0,0.0,0.0,0.0,0.0,0.0,0.0,0.0,-0.0615,-0.212,-0.3635,0.0,0.0,0.0,0.0,0.0,0.0,0.0,0.0,0.0,0.0,0.0,0.0,0.0,0.0,0.0,0.0,0.0,0.0,0.0,0.0,0.0,0.0,0.0,0.0,0.0,0.0,0.0,0.0,0.0,0.0,0.0,0.0,0.0,0.0,0.0,0.0,0.0,0.0,0.0,0.0,0.0,0.0,0.0,0.0,0.0,0.0,0.0,0.0,0.0,0.0,0.0,0.0,0.0,0.0,0.0,0.0,0.0,0.0,0.0,0.0,0.0,0.0,0.0,0.0,0.0,0.0,0.0,0.0,0.0,0.0,0.0,0.0,0.0,0.0,0.0,0.0,0.0,0.0,0.0,0.0,0.0,0.0,0.0,0.0,0.0,0.0,0.0,0.0,0.0,0.0,0.0,0.0,0.0,0.0,0.0,0.0,0.0,0.0,0.0,0.0,0.0,0.0,0.0,0.0,0.0,0.0,0.0,0.0,0.0,-0.0615,-0.212,-0.3641,0.0,0.0,0.0,0.0,0.0,0.0,0.0,0.0,0.0,0.0,0.0,0.0,0.0,0.0,0.0,0.0,0.0,0.0,0.0,0.0,0.0,0.0,0.0,0.0,0.0,0.0,0.0,0.0,0.0,0.0,0.0,0.0,0.0,0.0,0.0,0.0,0.0,0.0,0.0,0.0,0.0,0.0,0.0,0.0,0.0,0.0,0.0,0.0,0.0,0.0,0.0,0.0,0.0,0.0,0.0,0.0,0.0,0.0,0.0,0.0,0.0,0.0,0.0,0.0,0.0,0.0,0.0,0.0,0.0,0.0,0.0,0.0,0.0,0.0,0.0,0.0,0.0,0.0,0.0,0.0,0.0,0.0,0.0,0.0,0.0,0.0,0.0,0.0,0.0,0.0,0.0,0.0,0.0,0.0,0.0,0.0,0.0,0.0,0.0,0.0,0.0,0.0,0.0,0.0,0.0,0.0,0.0,0.0,0.0,-0.0615,-0.212,-0.3641,0.0,0.0,0.0,0.0,0.0,0.0,0.0,0.0,0.0,0.0,0.0,0.0,0.0,0.0,0.0,0.0,0.0,0.0,0.0,0.0,0.0,0.0,0.0,0.0,0.0,0.0,0.0,0.0,0.0,0.0,0.0,0.0,0.0,0.0,0.0,0.0,0.0,0.0,0.0,0.0,0.0,0.0,0.0,0.0,0.0,0.0,0.0,0.0,0.0,0.0,0.0,0.0,0.0,0.0,0.0,0.0,0.0,0.0,0.0,0.0,0.0,0.0,0.0,0.0,0.0,0.0,0.0,0.0,0.0,0.0,0.0,0.0,0.0,0.0,0.0,0.0,0.0,0.0,0.0,0.0,0.0,0.0,0.0,0.0,0.0,0.0,0.0,0.0,0.0,0.0,0.0,0.0,0.0,0.0,0.0,0.0,0.0,0.0,0.0,0.0,0.0,0.0,0.0,0.0,0.0,0.0,0.0,0.0,0.0,-0.0615,-0.212,0.0,0.0,0.0,0.0,0.0,0.0,0.0,0.0,0.0,0.0,0.0,0.0,0.0,0.0,0.0,0.0,0.0,0.0,0.0,0.0,0.0,0.0,0.0,0.0,0.0,0.0,0.0,0.0,0.0,0.0,0.0,0.0,0.0,0.0,0.0,0.0,0.0,0.0,0.0,0.0,0.0,0.0,0.0,0.0,0.0,0.0,0.0,0.0,0.0,0.0,0.0,0.0,0.0,0.0,0.0,0.0,0.0,0.0,0.0,0.0,0.0,0.0,0.0,0.0,0.0,0.0,0.0,0.0,0.0,0.0,0.0,0.0,0.0,0.0,0.0,0.0,0.0,0.0,0.0,0.0,0.0,0.0,0.0,0.0,0.0,0.0,0.0,0.0,0.0,0.0,0.0,0.0,0.0,0.0,0.0,0.0,0.0,0.0,0.0,0.0,0.0,0.0,0.0056,0.0,0.0,0.0,0.0,0.0,0.0,0.0,-0.0615,-0.212,0.0,0.0,0.0,0.0,0.0,0.0,0.0,0.0,0.0,0.0,0.0,0.0,0.0,0.0,0.0,0.0,0.0,0.0,0.0,0.0,0.0,0.0,0.0,0.0,0.0,0.0,0.0,0.0,0.0,0.0,0.0,0.0,0.0,0.0,0.0,0.0,0.0,0.0,0.0,0.0,0.0,0.0,0.0,0.0,0.0,0.0,0.0,0.0,0.0,0.0,0.0,0.0,0.0,0.0,0.0,0.0,0.0,0.0,0.0,0.0,0.0,0.0,0.0,0.0,0.0,0.0,0.0,0.0,0.0,0.0,0.0,0.0,0.0,0.0,0.0,0.0,0.0,0.0,0.0,0.0,0.0,0.0,0.0,0.0,0.0,0.0,0.0,0.0,0.0,0.0,0.0,0.0,0.0,0.0,0.0,0.0,0.0,0.0,0.0,0.0,0.0,0.0,0.0224,0.0,0.0,0.0,0.0,0.0,0.0,0.0,-0.0615,0.0,0.0,0.0,0.0,0.0,0.0,0.0,0.0,0.0,0.0,0.0,0.0,0.0,0.0,0.0,0.0,0.0,0.0,0.0,0.0,0.0,0.0,0.0,0.0,0.0,0.0,0.0,0.0,0.0,0.0,0.0,0.0,0.0,0.0,0.0,0.0,0.0,0.0,0.0,0.0,0.0,0.0,0.0,0.0,0.0,0.0,0.0,0.0,0.0,0.0,0.0,0.0,0.0,0.0,0.0,0.0,0.0,0.0,0.0,0.0,0.0,0.0,0.0,0.0,0.0,0.0,0.0,0.0,0.0,0.0,0.0,0.0,0.0,0.0,0.0,0.0,0.0,0.0,0.0,0.0,0.0,0.0,0.0,0.0,0.0,0.0,0.0,0.0,0.0,0.0,0.0,0.0,0.0,0.0,0.0,0.0,0.0,0.0,0.0,0.0,0.0,0.0,0.0,0.3205,0.1323,0.0,0.0,0.0,0.0,0.0,0.0,-0.0648,-0.2098,0.0,0.0,0.0,0.0,0.0,0.0,0.0,0.0,0.0,0.0,0.0,0.0,0.0,0.0,0.0,0.0,0.0,0.0,0.0,0.0,0.0,0.0,0.0,0.0,0.0,0.0,0.0,0.0,0.0,0.0,0.0,0.0,0.0,0.0,0.0,0.0,0.0,0.0,0.0,0.0,0.0,0.0,0.0,0.0,0.0,0.0,0.0,0.0,0.0,0.0,0.0,0.0,0.0,0.0,0.0,0.0,0.0,0.0,0.0,0.0,0.0,0.0,0.0,0.0,0.0,0.0,0.0,0.0,0.0,0.0,0.0,0.0,0.0,0.0,0.0,0.0,0.0,0.0,0.0,0.0,0.0,0.0,0.0,0.0,0.0,0.0,0.0,0.0,0.0,0.0,0.0,0.0,0.0,0.0,0.0,0.0,0.0,0.0,0.0,0.0,0.0,0.0,0.4501,0.2899,0.1312,0.0112,0.0,0.0,0.0,0.0,-0.0378,-0.1272,0.0,0.0,0.0,0.0,0.0,0.0,0.0,0.0,0.0,0.0,0.0,0.0,0.0,0.0,0.0,0.0,0.0,0.0,0.0,0.0,0.0,0.0,0.0,0.0,0.0,0.0,0.0,0.0,0.0,0.0,0.0,0.0,0.0,0.0,0.0,0.0,0.0,0.0,0.0,0.0,0.0,0.0,0.0,0.0,0.0,0.0,0.0,0.0,0.0,0.0,0.0,0.0,0.0,0.0,0.0,0.0,0.0,0.0,0.0,0.0,0.0,0.0,0.0,0.0,0.0,0.0,0.0,0.0,0.0,0.0,0.0,0.0,0.0,0.0,0.0,0.0,0.0,0.0,0.0,0.0,0.0,0.0,0.0,0.0,0.0,0.0,0.0,0.0,0.0,0.0,0.0,0.0,0.0,0.0,0.0,0.0,0.0,0.0,0.0,0.0,0.0,0.0,0.4477,0.448,0.3463,0.0726,0.0168,0.0,0.0,0.0,0.0,0.0,0.0,0.0,0.0,0.0,0.0,0.0,0.0,0.0,0.0,0.0,0.0,0.0,0.0,0.0,0.0,0.0,0.0,0.0,0.0,0.0,0.0,0.0,0.0,0.0,0.0,0.0,0.0,0.0,0.0,0.0,0.0,0.0,0.0,0.0,0.0,0.0,0.0,0.0,0.0,0.0,0.0,0.0,0.0,0.0,0.0,0.0,0.0,0.0,0.0,0.0,0.0,0.0,0.0,0.0,0.0,0.0,0.0,0.0,0.0,0.0,0.5736,0.4899,0.0,0.0,0.0,0.0,0.0,0.0,0.0,0.0,0.0,0.0,0.0,0.0,0.0,0.0,0.0,0.0,0.0,0.0,0.0,0.0,0.0,0.0,0.0,0.0,0.0,0.0,0.0,0.0,0.0,0.0,0.0,0.0,0.0,0.0,0.0,0.0,0.0,0.0,0.0,0.0,0.4522,0.4473,0.4255,0.3585,0.1396,0.0,0.0,0.0,0.0,0.0,-0.1683,0.0,0.0,0.0,0.0,0.0,0.0,0.0,0.0,0.0,0.0,0.0,0.0,0.0,0.0,0.0,0.0,0.0,0.0,0.0,0.0,0.0,0.0,0.0,0.0,0.0,0.0,0.0,0.0,0.0,0.0,0.0,0.0,0.0,0.0,0.0,0.0,0.0,0.0,0.0,0.0,0.0,0.0,0.0,0.0,0.0,0.0,0.0,0.0,0.0,0.0,0.0,0.0,0.0,0.0,0.0,0.0,0.0,0.0,0.0,0.6744,0.6194,0.0,0.0,0.0,0.0,0.0,0.0,0.0,0.0,0.0,0.0,0.0,0.0,0.0,0.0,0.0,0.0,0.0,0.0,0.0,0.0,0.0,0.0,0.0,0.0,0.0,0.0,0.0,0.0,0.0,0.0,0.0,0.0,0.0,0.0,0.0,0.0,0.0,0.0,0.0,0.0,0.4519,0.4522,0.4477,0.4487,0.242,0.0746,0.0051,0.0,0.0,0.0,-0.1403,0.0,0.0,0.0,0.0,0.0,0.0,0.0,0.0,0.0,0.0,0.0,0.0,0.0,0.0,0.0,0.0,0.0,0.0,0.0,0.0,0.0,0.0,0.0,0.0,0.0,0.0,0.0,0.0,0.0,0.0,0.0,0.0,0.0,0.0,0.0,0.0,0.0,0.0,0.0,0.0,0.0,0.0,0.0,0.0,0.0,0.0,0.0,0.0,0.0,0.0,0.0,0.0,0.0,0.8402,0.8397,0.8351,0.804,0.8309,0.8862,0.7888,0.7799,0.8175,0.6974,0.0,0.0,0.0,0.0,0.0,0.0,0.0,0.0,0.0,0.0,0.0,0.0,0.0,0.0,0.0,0.0,0.0,0.0,0.0,0.0,0.0,0.0,1.0509,1.1176,1.2018,1.1878,0.9057,0.0,0.0,0.0,0.0,0.0,0.0,0.0,0.0,0.0,0.0,0.0,0.468,0.468,0.4629,0.4532,0.3358,0.1882,0.0152,0.0,0.0,0.0,-0.1403,-0.2911,0.0,0.0,0.0,0.0,0.0,0.0,0.0,0.0,0.0,0.0,0.0,0.0,0.0,0.0,0.0,0.0,0.0,0.0,0.0,0.0,0.0,0.0,0.0,0.0,0.0,0.0,0.0,0.0,0.0,0.0,0.0,0.0,0.6287,0.6734,0.0,0.0,0.0,0.0,0.0,0.0,0.0,0.0,0.0,0.0,0.0,0.0,0.0,0.9593,0.9593,1.0552,1.0953,1.096,1.1835,1.209,1.1733,1.1422,1.0854,1.0053,1.0129,0.0,0.8562,0.8323,0.0,0.0,0.0,0.0,0.0,0.0,0.0,0.0,0.0,0.0,0.0,0.0,0.0,0.0,0.0,0.0,0.0,0.0,0.0,0.0,0.0,0.0,1.2611,1.2731,1.2833,1.2797,1.2377,1.1713,1.0975,1.0226,0.9487,0.862,0.0,0.0,0.0,0.0,0.0,0.0,0.5508,0.5378,0.5167,0.4588,0.4298,0.3042,0.0253,0.0,0.0,0.0,-0.1403,-0.2911,-0.4432,-0.4473,0.0,0.0,0.0,0.0,0.0,0.0,0.0,0.0,0.0,0.0,0.0,0.0,0.0,0.0,0.0,0.0,0.0,0.0,0.0,0.0,0.0,0.0,0.0,0.0,0.0,0.0,0.0,0.0,0.0,0.6214,0.6781,0.7186,0.7157,0.7038,0.0,0.0,0.0,0.0,0.0,0.0,0.0,0.0,0.0,1.0504,1.1119,1.1472,1.1472,1.1818,1.2022,1.2022,1.2165,1.2184,1.2028,1.1707,1.1404,1.1068,1.065,1.0272,0.9946,0.9118,0.8397,0.7709,0.0,0.0,0.0,0.0,0.6568,0.6724,0.6806,0.7159,0.757,0.7269,0.0,0.0,0.0,0.0,0.0,0.0,0.0,1.1138,1.2937,1.3243,1.3411,1.4799,1.4364,1.3835,1.4751,1.4335,1.3438,1.213,1.1321,1.0417,0.9251,0.8605,0.0,0.0,0.0,0.6722,0.5622,0.5487,0.5218,0.4577,0.4513,0.3623,0.1413,0.0495,0.0,0.0,-0.0614,-0.2007,-0.4428,-0.448,-0.4525,0.0,0.0,0.0,0.0,0.0,0.0,0.0,0.0,0.0,0.0,0.0,0.0,0.0,0.0,0.0,0.0,0.0,0.0,0.0,0.0,0.0,0.0,0.0,0.0,0.0,0.0,0.0,0.0,0.7449,0.7883,0.8268,0.841,0.8345,0.0,0.0,0.0,0.0,0.0,0.0,1.1158,1.1704,1.2209,1.2677,1.3489,1.3805,1.3705,1.3591,1.348,1.3325,1.28,1.2497,1.2384,1.2016,1.1831,1.1714,1.1072,1.0917,1.1032,0.9779,0.9223,0.9019,0.8276,0.7836,0.7614,0.7773,0.7802,0.783,0.8047,0.8271,0.8424,0.8613,0.88,0.9035,0.9525,0.0,0.0,0.0,0.0,1.2577,1.4564,1.4582,1.4459,1.6177,1.5553,1.4877,1.6045,1.5757,1.4936,1.3761,1.3046,1.2296,1.118,1.0078,0.0,0.8222,0.7802,0.7282,0.6223,0.5923,0.5492,0.4842,0.4613,0.3899,0.2352,0.0839,0.0,0.0,0.0,-0.1154,-0.3802,-0.4314,-0.4473,-0.4519,0.0,0.0,0.0,0.0,0.0,0.0,0.0,0.0,0.0,0.0,0.0,0.0,0.0,0.0,0.0,0.0,0.0,0.0,0.0,0.0,0.0,0.0,0.0,0.0,0.0,0.0,0.0,0.0,0.0,1.1043,1.1792,0.0,0.0,0.0,0.0,1.1894,1.1967,1.277,1.4554,1.4694,1.5491,1.7192,1.7291,1.7093,1.6576,1.6565,1.6334,1.5782,1.5226,1.4677,1.4223,1.3649,1.2808,1.1796,1.2077,1.1824,1.1204,1.0397,0.9718,0.925,0.9238,0.8709,0.7996,0.8006,0.8078,0.8168,0.8043,0.8635,0.9507,1.02,1.1275,1.2347,1.2389,1.2439,0.0,0.0,1.4335,1.5156,1.5557,1.6138,1.6539,1.6158,1.5985,1.5924,1.6019,1.5539,1.5043,1.486,1.4772,1.4338,1.3103,0.0,1.1071,1.0751,0.9792,0.8741,0.7699,0.6966,0.6258,0.5542,0.487,0.3872,0.2325,0.0871,0.0,0.0,0.0,-0.0698,-0.2228,-0.3744,-0.4473,-0.4519,-0.4519,0.0,0.0,0.0,0.0,0.0,0.0,0.0,0.0,0.0,0.0,0.0,0.0,0.0,0.0,0.0,0.0,0.0,0.0,0.0,0.0,0.0,0.0,0.0,0.0,0.0,0.0,0.0,0.0,1.1809,1.2698,0.0,1.2768,1.3879,1.4764,1.5183,1.5491,1.6277,1.7798,1.7102,1.7126,1.8193,1.7512,1.6966,1.6788,1.6165,1.5764,1.5537,1.5092,1.4564,1.401,1.379,1.3272,1.251,1.2104,1.1954,1.1877,1.1162,1.0733,1.0424,0.9952,0.975,0.9646,0.9646,0.9713,0.9716,0.9682,1.027,1.1094,1.1849,1.3109,1.435,1.435,1.5041,1.5899,1.6133,1.6261,1.6385,1.698,1.6474,1.6007,1.6729,1.5985,1.5362,1.6026,1.5706,1.5199,1.5034,1.4916,1.4615,1.3897,1.3227,1.2505,1.1672,1.0627,0.954,0.8474,0.7326,0.6312,0.5597,0.4907,0.425,0.3732,0.1415,0.0,0.0,0.0,-0.0216,-0.078,-0.3193,-0.4494,-0.4473,-0.4473,-0.4525,0.0,0.0,0.0,0.0,0.0,0.0,0.0,0.0,0.0,0.0,0.0,0.0,0.0,0.0,0.0,0.0,0.0,0.0,0.0,0.0,0.0,0.0,0.0,0.0,0.0,1.2832,1.3336,1.328,1.4279,1.4804,1.4284,1.5615,1.6719,1.7089,1.7421,1.8108,1.9158,1.8437,1.8313,1.8983,1.8227,1.7736,1.7495,1.6681,1.6161,1.5984,1.5291,1.4778,1.4411,1.419,1.3779,1.32,1.2686,1.2504,1.2461,1.1757,1.1477,1.1417,1.0616,1.0435,1.0615,1.0615,1.0798,1.0974,1.0974,1.1503,1.2265,1.3024,1.4164,1.5295,1.5497,1.6233,1.7087,1.7087,1.6999,1.7014,1.7492,1.6836,1.6244,1.7144,1.6308,1.5482,1.6212,1.5846,1.5421,1.5504,1.5164,1.4759,1.4231,1.3661,1.291,1.1919,1.0825,0.9795,0.8837,0.7706,0.6691,0.5928,0.5226,0.4761,0.4513,0.2212,0.0539,0.0054,0.0,-0.0219,-0.0726,-0.2689,-0.3814,-0.3965,-0.4307,-0.4477,-0.4473,0.0,0.0,0.0,0.0,0.0,0.0,0.0,0.0,0.0,0.0,0.0,0.0,0.0,0.0,0.0,0.0,0.0,0.0,0.0,0.0,0.0,0.0,0.0,1.437,1.4695,1.5149,1.5497,1.6737,1.723,1.6328,1.7081,1.7632,1.7686,1.7653,1.8001,1.877,1.8742,1.9065,1.9812,1.9798,1.9496,1.892,1.8428,1.7893,1.7312,1.6188,1.562,1.5576,1.5005,1.4376,1.3815,1.3815,1.3467,1.2871,1.2129,1.2007,1.2158,1.1154,1.0729,1.0736,1.0736,1.1125,1.1727,1.1727,1.2291,1.3014,1.366,1.4433,1.5289,1.5873,1.6065,1.6065,1.6065,1.6543,1.7111,1.7094,1.7255,1.7378,1.729,1.6879,1.6522,1.6522,1.6051,1.5754,1.6196,1.562,1.4893,1.4228,1.3246,1.2289,1.1684,1.0593,0.0,0.8962,0.8209,0.7402,0.6696,0.5928,0.5222,0.4532,0.3125,0.1618,0.0112,0.0,-0.0616,-0.2073,-0.2235,-0.2508,-0.3063,-0.3965,-0.4428,-0.4438,0.0,0.0,0.0,0.0,0.0,0.0,0.0,0.0,0.0,0.0,0.0,0.0,0.0,0.0,0.0,0.0,0.0,0.0,0.0,0.0,0.0,1.5704,1.642,1.6262,1.6613,1.6743,1.6465,1.7266,1.7576,1.6933,1.7897,1.8783,1.9251,1.9212,1.9678,2.0798,1.9998,1.9784,2.0429,1.9614,1.9057,1.892,1.8372,1.8031,1.7867,1.7162,1.6617,1.6176,1.562,1.5005,1.4422,1.4003,1.3732,1.3505,1.2842,1.232,1.1879,1.1366,1.1233,1.1455,1.1455,1.1559,1.1839,1.2842,1.3392,1.3777,1.4987,1.5941,1.6566,1.6764,1.7169,1.7593,1.7593,1.7456,1.7322,1.7297,1.7049,1.6753,1.6705,1.6595,1.6522,1.6522,1.638,1.6144,1.5835,1.5244,1.4817,1.48,1.3935,1.3138,1.2974,1.1575,1.0466,1.0261,0.8758,0.7402,0.6696,0.5928,0.5222,0.4532,0.4089,0.274,0.0168,0.0,-0.0168,-0.056,-0.2697,-0.3943,-0.4104,-0.3244,-0.2847,0.0,0.0,0.0,0.0,0.0,0.0,0.0,0.0,0.0,0.0,0.0,0.0,0.0,0.0,0.0,0.0,0.0,0.0,0.0,0.0,0.0,0.0,1.7463,1.8222,1.8184,1.7932,1.7617,1.744,1.7957,1.814,1.7594,1.8637,1.9458,1.9828,1.978,2.0061,2.0837,2.016,1.9921,2.0279,1.9588,1.923,1.923,1.8719,1.8458,1.8419,1.7907,1.7327,1.6786,1.6446,1.584,1.505,1.4732,1.4272,1.3768,1.342,1.289,1.2215,0.0,0.0,0.0,0.0,1.2342,1.269,1.3506,1.3963,1.4364,1.5467,1.6114,1.6503,1.6795,1.7143,1.7501,1.7501,1.7441,1.735,1.735,1.7251,1.7118,1.6879,1.6837,1.6752,1.6552,1.6522,1.638,1.6051,1.5287,0.0,1.4898,1.3991,1.3132,1.2802,1.1666,1.0712,1.0415,0.9079,0.7883,0.7128,0.6416,0.566,0.4959,0.4646,0.0,0.0,0.0,0.0,0.0,-0.1682,0.0,0.0,0.0,0.0,0.0,0.0,0.0,0.0,0.0058,0.1316,0.0,0.0,0.0,0.0,0.0,0.0,0.0,0.0,0.0,0.0,0.0,0.0,0.0,0.0,0.0,0.0,1.9336,2.0033,1.9938,1.8832,1.8081,1.8235,1.8715,1.8795,1.8256,1.9089,1.9692,1.9692,1.968,1.9688,1.9688,1.9716,0.0,0.0,0.0,1.969,1.969,1.9244,1.9006,1.8968,1.838,1.7867,1.7394,1.7271,1.6672,1.572,1.5632,1.4994,1.4003,1.3862,1.342,1.2822,1.2187,1.1913,1.1972,1.2666,1.3286,1.3815,1.3862,0.0,0.0,1.5499,1.5764,1.5896,1.638,1.6595,1.668,1.6522,1.6909,1.7353,1.7229,1.7626,1.7867,1.7353,1.7188,1.7076,1.6595,1.6522,1.6466,1.6423,1.5466,1.4698,1.4606,1.3658,1.2666,1.203,1.1366,1.0661,1.0012,0.9309,0.8586,0.7777,0.702,0.0,0.5542,0.4908,0.3913,0.2565,0.1059,0.0223,0.0223,0.0223,-0.1005,-0.3711,-0.3766,-0.3088,-0.1684,0.2298,0.4347,0.4482,0.2139,0.3184,0.0,0.0,0.0,0.0,0.0,0.0,0.0,0.0,0.0,0.0,0.0,0.0,0.0,0.0,0.0,1.953,2.0201,2.0625,2.0625,1.953,1.8739,1.8773,1.8845,1.8699,1.818,1.8714,1.9059,1.9059,1.9455,1.9708,1.9708,1.9713,1.969,1.969,1.969,1.969,1.969,1.9603,1.9566,1.953,1.8574,0.0,1.7907,1.7034,1.6539,1.6281,1.582,1.5454,1.5186,1.4179,1.342,1.2881,1.2725,1.2666,1.2715,1.2832,1.3286,1.3862,1.4376,1.4915,1.5543,1.6151,1.6612,1.6883,1.6595,1.7118,0.0,1.6752,1.7188,1.7747,1.6879,1.7034,1.7312,1.6795,1.6637,1.6637,1.6522,1.6522,1.638,1.5864,1.5197,1.456,1.405,1.3382,1.2832,1.2715,1.2089,1.1366,1.0712,1.0012,0.9145,0.783,0.702,0.6312,0.5542,0.4908,0.4366,0.4082,0.2621,0.1785,0.1785,0.1785,0.1505,0.0891,0.0891,0.1059,0.1338,0.2233,0.3347,0.4731,0.4966,0.5536,0.0,0.0,0.0,0.0,0.0,0.0,0.0,0.0,0.0,0.0,0.0,1.7038,1.7601,0.0,1.9548,1.9836,2.0401,2.0625,2.0316,2.0002,1.9563,1.8962,1.8904,1.8796,1.8525,1.9006,1.9281,1.9281,1.9566,1.969,1.969,1.969,1.969,1.969,1.9442,1.9442,1.969,1.9442,1.9281,1.9281,1.8765,1.8224,1.7666,1.7146,1.6752,1.6466,1.6194,1.5864,1.5499,1.4318,1.3779,1.3752,1.3467,1.3324,1.3382,1.3705,1.419,1.4721,1.505,1.5555,1.6095,1.638,1.6879,1.7188,1.668,1.7076,1.7544,1.671,1.7076,1.7504,1.671,1.7118,1.7504,1.668,1.671,1.6837,1.6552,1.6522,1.6423,1.6095,1.5332,1.4606,1.4283,1.3515,1.2881,1.2881,1.2295,1.1566,1.0864,1.021,0.9406,0.8368,0.7616,0.6853,0.6091,0.5073,0.448,0.448,0.3805,0.3357,0.3357,0.3357,0.3357,0.3357,0.3357,0.3357,0.3357,0.3352,0.4054,0.5385,0.6052,0.6549,0.0,0.0,0.0,0.0,0.0,0.0,0.0,1.4179,1.5015,1.5833,1.7186,1.8265,1.8539,1.9391,2.0088,2.0159,2.0485,2.0501,1.9955,2.0253,2.0127,1.9164,1.9041,1.9043,1.9043,1.9442,1.969,1.969,1.969,1.969,1.969,1.969,1.9639,1.9566,1.9132,1.9043,1.9406,1.8968,1.8727,1.8727,1.865,1.8145,1.7312,1.7188,1.6909,1.6522,1.6522,1.6151,1.5543,1.4411,1.4283,1.4652,1.4143,1.405,1.4179,1.456,1.5096,1.5588,1.5588,1.6008,1.6522,1.6522,1.6879,1.7188,1.668,1.6951,1.7312,1.668,1.6951,1.7312,1.668,1.7229,1.7706,1.671,1.6837,1.7034,1.6595,1.6522,1.6423,1.6207,1.5389,1.4606,1.4387,1.3515,1.2881,1.2881,1.2393,1.1724,1.0914,1.032,0.9666,0.891,0.8156,0.7343,0.6475,0.5344,0.4639,0.4532,0.4484,0.449,0.449,0.449,0.449,0.449,0.449,0.4543,0.4709,0.4698,0.5132,0.6069,0.6696,0.7207,0.8883,1.0286,1.1728,1.2982,1.341,1.3994,0.0,1.5728,1.5936,1.7555,1.8087,1.8652,2.0147,2.05,2.0779,2.1385,2.103,2.0667,2.0593,2.0146,1.9758,1.9634,1.9611,1.9603,1.9603,1.9639,1.969,1.969,1.969,1.969,1.969,1.969,1.9479,1.9006,1.893,1.8688,1.8302,1.8224,1.8185,1.8185,1.7706,1.7435,1.7271,1.6795,1.6552,1.6522,1.6522,1.6151,1.5543,1.488,1.4652,1.4698,1.4606,1.4915,1.5365,1.488,1.5096,1.5588,1.5588,1.6008,1.6522,1.6522,1.6879,1.7188,1.668,1.7188,1.7787,1.6795,1.7229,1.7787,1.6752,1.6951,1.7229,1.6637,1.6552,1.6552,1.6522,1.6522,1.6194,1.5107,1.4789,1.434,1.3296,1.2978,1.2881,1.2881,1.2832,1.2304,1.0973,1.0712,1.0218,0.8956,0.8156,0.7122,0.576,0.5487,0.5113,0.4519,0.4522,0.4522,0.4522,0.4522,0.4522,0.4522,0.4522,0.4791,0.5382,0.5382,0.5764,0.6534,0.7847,0.8508,1.0849,1.1861,1.2667,1.392,1.4273,1.4616,1.568,1.6025,1.6463,1.7896,1.8722,1.9386,1.9987,2.0447,2.0676,2.055,2.0288,2.0124,2.0124,1.9869,1.969,1.969,1.969,1.969,1.969,1.969,1.969,1.969,1.969,1.9566,1.9244,1.953,1.9332,1.8458,1.8419,1.8341,1.8106,1.7787,1.7626,1.7626,1.7435,1.7146,1.6837,1.6595,1.6522,1.6522,1.6522,1.638,1.6095,1.5466,1.5421,1.57,1.5377,1.5599,1.6095,1.5832,1.592,1.6139,1.6139,1.6281,1.6522,1.6522,1.6879,1.7188,1.668,1.7034,1.7463,1.671,1.6837,1.7076,1.6637,1.668,1.6795,1.6552,1.6522,1.6522,1.6522,1.6522,1.625,1.5377,1.4926,1.4433,1.3552,1.3152,1.2881,1.2881,1.2881,1.2412,1.0965,1.0813,1.0269,0.8962,0.8156,0.745,0.6848,0.5977,0.5378,0.5109,0.4736,0.468,0.5058,0.5058,0.5277,0.5719,0.5719,0.5878,0.6145,0.6145,0.6524,0.7289,0.8218,0.9148,1.2283,1.2918,1.3426,1.4808,1.5074,1.5142,1.5924,1.6275,1.6749,1.7945,1.882,1.9475,1.9656,2.0091,2.0273,1.9765,1.969,1.969,1.969,1.969,1.969,1.969,1.969,1.9639,1.9479,1.9603,1.9639,1.9479,1.9479,1.9244,1.8688,1.9043,1.8817,1.7907,1.7867,1.7827,1.7666,1.7271,1.7076,1.7076,1.7076,1.6879,1.6522,1.6522,1.6522,1.6522,1.6522,1.6423,1.6238,1.5776,1.5864,1.6194,1.5776,1.5952,1.6522,1.6522,1.6522,1.6522,1.6522,1.6522,1.6522,1.6522,1.6752,1.6993,1.6637,1.6752,1.6993,1.6595,1.6522,1.6522,1.6522,1.6522,1.6522,1.6522,1.6522,1.6522,1.6522,1.6522,1.6281,1.5499,1.5017,1.4479,1.3684,1.319,1.2881,1.2881,1.2881,1.2461,1.1216,1.0762,1.0064,0.891,0.8321,0.7937,0.7723,0.674,0.6032,0.5814,0.5332,0.5277,0.576,0.5814,0.6036,0.6588,0.6588,0.6696,0.6912,0.7117,0.7545,0.8296,0.9155,1.012,1.2695,1.3263,1.4193,1.594,1.5956,1.5864,1.7077,1.6892,1.682,1.7894,1.8133,1.8461,1.9523,1.972,1.9705,1.969,1.969,1.969,1.969,1.969,1.969,1.969,1.969,1.9479,1.8968,1.9406,1.9479,1.8968,1.893,1.8688,1.8145,1.8145,1.7907,1.7353,1.7312,1.7076,1.6552,1.6522,1.6522,1.6522,1.6522,1.6522,1.6522,1.6522,1.6522,1.6522,1.6522,1.6194,1.5632,1.5632,1.5632,1.5632,1.5588,1.5952,1.6522,1.6522,1.6522,1.6522,1.6522,1.6522,1.6522,1.6522,1.6522,1.6522,1.6522,1.6522,1.6522,1.6522,1.6522,1.6522,1.6522,1.6522,1.6522,1.6522,1.6522,1.6522,1.6522,1.6522,1.6151,1.4971,1.4698,1.434,1.3104,1.2929,1.2881,1.2881,1.2881,1.2618,1.1873,1.061,0.9562,0.8857,0.8758,0.848,0.7777,0.767,0.7343,0.6588,0.6534,0.6534,0.6588,0.6588,0.6588,0.6588,0.6588,0.6966,0.767,0.8324,0.9006,0.9762,1.1116,1.1715,1.3779,1.4538,1.522,1.6227,1.633,1.6287,1.6717,1.666,1.6795,1.7867,1.8106,1.8419,1.9479,1.969,1.969,1.969,1.969,1.969,1.969,1.969,1.969,1.969,1.97,1.9643,1.9434,1.9252,1.8968,1.8419,1.838,1.8145,1.7585,1.7907,1.7706,1.6795,1.7118,1.7034,1.6522,1.6522,1.6522,1.6522,1.6522,1.6522,1.6522,1.6522,1.6522,1.6522,1.6522,1.638,1.6194,1.5776,1.582,1.6151,1.5776,1.5952,1.6522,1.6522,1.6522,1.6522,1.6522,1.6522,1.6522,1.6522,1.6522,1.6522,1.6522,1.6522,1.6522,1.6522,1.6522,1.6522,1.6522,1.6522,1.6522,1.6522,1.6522,1.6522,1.6522,1.6522,1.625,1.5454,1.4971,1.4422,1.3647,1.3152,1.2881,1.2881,1.2098,1.1434,1.1166,0.9969,0.9061,0.8804,0.8804,0.8699,0.8427,0.799,0.7616,0.7343,0.6858,0.6804,0.7289,0.7343,0.7563,0.8049,0.8049,0.8156,0.8427,0.9079,0.9547,0.9814,1.1166,1.1814,1.4365,1.4971,1.5466,1.6293,1.6522,1.6522,1.6522,1.6522,1.6795,1.7867,1.8106,1.8419,1.9479,1.969,1.969,1.969,1.969,1.969,1.969,1.969,1.9779,2.0034,1.9846,1.9715,1.9765,1.9263,1.8796,1.8438,1.8438,1.8093,1.7359,1.7671,1.7466,1.6522,1.6837,1.6837,1.6522,1.6522,1.6522,1.6522,1.6722,1.6722,1.6522,1.6522,1.6522,1.6522,1.6522,1.638,1.6194,1.6008,1.6008,1.6151,1.6008,1.6151,1.6522,1.6522,1.6522,1.6522,1.6522,1.6522,1.6522,1.6522,1.6522,1.6522,1.6522,1.6522,1.6522,1.6522,1.6522,1.6522,1.6522,1.6522,1.6522,1.6522,1.6522,1.6522,1.6522,1.6324,1.6008,1.5421,1.4778,1.4201,1.36,1.3152,1.2881,1.2881,1.2077,1.1277,1.083,1.0064,0.9309,0.8857,0.8804,0.8804,0.8804,0.8374,0.8103,0.8103,0.767,0.7616,0.8049,0.8103,0.8315,0.8804,0.8804,0.891,0.9159,0.9814,1.0261,1.0517,1.1674,1.2187,1.4387,1.4755,1.5062,1.6207,1.6522,1.6522,1.6522,1.6522,1.6795,1.7827,1.8066,1.8419,1.9479,1.9705,1.9735,1.9735,1.9765,1.9779,1.975,1.9735,1.9937,2.0557,2.0084,1.971,1.9887,1.9391,1.9035,1.9035,1.8983,1.8494,1.7496,1.7426,1.7162,1.6584,1.6559,1.6547,1.6522,1.6547,1.6572,1.6609,1.7137,1.7099,1.6559,1.6491,1.6522,1.6522,1.6522,1.6194,1.5676,1.6238,1.6139,1.572,1.6238,1.6466,1.6522,1.6522,1.6522,1.6522,1.6522,1.6522,1.6522,1.6522,1.6522,1.6522,1.6522,1.6522,1.6522,1.6522,1.6522,1.6522,1.6522,1.6522,1.6522,1.6522,1.6522,1.6522,1.6522,1.6008,1.541,1.488,1.4258,1.3631,1.3046,1.293,1.2939,1.2939,1.2767,1.2173,1.1048,1.0863,1.0316,0.9056,0.8851,0.8844,0.8831,0.8844,0.8844,0.8831,0.8831,0.8831,0.8831,0.8818,0.8804,0.8857,0.8857,0.9159,0.9865,1.0517,1.1166,1.1814,1.2559,1.2881,1.4617,1.5344,1.6107,1.6423,1.6522,1.6522,1.6522,1.6522,1.668,1.7394,1.7827,1.8302,1.8968,1.9819,2.0453,2.0453,2.0857,2.1021,2.0528,2.0121,1.9895,1.9947,1.9516,1.9338,1.9787,1.9675,1.9585,1.9585,1.8885,1.827,1.8003,1.8003,1.7739,1.7187,1.7162,1.6961,1.6522,1.6948,1.7375,1.7777,1.7513,1.73,1.7149,1.671,1.6522,1.6522,1.6522,1.6423,1.6238,1.5964,1.6008,1.6238,1.5952,1.6095,1.6522,1.6522,1.6522,1.6522,1.6522,1.6522,1.6522,1.6522,1.6522,1.6522,1.6522,1.6522,1.6522,1.6522,1.6522,1.6522,1.6522,1.6522,1.6522,1.6522,1.6522,1.6522,1.6522,1.6008,1.5543,1.541,1.4744,1.4037,1.3441,1.3613,1.3818,1.3818,1.3739,1.3284,1.2191,1.1358,1.076,1.0379,0.9841,0.9372,0.9097,0.9332,0.9365,0.909,0.907,0.907,0.907,0.8925,0.9061,0.951,0.9562,0.9865,1.0568,1.1216,1.1616,1.1814,1.2559,1.2881,1.4606,1.5377,1.6194,1.6423,1.6522,1.6522,1.6522,1.6522,1.6637,1.7188,1.7544,1.7987,1.8765,1.9943,2.0764,2.0729,2.1515,2.1809,2.0833,2.0436,2.0239,2.0175,1.9692,1.9593,2.0171,1.9965,1.9798,1.9798,1.9246,1.8807,1.8581,1.8568,1.8317,1.7765,1.7739,1.7589,1.7262,1.7827,1.8141,1.8204,1.8141,1.7978,1.7739,1.74,1.7124,1.6898,1.6898,1.6748,1.6466,1.6139,1.6182,1.6466,1.6151,1.6194,1.6522,1.6522,1.6522,1.6522,1.6522,1.6685,1.6861,1.6609,1.6522,1.6522,1.6522,1.6522,1.6522,1.6522,1.6522,1.6572,1.6835,1.6898,1.6961,1.72,1.7262,1.716,1.6818,1.6289,1.5669,1.5086,1.4576,1.4164,1.3831,1.3922,1.4077,1.4077,1.4297,1.4163,1.361,1.2549,1.1632,1.0956,1.0515,1.0001,0.9446,0.9586,0.9613,0.9446,0.9432,0.9484,0.9673,0.9559,0.9708,1.0218,1.0269,1.0568,1.1266,1.1616,1.1972,1.2295,1.2715,1.2881,1.4422,1.5096,1.5732,1.6238,1.6423,1.6522,1.6522,1.6522,1.665,1.7222,1.7389,1.7733,1.8736,2.005,2.0986,2.0857,2.1953,2.2354,2.111,2.0826,2.0741,2.0758,2.012,1.9934,2.0594,2.0144,1.9798,1.9798,1.9798,1.961,1.9108,1.9133,1.8882,1.8329,1.8242,1.8242,1.8317,1.8794,1.8819,1.843,1.8832,1.8781,1.8304,1.8242,1.794,1.7488,1.7413,1.7137,1.6722,1.6572,1.6559,1.6635,1.6635,1.6635,1.6635,1.671,1.6748,1.6748,1.6748,1.7074,1.74,1.6823,1.6635,1.6647,1.6722,1.6685,1.6647,1.6722,1.6748,1.6861,1.7363,1.7488,1.7614,1.8091,1.8204,1.8049,1.7364,1.6726,1.5771,1.4387,1.4126,1.4165,1.4165,1.4214,1.4253,1.4253,1.4629,1.4873,1.4873,1.3914,1.2732,1.1485,1.1264,1.0855,0.9973,0.9948,0.9948,0.9914,0.9798,1.0015,1.0559,1.0414,1.0539,1.0997,1.0939,1.1266,1.1972,1.1972,1.2295,1.2881,1.2881,1.2881,1.3909,1.4767,1.5632,1.572,1.6151,1.6522,1.6522,1.6522,0.0,1.7257,1.773,1.8253,1.8861,2.0394,2.1557,2.1541,2.2625,2.317,2.2288,2.1414,2.0818,2.062,1.9767,1.937,1.9902,1.985,1.9798,1.9798,1.9798,1.9761,1.9673,1.966,1.9422,1.8907,1.8442,1.843,1.8882,1.8933,1.9196,1.9522,1.9183,1.8933,1.8869,1.8405,1.8154,1.8041,1.7576,1.7589,1.784,1.6911,1.6798,1.7237,1.7237,1.7237,1.7287,1.7739,1.7915,1.7915,1.7915,1.7978,1.7978,1.7413,1.7237,1.7313,1.7777,1.7601,1.7325,1.779,1.7915,1.794,1.8041,1.8066,1.8091,1.8179,1.8204,1.8157,1.8049,1.7034,1.5771,1.4387,1.4424,1.4678,1.4678,1.4961,1.5186,1.5186,1.5254,1.5303,1.5303,1.452,1.3888,1.3644,1.305,1.2218,1.1101,1.1269,1.1306,1.1034,1.0387,1.0664,1.2118,1.0988,1.0923,1.2182,1.1844,1.1981,1.2715,1.2715,1.2774,1.2881,1.2881,1.2881,1.3815,1.4675,1.5588,1.5588,1.6051,1.6522,1.6522,0.0,0.0,1.7325,1.7829,1.8358,1.8891,2.0292,2.1306,2.1226,2.2309,2.2875,2.2124,2.1586,2.1196,2.108,2.0357,1.9974,2.0225,1.9974,1.9798,1.9798,1.9798,1.9798,1.9798,1.9798,1.9685,1.9434,1.9183,1.9158,1.9434,1.9434,1.956,1.9798,1.9547,1.9434,1.9422,1.9158,1.8894,1.8618,1.8355,1.8229,1.8166,1.7626,1.7564,1.7815,1.7815,1.7815,1.784,1.8103,1.8204,1.8204,1.8204,1.8392,1.8593,1.8329,1.8041,1.7852,1.8129,1.8028,1.7865,1.8129,1.8204,1.8267,1.8555,1.8631,1.8706,1.897,1.8722,1.8357,1.7989,1.7096,1.604,1.4962,1.4971,1.5107,1.5107,1.5283,1.541,1.541,1.541,1.541,1.541,1.505,1.4688,1.4273,1.3846,1.3228,1.2274,1.2356,1.2379,1.2205,1.1843,1.2067,1.3061,1.2417,1.2405,1.3302,1.2931,1.2874,1.3203,1.2988,1.2881,1.2881,1.2881,1.2881,1.3621,1.4411,1.5242,1.5506,1.6034,1.6548,1.6804,1.7237,1.7589,1.7714,1.8078,1.8548,1.9063,2.014,2.097,2.0968,2.1932,2.2538,2.222,2.1957,2.1797,2.1813,2.1255,2.0857,2.0731,2.025,1.9936,1.9811,1.9798,1.9798,1.9798,1.9798,1.9798,1.9798,1.9798,1.9798,1.9798,1.9798,1.9798,1.9798,1.9798,1.9798,1.9798,1.9798,1.9572,1.9133,1.9033,1.8844,1.853,1.8292,1.8279,1.838,1.838,1.838,1.8392,1.8505,1.8543,1.8543,1.8543,1.8832,1.9196,1.9196,1.8832,1.8405,1.8518,1.8468,1.8405,1.8518,1.8543,1.8643,1.9083,1.9196,1.9296,1.971,1.9254,1.8501,1.7731,1.7034,1.6265,1.5526,1.541,1.541,1.541,1.541,1.541,1.541,1.541,1.541,1.541,1.541,1.5167,1.451,1.4451,1.4145,1.3312,1.3252,1.3252,1.3252,1.313,1.3297,1.3944,1.3738,1.3821,1.4223,1.3769,1.3506,1.3506,1.3086,1.2881,1.2881,1.2881,1.2978,1.3076,1.3467,1.4193,1.5247,1.5975,1.6723,1.7775,0.0,1.8267,1.8769,1.887,1.9095,1.9611,2.0332,2.0954,2.1429,2.2133,2.291,2.3734,2.2994,2.2483,2.2908,2.2058,2.1217,2.0769,2.0668,2.0376,1.9849,1.9798,1.9798,1.9798,1.9798,1.9798,1.9798,1.9798,1.9798,1.9798,1.9798,1.9798,1.9798,1.9798,1.9798,1.9798,1.9798,1.9773,1.971,1.9233,1.9271,1.9585,1.8606,1.8505,1.8908,1.8908,1.8908,1.9007,1.9472,1.966,1.966,1.966,1.9698,1.9736,1.9736,1.9371,1.9045,1.951,1.9321,1.9045,1.9522,1.966,1.966,1.971,1.9736,1.9748,1.9798,1.9254,1.8501,1.7731,1.7034,1.6265,1.5526,1.541,1.541,1.541,1.541,1.541,1.541,1.541,1.541,1.541,1.541,1.5352,1.5294,1.5294,1.4932,1.4154,1.4094,1.4094,1.4094,1.3425,1.3657,1.5177,1.4172,1.3959,1.4727,1.3926,1.3506,1.3506,1.3086,1.2881,1.2881,1.2881,1.319,1.3369,1.3932,1.4747,1.5363,1.6182,1.7051,1.7999,1.8455,1.8769,1.8982,1.9284,1.956,1.9761,2.0003,2.0386,2.0963,2.1263,2.1836,2.2885,2.293,2.2916,2.3088,2.2749,2.2259,2.1707,2.1355,2.1066,2.0828,2.0815,2.0815,2.0815,2.0175,1.9798,1.9798,1.9798,1.9798,1.9798,1.9798,1.9798,1.9798,1.9798,1.9798,1.9798,1.9798,1.9798,1.9798,1.9585,1.961,1.9773,1.9346,1.9296,1.9497,1.9497,1.9497,1.9522,1.9723,1.9798,1.9798,1.9798,1.9798,1.9798,1.9798,1.966,1.9535,1.9748,1.966,1.9535,1.9748,1.9798,1.9798,1.9798,1.9798,1.9798,1.9798,1.9254,1.8583,1.8126,1.7467,1.6677,1.598,1.5801,1.5723,1.5459,1.541,1.541,1.541,1.541,1.541,1.541,1.541,1.541,1.541,1.541,1.5284,1.4932,1.4932,1.4932,1.4932,1.4628,1.4746,1.5352,1.4955,1.4811,1.5166,1.458,1.4277,1.4277,1.3848,1.3633,1.3633,1.3633,1.3972,1.3809,1.422,1.4977,1.5731,1.6531,1.7343,1.8436,1.8982,1.9258,1.9258,1.9547,1.9798,1.9798,1.9798,2.0037,0.0,2.1041,2.1594,2.2874,2.3389,2.3629,2.3841,2.3728,2.3351,2.2623,2.1907,2.1493,2.1493,2.1493,2.1493,2.1493,2.0727,2.0225,2.0062,2.0062,1.9974,1.9798,1.9798,1.9798,1.9798,1.9798,1.9798,1.9798,1.9798,1.9798,1.9798,1.9798,1.9798,1.9798,1.9798,1.9798,1.9798,1.9798,1.9798,1.9798,1.9798,1.9798,1.9823,1.9999,1.9949,1.9823,1.9999,1.9936,1.9798,1.9798,1.9798,1.9798,1.9798,1.9798,1.9798,1.9798,1.9643,1.9512,1.9621,1.8952,1.8259,1.8195,1.755,1.6921,1.6382,1.626,1.6162,1.5859,1.5801,1.5801,1.5801,1.5693,1.5605,1.5605,1.5488,1.541,1.541,1.541,1.541,1.541,1.541,1.541,1.541,1.541,1.541,1.541,1.541,1.541,1.541,1.5,1.4785,1.4785,1.4346,1.4077,1.4077,1.4077,1.4483,1.4248,1.4077,1.454,1.6519,1.701,1.7502,1.9339,1.9798,1.9798,1.9798,1.9798,1.9798,1.9798,1.9798,2.0175,2.1292,2.1945,2.2887,2.4556,2.4795,2.4996,2.5511,2.5121,2.4368,2.3178,2.2133,2.1493,2.1493,2.1493,2.1493,2.1493,2.1481,2.123,2.0731,2.0706,2.0376,1.9811,1.9798,1.9798,1.9798,1.9798,1.9798,1.9798,1.9798,1.9798,1.9798,1.9798,1.9798,1.9798,1.9798,1.9798,1.9798,1.9798,1.9798,1.9798,1.9798,1.9798,1.9886,2.0451,2.0288,1.9899,2.0517,2.0275,1.9798,1.9798,1.9798,1.9798,1.9798,1.9798,1.9798,1.9798,1.9254,1.8845,1.9313,1.8258,1.7298,1.7686,1.7264,1.6728,1.6728,1.6665,1.6665,1.6719,1.6719,1.6719,1.6719,1.6338,1.6115,1.6115,1.5684,1.541,1.541,1.541,1.541,1.541,1.541,1.541,1.541,1.541,1.541,1.541,1.541,1.541,1.541,1.5,1.4785,1.4785,1.4346,1.4077,1.4077,1.4077,1.445,1.4697,1.4785,1.5186,1.604,1.646,1.7071,1.8679,1.9044,1.9202,1.9695,1.9798,1.9798,1.9798,2.0125,2.0878,2.2372,2.3088,2.4042,2.5711,2.6264,2.6276,2.5674,2.4808,2.4117,2.3753,2.305,2.2611,2.2611,2.2611,2.2611,2.2611,2.2611,2.2184,2.1255,2.123,2.0953,2.0401,2.0765,2.0765,2.0401,2.0778,2.0953,2.0953,2.0953,2.0953,2.0953,2.0953,2.074,2.0441,2.0441,2.0441,2.0441,2.0441,2.0627,2.0953,2.0953,2.0953,2.0978,2.1167,2.1104,2.0978,2.1167,2.1104,2.0953,2.0953,2.0413,1.9798,1.9798,1.9798,1.9899,2.0288,1.9829,1.9337,1.9802,1.8759,1.7707,1.8166,1.7728,1.7178,1.7178,1.7178,1.708,1.6787,1.6665,1.6665,1.6665,1.6611,1.6523,1.6523,1.6133,1.5859,1.5859,1.5586,1.541,1.541,1.541,1.541,1.541,1.541,1.541,1.541,1.541,1.541,1.541,1.5283,1.5215,1.5215,1.5078,1.501,1.501,1.5507,1.5677,1.5088,1.5215,1.5555,1.6223,1.6455,1.6963,1.8829,1.8946,1.9047,2.0179,2.0275,2.0188,2.0401,2.074,2.1443,2.2899,2.3791,2.482,2.6319,2.7118,2.7256,2.6339,2.5096,2.4305,2.4305,2.359,2.3078,2.3078,2.3078,2.3078,2.3078,2.3078,2.2824,2.2133,2.1907,2.1531,2.1033,2.1317,2.1317,2.1033,2.133,2.1493,2.1493,2.1493,2.1493,2.1493,2.1493,2.1292,0.0,2.0978,2.0978,2.0978,2.0978,2.1192,2.1493,2.1493,2.1493,2.1518,2.1732,2.1656,2.1518,2.1732,2.1656,2.1493,2.1493,2.0991,2.0439,2.0439,2.0213,2.006,2.0416,1.9684,1.8939,1.9448,1.8599,1.7765,1.8212,1.7929,1.7627,1.7627,1.7627,1.7529,1.7266,1.7217,1.7217,1.7217,1.708,1.6982,1.6982,1.6592,1.6318,1.6318,1.6074,1.5908,1.5908,1.5605,1.541,1.541,1.541,1.541,1.541,1.541,1.541,1.541,1.541,1.541,1.541,1.541,1.5526,1.5806,1.6265,1.6448,0.0,1.543,1.5733,1.6842,1.689,1.7198,1.9599,1.9468,0.0,2.1156,2.1079,2.0903,2.1493,2.1606,2.1995,2.3175,2.428,2.5372,2.6477,2.7482,2.7921,2.7406,2.5887,2.4858,2.482,2.3841,2.3175,2.3078,2.3078,2.3078,2.3078,2.3078,2.3078,2.3078,2.2636,2.2108,2.1556,2.1581,2.1581,2.1543,2.1594,2.1606,2.1606,2.1606,2.1606,2.1606,2.1606,2.1581,2.1543,2.1543,2.1543,2.1543,2.1543,2.1568,2.1606,2.1606,2.1606,2.1681,2.2196,2.2033,2.1694,2.2196,2.202,2.1606,2.1606,2.1556,2.1493,2.1493,2.0949,2.0296,2.0274,1.9097,1.8019,1.8426,1.7981,1.7539,1.793,1.8008,1.8008,1.8008,1.8008,1.8008,1.8008,1.8008,1.8008,1.8008,1.7676,1.7432,1.7432,1.7051,1.6777,1.6777,1.6748,1.6665,1.6665,1.5977,1.5488,1.5459,1.5459,1.5439,1.541,1.541,1.541,1.541,1.541,1.541,1.541,1.541,1.5748,1.6436,1.6436,1.681,1.541,0.0,1.5998,1.6277,1.7011,1.7952,0.0,1.9692,2.0294,2.1319,0.0,2.1594,2.2573,2.2749,2.3389,2.536,2.6251,2.7092,2.8197,2.821,2.8059,2.7921,2.6427,2.5259,2.4858,2.4205,2.3615,2.3103,2.3078,2.3078,2.3078,2.3078,2.3078,2.3078,2.2952,2.2673,2.2121,2.2535,2.2535,2.2121,2.2548,2.2749,2.2749,2.2749,2.2749,2.2749,2.2749,2.251,2.2121,2.2121,2.2121,2.2121,2.2121,2.2372,2.2749,2.2749,2.2749,2.2761,2.2899,2.2862,2.2774,2.2899,2.2862,2.2749,2.2749,2.2159,2.1493,2.1493,2.1369,2.1161,2.0901,2.0026,1.9225,1.9156,1.8502,1.7891,1.7988,1.8008,1.8008,1.8008,1.8008,1.8008,1.8008,1.8008,1.8008,1.8008,1.793,1.7861,1.7861,1.749,1.7227,1.7227,1.6934,1.6665,1.6665,1.648,1.6279,1.5928,1.5908,1.5762,1.542,1.541,1.541,1.541,1.541,1.541,1.541,1.541,1.5468,1.5642,1.5642,1.5748,1.5654,1.6035,1.6416,1.6621,1.751,1.8594,1.9769,0.0,0.0,0.0,0.0,2.2209,2.3326,2.374,2.4469,2.6176,2.713,2.7959,2.88,2.8448,2.8009,2.7758,2.6251,2.5134,2.4845,2.4079,2.3477,2.3103,2.3078,2.3078,2.3078,2.3078,2.3078,2.3078,2.3078,2.2927,2.2686,2.2927,2.2927,2.2686,2.2927,2.3078,2.3078,2.3078,2.3078,2.3078,2.3078,2.2962,2.2686,2.2686,2.2686,2.2686,2.2686,2.2874,2.3078,2.3078,2.3078,2.3078,2.3078,2.3078,2.3078,2.3078,2.3078,2.3078,2.3078,2.2711,2.2246,2.2246,2.1944,2.164,2.1427,2.0489,1.949,1.9302,1.8654,1.8008,1.8008,1.8008,1.8008,1.8008,1.8008,1.8008,1.8008,1.8008,1.8008,1.8008,1.8008,1.8008,1.8008,1.7812,1.7666,1.7666,1.7461,1.7324,1.7324,1.7324,1.7041,1.6406,1.6172,1.6017,1.5723,1.5518,1.541,1.541,1.541,1.541,1.541,1.541,1.5584,1.5921,1.5921,1.6083,1.6025,1.6543,1.7002,1.7305,1.8226,1.9372,2.0764,0.0,0.0,0.0,0.0,0.0,2.4155,2.4757,2.5435,2.654,2.757,2.8398,2.8863,2.8448,2.7896,2.7344,2.5975,2.5008,2.4845,2.3954,2.3265,2.309,2.3078,2.3078,2.3078,2.3078,2.3078,2.3078,2.3078,2.3078,2.3078,2.3078,2.3175,2.3263,2.3263,2.3263,2.3263,2.3263,2.3263,2.3203,2.3115,2.3128,2.3263,2.3115,2.3078,2.3078,2.3078,2.3078,2.3078,2.3078,2.3078,2.3078,2.3078,2.3078,2.3078,2.3078,2.3078,2.3078,2.3078,2.3078,2.3078,2.3078,2.2628,2.2002,2.1753,2.059,1.9431,1.9299,1.8654,1.8008,1.8008,1.8008,1.8008,1.8008,1.8008,1.8008,1.8008,1.8008,1.8008,1.8008,1.8008,1.8008,1.8008,1.8008,1.8008,1.8008,1.8008,1.8008,1.8008,1.8008,1.7705,1.6973,1.6514,1.6262,1.6135,1.5703,1.5478,1.541,1.5547,1.5547,1.541,1.5478,1.576,1.6322,1.6322,1.6641,1.6406,1.7207,1.7744,1.7461,1.9138,2.0753,2.0694,0.0,0.0,0.0,0.0,0.0,2.5787,2.6151,2.6565,2.767,2.8386,2.8837,2.8925,2.8448,2.7896,2.7344,2.6653,2.5837,2.4908,2.4657,2.4167,2.3153,2.3078,2.3078,2.3078,2.3078,2.3078,2.3078,2.3078,2.3078,2.3078,2.3078,2.3376,2.3866,2.3866,2.3866,2.3866,2.3866,2.3866,2.3841,2.3351,2.3414,2.3828,2.3339,2.3078,2.3078,2.3078,2.3078,2.3078,2.3078,2.3078,2.3078,2.3078,2.3078,2.3078,2.3078,2.3078,2.3078,2.3078,2.3078,2.3078,2.3078,2.3017,2.2567,2.1164,2.059,2.0204,1.9497,1.8654,1.8008,1.8008,1.8008,1.8008,1.8008,1.8008,1.8008,1.8008,1.8008,1.8008,1.8008,1.8008,1.8008,1.8008,1.8008,1.8008,1.8008,1.8008,1.8008,1.8008,1.8008,1.7949,1.7822,1.7412,1.6846,1.6154,1.6056,1.5791,1.542,1.6143,1.6162,1.541,1.5781,1.5831,1.5584,1.5584,1.5633,1.6494,1.7491,1.8426,1.8777,2.0454,2.2115,2.2453,0.0,0.0,0.0,0.0,0.0,2.6214,2.6703,2.7369,2.8787,2.8963,2.8825,2.8524,2.8009,2.7457,2.6904,2.6339,2.5686,2.4895,2.4556,2.4029,2.3128,2.3078,2.3078,2.3078,2.3078,2.3078,2.3078,2.3078,2.3288,2.3602,2.3602,2.374,2.4004,2.4305,2.4443,2.4443,2.4443,2.4443,2.4431,2.4155,2.4205,2.4418,2.4155,2.4042,2.4017,2.3715,2.3602,2.3565,2.3251,2.3078,2.3175,2.3489,2.3389,2.3128,2.3502,2.3602,2.3602,2.3602,2.3803,2.3916,2.345,2.3028,2.2609,2.1824,2.1118,2.0511,2.0112,1.9121,1.835,1.835,1.8164,1.8008,1.8008,1.8008,1.8008,1.8008,1.8008,1.8008,1.8008,1.8008,1.8008,1.8008,1.8008,1.8008,1.8008,1.8008,1.8008,1.8008,1.8008,1.791,1.7686,1.749,1.709,1.6445,1.6426,1.6328,1.6133,1.6523,1.6533,1.6123,1.6328,1.6318,1.6123,1.6123,1.6123,1.6621,1.7731,1.8912,2.0226,0.0,2.2925,2.3942,0.0,0.0,0.0,0.0,2.5661,2.6502,2.7105,2.7946,2.9365,2.9214,2.8737,2.8185,2.7632,2.708,2.6596,2.595,2.5385,2.487,2.4318,2.3753,2.3175,2.3078,2.3078,2.3078,2.3078,2.3128,2.3339,2.3339,2.3615,2.4192,2.4305,2.4368,2.4381,2.4808,2.5008,2.5008,2.5008,2.5008,2.4996,2.487,2.4895,2.4996,2.487,2.482,2.4782,2.4356,2.4192,2.4142,2.369,2.3466,2.359,2.4042,2.3904,2.3541,2.3778,2.3991,2.4117,2.3649,2.3931,2.4263,2.3368,2.2678,2.2223,2.2383,2.1699,2.0875,2.0673,1.9646,1.8789,1.8789,1.8535,1.8311,1.8311,1.8311,1.8311,1.8311,1.8311,1.8311,1.8311,1.8223,1.8154,1.8154,1.8076,1.8008,1.8008,1.8008,1.8008,1.8008,1.8008,1.7871,1.7549,1.7441,1.7236,1.6894,1.6885,1.6836,1.6665,1.6934,1.687,1.6665,1.6836,1.6836,1.6665,1.6665,1.6665,1.6982,1.7975,1.9115,2.1294,0.0,0.0,2.4026,2.4566,0.0,2.6791,0.0,0.0,2.7205,2.767,2.8247,2.8888,2.895,2.8737,2.8185,2.7632,2.708,2.6596,2.595,2.5385,2.487,2.4318,2.3753,2.3175,2.3078,2.3078,2.3078,2.3078,2.3389,2.3916,2.3941,2.4205,2.4757,2.5234,2.5473,2.5485,2.5523,2.5536,2.5536,2.5536,2.5536,2.5511,2.5034,2.5096,2.5498,2.5021,2.482,2.482,2.4782,2.4757,2.4757,2.4707,2.4707,2.4707,2.4745,2.4732,2.4501,2.3628,2.3993,2.4422,2.2626,2.2705,2.3211,2.2252,2.1648,2.1424,2.1896,2.1945,2.1702,2.0804,1.9889,1.9238,1.9238,1.9219,1.9199,1.9199,1.9199,1.9199,1.9199,1.9199,1.9199,1.9199,1.8848,1.8594,1.8594,1.8252,1.8008,1.8008,1.8008,1.8008,1.8008,1.8008,1.7998,1.7969,1.7598,1.7373,1.7334,1.7334,1.7148,1.6738,1.751,1.7529,1.6665,1.7139,1.7129,1.6665,1.6665,1.6665,1.7348,1.8902,2.0504,2.244,0.0,0.0,0.0,0.0,2.6628,2.7595,2.7795,0.0,2.7795,2.8247,2.8574,2.8436,2.8411,2.8222,2.767,2.7118,2.676,2.6546,2.6264,2.5787,2.4908,2.4632,2.413,2.314,2.3078,2.3078,2.3078,2.3078,2.3401,2.3979,2.4004,2.4418,2.5297,2.5498,2.5774,2.6138,2.6138,2.6138,2.6138,2.6138,2.6138,2.6126,2.5925,2.595,2.6113,2.5925,2.5837,2.5799,2.5435,2.5109,2.482,2.482,2.482,2.487,2.5197,2.5096,2.4806,2.4764,2.5021,2.5021,2.3706,2.3792,2.412,2.318,2.2739,2.2469,2.1704,2.1303,2.1015,2.0662,2.0163,1.9678,1.9678,1.9473,1.9287,1.9287,1.9287,1.9287,1.9287,1.9287,1.9287,1.9287,1.915,1.8945,1.8672,1.8496,1.8301,1.8037,1.8008,1.8008,1.8008,1.8008,1.8008,1.8008,1.7861,1.7773,1.7773,1.7773,1.7695,1.7529,1.7842,1.7852,1.7529,1.7695,1.7686,1.7529,1.8092,1.8026,1.7882,1.9691,2.1684,0.0,0.0,0.0,0.0,2.713,2.7494,2.821,2.8235,2.816,2.8335,2.8386,2.8348,2.8134,2.7959,2.7708,2.7331,2.6804,2.6533,2.6533,2.6302,2.5824,2.4908,2.4669,2.4167,2.314,2.3078,2.3078,2.3078,2.3314,2.3665,2.4243,2.4418,2.4946,2.5862,2.5875,2.6063,2.6533,2.6533,2.6533,2.6533,2.6533,2.6533,2.6533,2.6533,2.6533,2.6533,2.6533,2.6533,2.6483,2.6025,2.5649,2.5335,2.5335,2.5335,2.5385,2.5749,2.5636,2.5331,2.54,2.566,2.566,2.4388,2.4213,2.4337,2.3294,2.2776,2.2339,2.1288,2.0999,2.0934,2.0634,2.0332,2.0117,2.0117,1.9893,1.9687,1.9687,1.9687,1.9687,1.9687,1.9687,1.9687,1.9687,1.957,1.9375,1.9082,1.8926,1.8682,1.8252,1.8086,1.8057,1.8193,1.8213,1.8271,1.8408,1.8281,1.8144,1.8018,1.8008,1.8008,1.8008,1.8008,1.8008,1.8008,1.8008,1.8008,1.8008,1.8596,1.8721,1.8562,2.0375,2.2372,0.0,0.0,0.0,2.7708,2.767,2.7607,2.8699,2.8486,2.826,2.8812,2.8021,2.7457,2.7996,2.7632,2.7281,2.7268,2.6804,2.6533,2.6533,2.595,2.5398,2.487,2.433,2.3766,2.3175,2.3078,2.3078,2.3078,2.369,2.4255,2.4808,2.5322,2.5875,2.6521,2.6533,2.6533,2.6533,2.6533,2.6533,2.6533,2.6533,2.6533,2.6533,2.6533,2.6533,2.6533,2.6533,2.6533,2.6533,2.6533,2.6533,2.6533,2.6533,2.6533,2.6533,2.6533,2.6533,2.6314,2.537,2.5664,2.6164,2.4108,2.3514,2.3294,2.2253,2.1298,2.0566,2.0566,2.1298,2.1735,2.0779,2.0566,2.0566,2.0566,2.0566,2.0566,2.0566,2.0566,2.0566,2.0566,2.0566,2.0566,2.0566,2.0195,1.9922,1.9912,1.9551,1.9121,1.8691,1.8271,1.8193,1.8533,1.8643,1.8828,1.9258,1.8877,1.8457,1.8037,1.8008,1.8008,1.8008,1.8008,1.8008,1.8008,1.8008,1.8008,1.8008,1.8008,1.8462,1.9545,2.1254,2.2935,2.4341,0.0,0.0,0.0,2.7419,0.0,0.0,2.7908,2.7582,2.7745,2.7507,2.7205,2.6979,2.713,2.7155,2.6753,2.6634,2.6533,2.6533,2.637,2.5837,2.4908,2.4669,2.418,2.3153,2.3514,2.374,2.374,2.4268,2.482,2.5347,2.5523,2.5875,2.6521,2.6533,2.6533,2.6533,2.6533,2.6533,2.6533,2.6533,2.6533,2.6533,2.6533,2.6533,2.6533,2.6533,2.6533,2.6533,2.6533,2.6533,2.6533,2.6533,2.6533,2.6533,2.6533,2.6533,2.6465,2.6164,2.6245,2.6233,2.4921,2.4047,2.3294,2.2253,2.1298,2.0566,2.0566,2.0789,2.0934,2.0634,2.0566,2.0566,2.0566,2.0566,2.0566,2.0566,2.0566,2.0566,2.0566,2.0566,2.0566,2.0566,2.0449,2.0264,1.9951,1.9551,1.9238,1.9111,1.8984,1.8965,1.9082,1.9092,1.915,1.9277,1.916,1.8896,1.8467,1.8164,1.8008,1.8008,1.8008,1.8008,1.8008,1.8008,1.8008,1.8008,1.8654,1.8721,2.0996,2.2674,2.4251,2.5465,2.6377,2.6929,2.6816,0.0,2.7846,2.8059,2.767,2.7356,2.757,2.7256,2.6917,2.6804,2.6879,2.6841,2.6584,2.6533,2.6533,2.6533,2.6533,2.6025,2.4921,2.482,2.4356,2.3165,2.3269,2.359,2.3991,2.3969,2.4304,2.5038,2.4893,2.4939,2.5276,2.5276,2.5276,2.5276,2.5276,2.5276,2.5358,2.6164,2.6533,2.6533,2.6533,2.6533,2.6533,2.6533,2.6533,2.6533,2.6533,2.6533,2.6533,2.6533,2.6533,2.6533,2.6533,2.6533,2.6533,2.6533,2.6533,2.6383,2.5804,2.4921,2.3891,2.285,2.1886,2.1078,2.0712,2.0566,2.0566,2.0566,2.0566,2.0566,2.0566,2.0566,2.0566,2.0566,2.0566,2.0566,2.0566,2.0566,2.0566,2.0566,2.0566,2.0469,2.0205,1.9795,1.9541,1.9541,1.9385,1.9355,1.9521,1.9541,1.9609,1.9785,1.9629,1.9424,1.915,1.874,1.8516,1.8516,1.835,1.8262,1.8262,1.8086,1.8008,1.8008,1.8529,1.8721,2.2621,2.4168,2.5724,2.6841,2.6791,2.6603,2.7155,2.7243,2.7356,2.7846,2.7557,2.7369,2.7858,2.713,2.6697,2.713,2.6791,2.6533,2.6533,2.6533,2.6533,2.6533,2.6533,2.605,2.4996,2.4895,2.4443,2.3315,2.2941,2.3192,2.4079,2.3461,2.3501,2.4372,2.4022,2.3734,2.3734,2.3734,2.3734,2.3734,2.3672,2.3672,2.3672,2.5499,2.6383,2.6533,2.6533,2.6533,2.6533,2.6533,2.6533,2.6533,2.6533,2.6533,2.6533,2.6533,2.6452,2.6383,2.6383,2.6314,2.6233,2.6233,2.6233,2.6233,2.6314,2.5652,2.4707,2.3891,2.285,2.1811,2.0934,2.0634,2.0566,2.0566,2.0566,2.0566,2.0566,2.0566,2.0566,2.0566,2.0566,2.0566,2.0566,2.0566,2.0566,2.0566,2.0566,2.0566,2.0566,2.0215,1.9971,1.9971,1.9629,1.9561,1.9941,1.9971,2.0146,2.0537,2.0195,1.9971,1.9971,1.9531,1.9287,1.9287,1.8896,1.8691,1.8691,1.8271,1.8086,1.8125,1.8047,1.8414,2.2677,2.3692,2.4607,2.5686,2.6214,2.6603,2.7155,2.6942,2.6666,2.6791,2.6716,2.6747,2.6791,2.6684,2.6571,2.6615,2.6609,2.6533,2.6533,2.6533,2.6533,2.6533,2.6533,2.6189,2.5498,2.5435,2.5159,2.4506,2.4738,2.5037,2.5247,2.5549,2.577,2.599,2.5881,2.5861,2.5861,2.5861,2.5861,2.5873,2.5075,2.4707,2.4707,2.5146,2.5734,2.6533,2.6533,2.6533,2.6533,2.6533,2.6533,2.6533,2.6533,2.6533,2.6533,2.6533,2.6025,2.53,2.53,2.4779,2.4181,2.4181,2.4181,2.4325,2.5075,2.4624,2.3963,2.4492,2.3368,2.1952,2.1735,2.1155,2.0566,2.0566,2.0566,2.0566,2.0566,2.0566,2.0566,2.0566,2.0566,2.0566,2.0566,2.0566,2.0566,2.0566,2.0566,2.0566,2.0566,2.0478,2.042,2.042,2.0342,2.0332,2.042,2.042,2.0469,2.0557,2.0478,2.042,2.042,1.9697,1.9287,1.9287,1.9189,1.915,1.915,1.8711,1.8682,1.8994,1.832,1.8252,2.3192,2.4142,2.4971,2.5799,2.6239,2.6596,2.6816,2.6666,2.6533,2.6533,2.6533,2.6533,2.6533,2.6533,2.6533,2.6533,2.6533,2.6533,2.6533,2.6533,2.6533,2.6533,2.6533,2.6239,2.5649,2.5598,2.5385,2.4858,2.49,2.5117,2.5598,2.5265,2.5276,2.5734,2.5288,2.5063,2.5063,2.5063,2.5063,2.5063,2.4552,2.4564,2.5004,2.448,2.4552,2.5063,2.5063,2.5358,2.5804,2.5804,2.6094,2.6533,2.6533,2.6533,2.6533,2.6533,2.6164,2.5664,2.5158,2.4636,2.4108,2.3672,2.3514,2.3588,2.4108,2.3891,2.3514,2.3526,2.2776,2.1886,2.1451,2.0934,2.0566,2.0566,2.0566,2.0566,2.0566,2.0566,2.0566,2.0566,2.0566,2.0566,2.0566,2.0566,2.0566,2.0566,2.0566,2.0566,2.0566,2.0566,2.0566,2.0566,2.0566,2.0566,2.0566,2.0566,2.0566,2.0566,2.0566,2.0566,2.0566,2.0137,1.9893,1.9893,1.9697,1.959,1.959,1.916,1.9062,1.9277,1.8828,1.874,2.3427,2.4569,2.5624,2.6302,2.6533,2.6533,2.6533,2.6533,2.6533,2.6533,2.6533,2.6533,2.6533,2.6533,2.6533,2.6533,2.6533,2.6533,2.6533,2.6533,2.6533,2.6533,2.6533,2.6264,2.5787,2.5749,2.5573,2.5146,2.4762,2.4925,2.5682,2.4661,2.4397,2.5229,2.448,2.4036,2.4036,2.4036,2.4036,2.4036,2.3818,2.4108,2.4707,2.3891,2.3588,2.3745,2.3599,2.3963,2.4707,2.4707,2.5217,2.6013,2.6013,2.6013,2.6013,2.6013,2.5861,2.5569,2.4779,2.442,2.412,2.3294,2.301,2.2999,2.322,2.322,2.3073,2.2478,2.2103,2.1811,2.1001,2.0771,2.0684,2.0684,2.0742,2.0752,2.0596,2.0566,2.0566,2.0566,2.0566,2.0566,2.0566,2.0566,2.0566,2.0566,2.0566,2.0566,2.0566,2.0566,2.0566,2.0566,2.0566,2.0566,2.0566,2.0566,2.0566,2.0566,2.0566,2.0566,2.0566,2.0566,2.0566,2.0566,2.0215,2.0029,2.0029,1.96,1.9434,1.9502,1.9355,1.9326,2.2372,2.3703,2.5172,2.6201,2.6533,2.6533,2.6533,2.6533,2.6533,2.6533,2.6533,2.6533,2.6533,2.6533,2.6533,2.6533,2.6533,2.6533,2.6533,2.6533,2.6533,2.6533,2.6533,2.6496,2.642,2.6352,2.6382,2.6251,2.6233,2.6271,2.6339,2.6195,2.6164,2.6314,2.6164,2.6094,2.6094,2.6094,2.6094,2.6094,2.5217,2.4409,2.3672,2.3588,2.3963,2.4719,2.3891,2.3599,2.3672,2.3672,2.3818,2.3879,2.3879,2.3879,2.3879,2.3879,2.3368,2.2542,2.2478,2.1886,2.1165,2.1011,2.1011,2.1155,2.1962,2.2178,2.2328,2.3073,2.2702,2.1952,2.1886,2.1446,2.1143,2.1143,2.1435,2.1504,2.0732,2.0566,2.0566,2.0566,2.0566,2.0566,2.0566,2.0566,2.0566,2.0566,2.0566,2.0566,2.0566,2.0566,2.0566,2.0566,2.0566,2.0566,2.0566,2.0566,2.0566,2.0566,2.0566,2.0566,2.0566,2.0566,2.0566,2.0566,2.0508,2.0478,2.0478,2.0039,2.0019,2.0381,1.9639,1.9482,2.2849,2.4243,2.5523,2.664,2.6691,2.6609,2.6854,2.6747,2.6533,2.6533,2.6533,2.6533,2.6533,2.6533,2.6533,2.6533,2.6533,2.6533,2.6533,2.6533,2.6533,2.6533,2.6533,2.6533,2.6533,2.6533,2.6533,2.6533,2.6533,2.6533,2.6533,2.6533,2.6533,2.6533,2.6533,2.6533,2.6533,2.6533,2.6533,2.6452,2.6025,2.5581,2.5134,2.4624,2.3963,2.3294,2.285,2.2627,2.2627,2.2627,2.2999,2.3514,2.3514,2.3514,2.3514,2.3514,2.322,2.2776,2.2178,2.1735,2.1298,2.0789,2.0566,2.0712,2.1078,2.1231,2.1298,2.1745,2.1712,2.1537,2.1537,2.157,2.1602,2.1602,2.1748,2.1777,2.1387,2.1113,2.0937,2.0937,2.1143,2.1309,2.1309,2.1103,2.1025,2.1269,2.1094,2.1025,2.1279,2.1309,2.1309,2.1309,2.1309,2.1309,2.1309,2.1084,2.0937,2.0937,2.0703,2.0566,2.0566,2.0566,2.0566,2.0566,2.0566,2.0566,2.0566,2.0371,2.0381,2.0557,2.0176,2.0107,2.3175,2.4368,2.531,2.6716,2.6866,2.6816,2.7369,2.7168,2.6879,2.6879,2.6766,2.6666,2.6666,2.6622,2.6533,2.6533,2.6533,2.6533,2.6533,2.6533,2.6533,2.6533,2.6533,2.6383,2.6164,2.6094,2.6013,2.5791,2.5943,2.6013,2.5721,2.6233,2.6383,2.6094,2.6094,2.6245,2.6533,2.6245,2.6025,2.5721,2.6013,2.6094,2.6094,2.5594,2.4253,2.2403,2.2103,2.1886,2.1659,2.1659,2.2113,2.2787,2.2787,2.2787,2.2787,2.2787,2.2787,2.2638,2.1886,2.1741,2.1691,2.0957,2.081,2.0898,2.0898,2.0898,2.0898,2.0898,2.1143,2.1396,2.1396,2.1719,2.2041,2.2041,2.2129,2.2148,2.1934,2.1631,2.1396,2.1396,2.166,2.1885,2.1885,2.1611,2.1514,2.1836,2.1611,2.1514,2.1846,2.1885,2.1885,2.1885,2.1885,2.1885,2.1885,2.1592,2.1396,2.1396,2.0977,2.0732,2.0732,2.0625,2.0566,2.0566,2.0566,2.0566,2.0566,2.0566,2.0566,2.0566,2.0566,2.0566,2.2573,2.3165,2.3778,2.5963,2.6866,2.7381,2.7946,2.8047,2.8021,2.8021,2.7607,2.7243,2.7243,2.6816,2.6533,2.6533,2.6533,2.6533,2.6533,2.6533,2.6533,2.6533,2.6533,2.6094,2.5146,2.5075,2.4707,2.3734,2.4552,2.4636,2.3745,2.5429,2.6094,2.5087,2.5075,2.5523,2.6465,2.5581,2.4636,2.3661,2.4636,2.5075,2.5087,2.6025,2.5346,2.3368,2.2403,2.1517,2.0634,2.0634,2.0712,2.0712,2.0712,2.0712,2.0712,2.0712,2.0712,2.0712,2.0722,2.0918,2.1191,2.1201,2.1484,2.1816,2.1816,2.1816,2.1816,2.1816,2.1836,2.1846,2.1846,2.2168,2.248,2.248,2.2783,2.2852,2.206,2.1865,2.1846,2.1846,2.1865,2.1885,2.1885,2.1865,2.1865,2.1885,2.1865,2.1865,2.1885,2.1885,2.1885,2.1885,2.1885,2.1885,2.1885,2.1865,2.1846,2.1846,2.1445,2.1201,2.1201,2.0791,2.0566,2.0566,2.0566,2.0566,2.0566,2.0566,2.0566,2.0566,2.0566,2.0566,2.187,2.2874,2.4042,2.5536,2.6339,2.6992,2.7896,2.8109,2.8109,2.8109,2.767,2.7281,2.7281,2.6829,2.6533,2.6533,2.6533,2.6533,2.6533,2.6533,2.6245,2.5581,2.5523,2.5146,2.4108,2.4036,2.3891,2.3514,2.3818,2.3891,2.3514,2.4181,2.4397,2.4036,2.4036,2.4181,2.4541,2.4181,2.3891,2.3514,2.3891,2.4036,2.4036,2.5075,2.4779,2.3514,2.3818,2.2999,2.1517,2.2188,2.2113,2.1517,2.1517,2.1155,2.0566,2.0566,2.0566,2.0566,2.0566,2.0859,2.123,2.123,2.1533,2.1885,2.1885,2.1885,2.1885,2.1885,2.208,2.2295,2.2295,2.2598,2.292,2.292,2.3027,2.3057,2.2754,2.2685,2.2607,2.2344,2.251,2.2685,2.2685,2.2471,2.2383,2.2646,2.2461,2.2383,2.2656,2.2685,2.2685,2.2685,2.2685,2.2685,2.2685,2.2441,2.2295,2.2295,2.1885,2.1523,2.125,2.1074,2.0859,2.0576,2.0566,2.0566,2.0566,2.0566,2.0566,2.0566,2.0566,2.0566,2.0519,2.1746,2.3206,2.4183,2.4901,2.5819,2.7496,2.7767,2.789,2.8512,2.8222,2.777,2.7595,2.7105,2.6747,2.6559,2.6533,2.6533,2.6533,2.6533,2.6094,2.5158,2.5004,2.448,2.3147,2.2999,2.285,2.2563,2.285,2.285,2.2563,2.3147,2.3368,2.2999,2.3294,2.3231,2.2563,2.285,2.285,2.2563,2.285,2.2999,2.2999,2.4036,2.3963,2.3073,2.4047,2.3745,2.2553,2.322,2.2925,2.2027,2.2027,2.1451,2.0566,2.0566,2.0566,2.0586,2.0732,2.1084,2.1475,2.1621,2.1953,2.2305,2.2305,2.2305,2.2305,2.2305,2.251,2.2725,2.2725,2.293,2.3135,2.3135,2.3135,2.3135,2.3135,2.3135,2.3057,2.2773,2.2949,2.3135,2.3135,2.291,2.2822,2.3096,2.29,2.2822,2.3105,2.3135,2.3135,2.3135,2.3135,2.3135,2.3135,2.2881,2.2725,2.2725,2.2324,2.1904,2.1475,2.1309,2.1025,2.0576,2.0566,2.0566,2.0566,2.0566,2.0566,2.0566,2.0566,2.0566,0.0,0.0,0.0,2.1991,2.2592,2.3844,2.6712,2.7036,2.7291,2.9285,2.9226,2.8662,2.8149,2.7598,2.7059,2.6521,2.649,2.6477,2.6452,2.6465,2.6107,2.5004,2.4933,2.4192,2.2178,2.1952,2.1593,2.0634,2.1441,2.1593,2.0644,2.2414,2.2999,2.1952,2.2925,2.2489,2.0644,2.1517,2.1517,2.0644,2.1517,2.1952,2.1952,2.2999,2.2925,2.2027,2.3073,2.3514,2.3514,2.3514,2.2925,2.2027,2.2027,2.1451,2.0566,2.0566,2.0566,2.0635,2.1074,2.1523,2.1953,2.2373,2.2793,2.3135,2.3135,2.3135,2.3135,2.3135,2.3135,2.3135,2.3135,2.3135,2.3135,2.3135,2.3135,2.3135,2.3135,2.3135,2.3135,2.3135,2.3135,2.3135,2.3135,2.3135,2.3135,2.3135,2.3135,2.3135,2.3135,2.3135,2.3135,2.3135,2.3135,2.3135,2.3135,2.3135,2.3135,2.3135,2.2744,2.2324,2.1904,2.1465,2.1025,2.0576,2.0566,2.0566,2.0566,2.0566,2.0566,2.0566,2.0566,2.0566,1.8497,0.0,0.0,0.0,0.0,0.0,2.4379,2.4975,2.5716,2.7734,2.7055,2.6364,2.7368,2.6441,2.5424,2.5286,2.6324,2.6694,2.5572,2.6359,2.6007,2.318,2.3441,2.3147,2.1155,2.1011,2.0857,2.0644,2.0867,2.0857,2.0644,2.1088,2.1308,2.1011,2.1231,2.1155,2.0644,2.0867,2.0867,2.0566,2.0857,2.1011,2.1011,2.1962,2.2253,2.2027,2.3073,2.3514,2.3514,2.3514,2.2925,2.2027,2.2027,2.1451,2.0566,2.0566,2.0566,2.0635,2.1074,2.1523,2.1953,2.2373,2.2793,2.3135,2.3135,2.3135,2.3135,2.3135,2.3135,2.3135,2.3135,2.3135,2.3135,2.3135,2.3135,2.3135,2.3135,2.3135,2.3135,2.3135,2.3135,2.3135,2.3135,2.3135,2.3135,2.3135,2.3135,2.3135,2.3135,2.3135,2.3135,2.3135,2.3135,2.3135,2.3135,2.3135,2.3135,2.3135,2.2744,2.2324,2.1904,2.1465,2.1025,2.0576,2.0566,2.0566,2.0566,2.0566,2.0566,2.0566,2.0566,2.0566,0.0,0.0,0.0,1.9562,0.0,0.0,2.2673,2.3213,2.3899,2.6128,2.5753,2.5317,2.6147,2.5574,2.4837,2.4826,2.5838,2.6229,2.5043,2.5675,2.535,2.2868,2.3056,2.2762,2.1007,2.084,2.0762,2.0576,2.0566,2.0566,2.0566,2.0566,2.0566,2.0566,2.0566,2.0566,2.0566,2.0566,2.0566,2.0566,2.0566,2.0566,2.0644,2.1155,2.1451,2.1451,2.2038,2.2264,2.2264,2.2264,2.2188,2.2027,2.2027,2.1451,2.0566,2.0566,2.0566,2.0654,2.1289,2.167,2.1982,2.2578,2.2939,2.3135,2.3135,2.3135,2.3135,2.3135,2.3135,2.3135,2.3135,2.3135,2.3135,2.3135,2.3135,2.3135,2.3135,2.3135,2.3135,2.3135,2.3135,2.3135,2.3135,2.3135,2.3135,2.3135,2.3135,2.3135,2.3135,2.3135,2.3135,2.3135,2.3135,2.3135,2.3135,2.3135,2.3135,2.3135,2.291,2.251,2.1904,2.1807,2.1387,2.0576,2.0752,2.0752,2.0566,2.0566,2.0566,2.0566,2.0566,2.0566,1.6987,1.7861,0.0,1.8144,1.8359,0.0,2.1333,2.1544,2.2029,2.4336,2.4692,2.4637,2.4737,2.4681,2.4547,2.4513,2.4919,2.5143,2.4657,2.4792,2.4489,2.3252,2.3252,2.2785,2.1418,2.126,2.1064,2.0674,2.0596,2.0566,2.0566,2.0566,2.0566,2.0566,2.0566,2.0566,2.0566,2.0566,2.0566,2.0566,2.0566,2.0566,2.0566,2.0566,2.0566,2.0566,2.0566,2.0566,2.0566,2.0566,2.1078,2.1811,2.1811,2.1298,2.0566,2.0566,2.0596,2.0762,2.1602,2.1914,2.209,2.2881,2.3135,2.3135,2.3135,2.3135,2.3135,2.3135,2.3135,2.3135,2.3135,2.3135,2.3135,2.3135,2.3135,2.3135,2.3135,2.3135,2.3135,2.3135,2.3135,2.3135,2.3135,2.3135,2.3135,2.3135,2.3135,2.3135,2.3135,2.3135,2.3135,2.3135,2.3135,2.3135,2.3135,2.3135,2.3135,2.3135,2.3096,2.2734,2.1992,2.2266,2.1875,2.0664,2.0986,2.0967,2.0566,2.0566,2.0566,2.0566,2.0566,2.0566,1.7321,1.8006,1.8557,1.8096,1.8594,0.0,1.931,1.9499,2.0222,2.1934,2.1551,2.14,2.3051,2.2584,2.209,2.2371,2.2792,2.3235,2.3556,2.4683,2.4632,2.2471,2.2869,2.2909,2.184,2.1445,2.1201,2.1113,2.0771,2.0566,2.0566,2.0566,2.0566,2.0566,2.0566,2.0566,2.0566,2.0566,2.0566,2.0566,2.0566,2.0566,2.0566,2.0566,2.0566,2.0566,2.0566,2.0566,2.0566,2.0566,2.0712,2.0857,2.0857,2.0789,2.0566,2.0566,2.0791,2.1182,2.1709,2.2109,2.2471,2.2969,2.3135,2.3135,2.3135,2.3135,2.3135,2.3135,2.3135,2.3135,2.3135,2.3135,2.3135,2.3135,2.3135,2.3135,2.3135,2.3135,2.3135,2.3135,2.3135,2.3135,2.3135,2.3135,2.3135,2.3135,2.3135,2.3135,2.3135,2.3135,2.3135,2.3135,2.3135,2.3135,2.3135,2.3135,2.3135,2.3135,2.2822,2.2568,2.2402,2.2139,2.1728,2.1123,2.083,2.0654,2.0566,2.0566,2.0566,2.0566,2.0566,2.0566,1.7695,1.832,1.8857,1.8428,1.8809,0.0,0.0,1.9287,1.961,2.0842,2.0436,2.0259,2.1521,2.1093,2.0791,2.1455,2.1924,2.2276,2.2594,2.3619,2.3875,2.2614,2.2894,2.2972,2.2301,2.2002,2.1787,2.1572,2.1348,2.1133,2.0908,2.0898,2.0791,2.0576,2.0566,2.0566,2.0566,2.0566,2.0566,2.0566,2.0566,2.0566,2.0566,2.0566,2.0566,2.0566,2.0566,2.0566,2.0566,2.0566,2.0566,2.0566,2.0566,2.0566,2.0566,2.0566,2.0713,2.0967,2.1406,2.1846,2.2266,2.2685,2.2969,2.3135,2.3135,2.3135,2.3135,2.3135,2.3135,2.3135,2.3135,2.3135,2.3135,2.3135,2.3135,2.3135,2.3135,2.3135,2.3135,2.3135,2.3135,2.3135,2.3135,2.3135,2.3135,2.3135,2.3135,2.3135,2.3135,2.3135,2.3135,2.3135,2.3135,2.3135,2.3135,2.3135,2.3135,2.3135,2.2939,2.2734,2.2519,2.251,2.2305,2.1885,2.123,2.0898,2.0898,2.0674,2.0566,2.0566,2.0566,2.0566,1.8008,1.8633,1.916,1.8643,1.8965,1.9453,0.0,0.0,0.0,2.0068,1.9912,1.9775,2.0127,1.9912,1.9932,2.0732,2.1289,2.1631,2.1631,2.2363,2.293,2.3008,2.3086,2.3008,2.2666,2.249,2.2246,2.1904,2.1807,2.1641,2.1377,2.1279,2.1064,2.0703,2.0605,2.0566,2.0566,2.0566,2.0566,2.0566,2.0566,2.0566,2.0566,2.0566,2.0566,2.0566,2.0566,2.0566,2.0566,2.0566,2.0566,2.0566,2.0566,2.0566,2.0566,2.0566,2.0625,2.0742,2.1103,2.1572,2.206,2.2402,2.2793,2.3135,2.3135,2.3135,2.3135,2.3135,2.3135,2.3135,2.3135,2.3135,2.3135,2.3135,2.3135,2.3135,2.3135,2.3135,2.3135,2.3135,2.3135,2.3135,2.3135,2.3135,2.3135,2.3135,2.3135,2.3135,2.3135,2.3135,2.3135,2.3135,2.3135,2.3135,2.3135,2.3135,2.3135,2.3135,2.3135,2.2988,2.2646,2.2881,2.2861,2.2519,2.1748,2.1318,2.123,2.0869,2.0654,2.0566,2.0566,2.0566,1.8008,1.8633,1.9092,1.8281,1.8965,1.9658,1.8945,0.0,1.9209,1.8916,0.0,1.8728,1.8848,0.0,0.0,1.9424,2.0185,2.0713,2.0713,2.1475,2.2168,2.2539,2.291,2.3125,2.3076,2.2393,2.1934,2.1894,2.1523,2.1455,2.1787,2.1445,2.1211,2.1162,2.0771,2.0566,2.0566,2.0566,2.0566,2.0566,2.0566,2.0566,2.0566,2.0566,2.0566,2.0566,2.0566,2.0566,2.0566,2.0566,2.0566,2.0566,2.0566,2.0566,2.0566,2.0566,2.082,2.1172,2.1221,2.1768,2.2451,2.25,2.2793,2.3135,2.3135,2.3135,2.3135,2.3135,2.3135,2.3135,2.3135,2.3135,2.3135,2.3135,2.3135,2.3135,2.3135,2.3135,2.3135,2.3135,2.3135,2.3135,2.3135,2.3135,2.3135,2.3135,2.3135,2.3135,2.3135,2.3135,2.3135,2.3135,2.3135,2.3135,2.3135,2.3135,2.3135,2.3135,2.3135,2.3115,2.3066,2.2754,2.2568,2.251,2.2051,2.1621,2.123,2.1182,2.0957,2.0566,2.0566,2.0566,1.8008,1.8447,1.8818,1.8467,1.8779,1.9141,1.9043,1.8965,1.8936,1.8994,0.0,0.0,0.0,0.0,0.0,0.0,1.9795,2.0185,2.0185,2.0947,2.167,2.21,2.2305,2.251,2.2754,2.2461,2.2353,2.2598,2.2217,2.2051,2.2236,2.207,2.1748,2.125,2.1055,2.083,2.0566,2.0566,2.0566,2.0566,2.0566,2.0566,2.0566,2.0566,2.0566,2.0566,2.0566,2.0566,2.0566,2.0566,2.0566,2.0566,2.0566,2.0566,2.0566,2.0566,2.0684,2.084,2.084,2.125,2.1855,2.2353,2.2793,2.3135,2.3135,2.3135,2.3135,2.3135,2.3135,2.3135,2.3135,2.3135,2.3135,2.3135,2.3135,2.3135,2.3135,2.3135,2.3135,2.3135,2.3135,2.3135,2.3135,2.3135,2.3135,2.3135,2.3135,2.3135,2.3135,2.3135,2.3135,2.3135,2.3135,2.3135,2.3135,2.3135,2.3135,2.3135,2.3135,2.3027,2.2783,2.2607,2.2402,2.2158,2.1982,2.1797,2.1611,2.1611,2.1387,2.0947,2.0684,2.0566,1.8008,1.832,1.8533,1.8496,1.8555,1.8721,1.9043,1.8955,1.8906,1.9219,1.9121,0.0,0.0,0.0,1.8877,1.9072,0.0,1.9873,1.9756,2.04,2.1035,2.1475,2.1738,2.2002,2.2314,2.2236,2.2383,2.293,2.2578,2.2441,2.2676,2.2578,2.2227,2.1611,2.1357,2.1074,2.0752,2.0625,2.0566,2.0566,2.0566,2.0566,2.0566,2.0566,2.0566,2.0566,2.0566,2.0566,2.0566,2.0566,2.0566,2.0566,2.0566,2.0566,2.0566,2.0566,2.0566,2.0566,2.0566,2.0937,2.1533,2.2275,2.2793,2.3135,2.3135,2.3135,2.3135,2.3135,2.3135,2.3135,2.3135,2.3135,2.3135,2.3135,2.3135,2.3135,2.3135,2.3135,2.3135,2.3135,2.3135,2.3135,2.3135,2.3135,2.3135,2.3135,2.3135,2.3135,2.3135,2.3135,2.3135,2.3135,2.3135,2.3135,2.3135,2.3135,2.3135,2.3135,2.3135,2.2949,2.2529,2.251,2.2314,2.1894,2.1885,2.1826,2.1709,2.1709,2.1484,2.1045,2.084,2.0684,1.8008,1.832,1.8545,1.8135,1.833,1.8572,1.8652,1.8975,1.9268,1.9287,1.96,1.9746,1.9346,1.9268,1.9131,0.0,1.9365,0.0,0.0,1.9678,2.0117,2.0557,2.1367,2.1894,2.1904,2.1523,2.1621,2.2471,2.2139,2.2266,2.3076,2.2734,2.25,2.2471,2.167,2.123,2.1211,2.0781,2.0566,2.0566,2.0566,2.0566,2.0566,2.0566,2.0566,2.0566,2.0566,2.0566,2.0566,2.0566,2.0566,2.0566,2.0566,2.0566,2.0566,2.0566,2.0566,2.0566,2.0566,2.1133,2.1934,2.2373,2.2793,2.3135,2.3135,2.3135,2.3135,2.3135,2.3135,2.3135,2.3135,2.3135,2.3135,2.3135,2.3135,2.3135,2.3135,2.3135,2.3135,2.3135,2.3135,2.3135,2.3135,2.3135,2.3135,2.3135,2.3135,2.3135,2.3135,2.3135,2.3135,2.3135,2.3135,2.3135,2.3135,2.3135,2.3135,2.3135,2.3135,2.2949,2.2529,2.251,2.2314,2.1894,2.1885,2.168,2.126,2.126,2.1025,2.0596,2.1016,2.0977,1.7158,1.7266,1.7412,1.7559,1.7197,1.6862,1.7209,1.6944,1.6839,1.7696,1.8007,1.8366,1.9185,1.9512,1.9658,0.0,0.0,1.9766,0.0,1.916,1.9336,2.0049,2.0654,2.1133,2.1426,2.1318,2.1592,2.2451,2.2129,2.2246,2.3096,2.2998,2.2803,2.2519,2.1963,2.1523,2.123,2.0791,2.0566,2.0566,2.0566,2.0566,2.0566,2.0566,2.0566,2.0566,2.0566,2.0566,2.0566,2.0566,2.0566,2.0566,2.0566,2.0566,2.0566,2.0566,2.0566,2.0566,2.0566,2.0957,2.1523,2.1953,2.2383,2.2773,2.3057,2.3135,2.3135,2.3135,2.3135,2.3135,2.3135,2.3135,2.3135,2.3135,2.3135,2.3135,2.3135,2.3135,2.3135,2.3135,2.3135,2.3135,2.3135,2.3135,2.3135,2.3135,2.3135,2.3135,2.3135,2.3135,2.3135,2.3135,2.3135,2.3135,2.3135,2.3135,2.3018,2.2744,2.2725,2.2402,2.1699,2.167,2.1465,2.1016,2.1299,2.1523,2.167,2.167,2.1592,2.1435,2.1299,2.0996,1.6265,1.6064,1.5937,1.6197,1.5882,1.5563,1.5876,1.576,1.5867,1.6937,1.722,1.7653,1.9068,1.9137,1.8972,0.0,0.0,1.9249,0.0,1.8945,1.9072,1.9629,2.0068,2.0566,2.1172,2.1094,2.1416,2.2432,2.2129,2.2246,2.3096,2.3135,2.3018,2.2744,2.2324,2.1904,2.1475,2.1025,2.0723,2.0566,2.0566,2.0566,2.0566,2.0566,2.0566,2.0566,2.0566,2.0566,2.0566,2.0566,2.0566,2.0566,2.0566,2.0566,2.0566,2.0566,2.0566,2.0566,2.0566,2.0859,2.1279,2.1562,2.1943,2.2344,2.2607,2.2793,2.292,2.292,2.3027,2.3135,2.3135,2.3135,2.3135,2.3135,2.3135,2.3135,2.3135,2.3135,2.3135,2.3135,2.3135,2.3135,2.3135,2.3135,2.3135,2.3135,2.3135,2.3135,2.3135,2.3135,2.3135,2.3135,2.3135,2.3135,2.3135,2.3135,2.3027,2.2754,2.2598,2.2197,2.1494,2.1318,2.1103,2.081,2.0928,2.1211,2.165,2.1494,2.1416,2.1406,2.1123,2.084]}]]